<?xml version="1.0" encoding="UTF-8" standalone="no" ?>
<gpx xmlns="http://www.topografix.com/GPX/1/1" xmlns:xsi="http://www.w3.org/2001/XMLSchema-instance" xsi:schemaLocation="http://www.topografix.com/GPX/1/1 http://www.topografix.com/GPX/1/1/gpx.xsd" version="1.1" creator="VisuGPX - https://www.visugpx.com">
  <metadata>
    <name>10ème Arrancabirra</name>
    <desc><![CDATA[10ème Arrancabirra]]></desc>
  </metadata>
  <trk>
    <name><![CDATA[Move]]></name>
    <trkseg>
      <trkpt lat="45.79253" lon="6.97241">
        <ele>1262.5046437993</ele>
        <time>2015-10-10T08:04:41.820Z</time>
      </trkpt>
      <trkpt lat="45.79244" lon="6.97247">
        <ele>1262.11100032</ele>
        <time>2015-10-10T08:04:47.820Z</time>
      </trkpt>
      <trkpt lat="45.79235" lon="6.97245">
        <ele>1262.71100032</ele>
        <time>2015-10-10T08:04:53.820Z</time>
      </trkpt>
      <trkpt lat="45.79224" lon="6.97242">
        <ele>1262.88899968</ele>
        <time>2015-10-10T08:04:57.820Z</time>
      </trkpt>
      <trkpt lat="45.79215" lon="6.97241">
        <ele>1262.28899968</ele>
        <time>2015-10-10T08:05:03.820Z</time>
      </trkpt>
      <trkpt lat="45.79206" lon="6.97238">
        <ele>1262.41099904</ele>
        <time>2015-10-10T08:05:10.820Z</time>
      </trkpt>
      <trkpt lat="45.79195" lon="6.9724">
        <ele>1263.22200064</ele>
        <time>2015-10-10T08:05:17.820Z</time>
      </trkpt>
      <trkpt lat="45.79188" lon="6.97247">
        <ele>1264.22199808</ele>
        <time>2015-10-10T08:05:22.820Z</time>
      </trkpt>
      <trkpt lat="45.79179" lon="6.97248">
        <ele>1265.01099904</ele>
        <time>2015-10-10T08:05:26.820Z</time>
      </trkpt>
      <trkpt lat="45.79167" lon="6.97252">
        <ele>1265.41099904</ele>
        <time>2015-10-10T08:05:30.820Z</time>
      </trkpt>
      <trkpt lat="45.79153" lon="6.97259">
        <ele>1265.99100032</ele>
        <time>2015-10-10T08:05:36.620Z</time>
      </trkpt>
      <trkpt lat="45.79143" lon="6.97262">
        <ele>1266</ele>
        <time>2015-10-10T08:05:41.220Z</time>
      </trkpt>
      <trkpt lat="45.79134" lon="6.97278">
        <ele>1265.86900096</ele>
        <time>2015-10-10T08:05:48.020Z</time>
      </trkpt>
      <trkpt lat="45.79128" lon="6.97291">
        <ele>1265.36899968</ele>
        <time>2015-10-10T08:05:53.020Z</time>
      </trkpt>
      <trkpt lat="45.79123" lon="6.97305">
        <ele>1265</ele>
        <time>2015-10-10T08:05:57.020Z</time>
      </trkpt>
      <trkpt lat="45.79119" lon="6.97318">
        <ele>1265</ele>
        <time>2015-10-10T08:06:01.020Z</time>
      </trkpt>
      <trkpt lat="45.79121" lon="6.97332">
        <ele>1265</ele>
        <time>2015-10-10T08:06:03.020Z</time>
      </trkpt>
      <trkpt lat="45.79118" lon="6.97346">
        <ele>1265</ele>
        <time>2015-10-10T08:06:06.020Z</time>
      </trkpt>
      <trkpt lat="45.79113" lon="6.9736">
        <ele>1265</ele>
        <time>2015-10-10T08:06:10.020Z</time>
      </trkpt>
      <trkpt lat="45.79107" lon="6.9737">
        <ele>1265</ele>
        <time>2015-10-10T08:06:14.020Z</time>
      </trkpt>
      <trkpt lat="45.791" lon="6.97379">
        <ele>1265</ele>
        <time>2015-10-10T08:06:18.020Z</time>
      </trkpt>
      <trkpt lat="45.79087" lon="6.97381">
        <ele>1265</ele>
        <time>2015-10-10T08:06:22.020Z</time>
      </trkpt>
      <trkpt lat="45.79076" lon="6.97377">
        <ele>1265</ele>
        <time>2015-10-10T08:06:25.020Z</time>
      </trkpt>
      <trkpt lat="45.79066" lon="6.97373">
        <ele>1264.53799936</ele>
        <time>2015-10-10T08:06:29.020Z</time>
      </trkpt>
      <trkpt lat="45.79057" lon="6.97368">
        <ele>1264.13799936</ele>
        <time>2015-10-10T08:06:31.020Z</time>
      </trkpt>
      <trkpt lat="45.79047" lon="6.97366">
        <ele>1263.53800192</ele>
        <time>2015-10-10T08:06:34.020Z</time>
      </trkpt>
      <trkpt lat="45.79038" lon="6.97364">
        <ele>1262.96899968</ele>
        <time>2015-10-10T08:06:37.020Z</time>
      </trkpt>
      <trkpt lat="45.7903" lon="6.97358">
        <ele>1262.76899968</ele>
        <time>2015-10-10T08:06:39.020Z</time>
      </trkpt>
      <trkpt lat="45.79018" lon="6.97353">
        <ele>1262.46900096</ele>
        <time>2015-10-10T08:06:42.020Z</time>
      </trkpt>
      <trkpt lat="45.79009" lon="6.97347">
        <ele>1262.06900096</ele>
        <time>2015-10-10T08:06:46.020Z</time>
      </trkpt>
      <trkpt lat="45.78999" lon="6.97341">
        <ele>1262.78200064</ele>
        <time>2015-10-10T08:06:50.620Z</time>
      </trkpt>
      <trkpt lat="45.78989" lon="6.97337">
        <ele>1263.98200064</ele>
        <time>2015-10-10T08:06:56.620Z</time>
      </trkpt>
      <trkpt lat="45.78983" lon="6.97348">
        <ele>1264.79100032</ele>
        <time>2015-10-10T08:07:04.620Z</time>
      </trkpt>
      <trkpt lat="45.78979" lon="6.9736">
        <ele>1265.98199808</ele>
        <time>2015-10-10T08:07:11.620Z</time>
      </trkpt>
      <trkpt lat="45.78967" lon="6.97356">
        <ele>1266.78199808</ele>
        <time>2015-10-10T08:07:15.620Z</time>
      </trkpt>
      <trkpt lat="45.78956" lon="6.9735">
        <ele>1267</ele>
        <time>2015-10-10T08:07:18.620Z</time>
      </trkpt>
      <trkpt lat="45.78945" lon="6.97343">
        <ele>1267</ele>
        <time>2015-10-10T08:07:21.620Z</time>
      </trkpt>
      <trkpt lat="45.78933" lon="6.97337">
        <ele>1267</ele>
        <time>2015-10-10T08:07:25.620Z</time>
      </trkpt>
      <trkpt lat="45.78923" lon="6.97335">
        <ele>1267</ele>
        <time>2015-10-10T08:07:28.620Z</time>
      </trkpt>
      <trkpt lat="45.78912" lon="6.97329">
        <ele>1267</ele>
        <time>2015-10-10T08:07:32.620Z</time>
      </trkpt>
      <trkpt lat="45.78903" lon="6.97335">
        <ele>1267.088262863</ele>
        <time>2015-10-10T08:07:37.620Z</time>
      </trkpt>
      <trkpt lat="45.78898" lon="6.97348">
        <ele>1267.864208306</ele>
        <time>2015-10-10T08:07:45.620Z</time>
      </trkpt>
      <trkpt lat="45.78899" lon="6.97368">
        <ele>1268.7430343011</ele>
        <time>2015-10-10T08:07:50.620Z</time>
      </trkpt>
      <trkpt lat="45.78901" lon="6.97381">
        <ele>1269.155831135</ele>
        <time>2015-10-10T08:07:52.620Z</time>
      </trkpt>
      <trkpt lat="45.78902" lon="6.97394">
        <ele>1269.7750237441</ele>
        <time>2015-10-10T08:07:55.620Z</time>
      </trkpt>
      <trkpt lat="45.78893" lon="6.97399">
        <ele>1270</ele>
        <time>2015-10-10T08:08:02.620Z</time>
      </trkpt>
      <trkpt lat="45.78887" lon="6.97409">
        <ele>1270.18199808</ele>
        <time>2015-10-10T08:08:07.620Z</time>
      </trkpt>
      <trkpt lat="45.78878" lon="6.97408">
        <ele>1270.98199808</ele>
        <time>2015-10-10T08:08:11.620Z</time>
      </trkpt>
      <trkpt lat="45.78872" lon="6.97421">
        <ele>1272.36199936</ele>
        <time>2015-10-10T08:08:18.520Z</time>
      </trkpt>
      <trkpt lat="45.78865" lon="6.97432">
        <ele>1273.76399872</ele>
        <time>2015-10-10T08:08:25.530Z</time>
      </trkpt>
      <trkpt lat="45.7886" lon="6.97444">
        <ele>1275.92799744</ele>
        <time>2015-10-10T08:08:31.530Z</time>
      </trkpt>
      <trkpt lat="45.78855" lon="6.97457">
        <ele>1278.34099968</ele>
        <time>2015-10-10T08:08:40.120Z</time>
      </trkpt>
      <trkpt lat="45.78847" lon="6.97465">
        <ele>1279.05199872</ele>
        <time>2015-10-10T08:08:46.970Z</time>
      </trkpt>
      <trkpt lat="45.78838" lon="6.97469">
        <ele>1280.40199936</ele>
        <time>2015-10-10T08:08:53.720Z</time>
      </trkpt>
      <trkpt lat="45.78825" lon="6.97482">
        <ele>1282.46199808</ele>
        <time>2015-10-10T08:09:04.020Z</time>
      </trkpt>
      <trkpt lat="45.78804" lon="6.97479">
        <ele>1284.66200064</ele>
        <time>2015-10-10T08:09:15.020Z</time>
      </trkpt>
      <trkpt lat="45.7879" lon="6.97481">
        <ele>1285.73099904</ele>
        <time>2015-10-10T08:09:24.020Z</time>
      </trkpt>
      <trkpt lat="45.78779" lon="6.9748">
        <ele>1286.53099904</ele>
        <time>2015-10-10T08:09:32.020Z</time>
      </trkpt>
      <trkpt lat="45.7877" lon="6.97486">
        <ele>1287.63100032</ele>
        <time>2015-10-10T08:09:43.020Z</time>
      </trkpt>
      <trkpt lat="45.78762" lon="6.97491">
        <ele>1288.06200064</ele>
        <time>2015-10-10T08:09:47.020Z</time>
      </trkpt>
      <trkpt lat="45.7875" lon="6.97486">
        <ele>1289.26200064</ele>
        <time>2015-10-10T08:09:53.020Z</time>
      </trkpt>
      <trkpt lat="45.78741" lon="6.97486">
        <ele>1291.26200064</ele>
        <time>2015-10-10T08:10:03.020Z</time>
      </trkpt>
      <trkpt lat="45.78742" lon="6.975">
        <ele>1292.0618152536</ele>
        <time>2015-10-10T08:10:07.020Z</time>
      </trkpt>
      <trkpt lat="45.78738" lon="6.97512">
        <ele>1293.2582271664</ele>
        <time>2015-10-10T08:10:13.020Z</time>
      </trkpt>
      <trkpt lat="45.78736" lon="6.97525">
        <ele>1294.4573742437</ele>
        <time>2015-10-10T08:10:19.020Z</time>
      </trkpt>
      <trkpt lat="45.78733" lon="6.97537">
        <ele>1296.66199808</ele>
        <time>2015-10-10T08:10:30.020Z</time>
      </trkpt>
      <trkpt lat="45.78732" lon="6.97552">
        <ele>1298.09300096</ele>
        <time>2015-10-10T08:10:37.020Z</time>
      </trkpt>
      <trkpt lat="45.78728" lon="6.97568">
        <ele>1300.19299712</ele>
        <time>2015-10-10T08:10:44.020Z</time>
      </trkpt>
      <trkpt lat="45.78725" lon="6.97582">
        <ele>1301.6120272785</ele>
        <time>2015-10-10T08:10:53.020Z</time>
      </trkpt>
      <trkpt lat="45.78725" lon="6.97595">
        <ele>1303.2383905018</ele>
        <time>2015-10-10T08:11:01.020Z</time>
      </trkpt>
      <trkpt lat="45.78722" lon="6.97608">
        <ele>1305.13099904</ele>
        <time>2015-10-10T08:11:08.020Z</time>
      </trkpt>
      <trkpt lat="45.78721" lon="6.97621">
        <ele>1305.63100032</ele>
        <time>2015-10-10T08:11:13.020Z</time>
      </trkpt>
      <trkpt lat="45.78721" lon="6.97634">
        <ele>1306.66199808</ele>
        <time>2015-10-10T08:11:20.020Z</time>
      </trkpt>
      <trkpt lat="45.78719" lon="6.97647">
        <ele>1308.4481091141</ele>
        <time>2015-10-10T08:11:29.020Z</time>
      </trkpt>
      <trkpt lat="45.7872" lon="6.97661">
        <ele>1309.8060111562</ele>
        <time>2015-10-10T08:11:36.020Z</time>
      </trkpt>
      <trkpt lat="45.78726" lon="6.97671">
        <ele>1314.4999936</ele>
        <time>2015-10-10T08:11:46.020Z</time>
      </trkpt>
      <trkpt lat="45.78732" lon="6.97682">
        <ele>1315</ele>
        <time>2015-10-10T08:11:51.020Z</time>
      </trkpt>
      <trkpt lat="45.78738" lon="6.97696">
        <ele>1315.18199808</ele>
        <time>2015-10-10T08:11:57.620Z</time>
      </trkpt>
      <trkpt lat="45.78739" lon="6.9771">
        <ele>1317.252</ele>
        <time>2015-10-10T08:12:09.230Z</time>
      </trkpt>
      <trkpt lat="45.78753" lon="6.97725">
        <ele>1319.98200064</ele>
        <time>2015-10-10T08:12:26.620Z</time>
      </trkpt>
      <trkpt lat="45.78766" lon="6.97736">
        <ele>1322.2502469669</ele>
        <time>2015-10-10T08:12:37.220Z</time>
      </trkpt>
      <trkpt lat="45.78787" lon="6.97762">
        <ele>1330.801198418</ele>
        <time>2015-10-10T08:13:10.720Z</time>
      </trkpt>
      <trkpt lat="45.78786" lon="6.97775">
        <ele>1334</ele>
        <time>2015-10-10T08:13:45.720Z</time>
      </trkpt>
      <trkpt lat="45.78786" lon="6.97789">
        <ele>1340.0392542149</ele>
        <time>2015-10-10T08:14:07.220Z</time>
      </trkpt>
      <trkpt lat="45.78803" lon="6.97791">
        <ele>1346.26199808</ele>
        <time>2015-10-10T08:14:38.020Z</time>
      </trkpt>
      <trkpt lat="45.7881" lon="6.97784">
        <ele>1348.88</ele>
        <time>2015-10-10T08:14:48.910Z</time>
      </trkpt>
      <trkpt lat="45.78823" lon="6.97782">
        <ele>1353.26200064</ele>
        <time>2015-10-10T08:15:03.020Z</time>
      </trkpt>
      <trkpt lat="45.78834" lon="6.97783">
        <ele>1354.9145379423</ele>
        <time>2015-10-10T08:15:16.020Z</time>
      </trkpt>
      <trkpt lat="45.78842" lon="6.97775">
        <ele>1357.00299904</ele>
        <time>2015-10-10T08:15:26.720Z</time>
      </trkpt>
      <trkpt lat="45.78859" lon="6.97779">
        <ele>1360.32099968</ele>
        <time>2015-10-10T08:15:39.920Z</time>
      </trkpt>
      <trkpt lat="45.7888" lon="6.97768">
        <ele>1366.409770123</ele>
        <time>2015-10-10T08:16:10.820Z</time>
      </trkpt>
      <trkpt lat="45.78904" lon="6.97774">
        <ele>1369.62200064</ele>
        <time>2015-10-10T08:16:29.820Z</time>
      </trkpt>
      <trkpt lat="45.78913" lon="6.97779">
        <ele>1372.96399616</ele>
        <time>2015-10-10T08:16:41.620Z</time>
      </trkpt>
      <trkpt lat="45.78919" lon="6.9779">
        <ele>1375.29099904</ele>
        <time>2015-10-10T08:16:49.620Z</time>
      </trkpt>
      <trkpt lat="45.78914" lon="6.97778">
        <ele>1376.09099904</ele>
        <time>2015-10-10T08:16:57.620Z</time>
      </trkpt>
      <trkpt lat="45.7892" lon="6.97791">
        <ele>1377.5048446512</ele>
        <time>2015-10-10T08:17:11.920Z</time>
      </trkpt>
      <trkpt lat="45.78928" lon="6.97797">
        <ele>1378.5051649587</ele>
        <time>2015-10-10T08:17:21.920Z</time>
      </trkpt>
      <trkpt lat="45.78938" lon="6.97799">
        <ele>1379.312</ele>
        <time>2015-10-10T08:17:29.830Z</time>
      </trkpt>
      <trkpt lat="45.78944" lon="6.97788">
        <ele>1380.49099904</ele>
        <time>2015-10-10T08:17:41.620Z</time>
      </trkpt>
      <trkpt lat="45.78963" lon="6.97775">
        <ele>1382.2080753901</ele>
        <time>2015-10-10T08:17:57.720Z</time>
      </trkpt>
      <trkpt lat="45.78972" lon="6.97772">
        <ele>1384.1304353587</ele>
        <time>2015-10-10T08:18:03.910Z</time>
      </trkpt>
      <trkpt lat="45.78987" lon="6.97764">
        <ele>1385</ele>
        <time>2015-10-10T08:18:13.720Z</time>
      </trkpt>
      <trkpt lat="45.78997" lon="6.97751">
        <ele>1386.00199936</ele>
        <time>2015-10-10T08:18:21.720Z</time>
      </trkpt>
      <trkpt lat="45.79037" lon="6.97777">
        <ele>1393.40199936</ele>
        <time>2015-10-10T08:18:50.730Z</time>
      </trkpt>
      <trkpt lat="45.79042" lon="6.97788">
        <ele>1394.5852700775</ele>
        <time>2015-10-10T08:18:59.730Z</time>
      </trkpt>
      <trkpt lat="45.7905" lon="6.97796">
        <ele>1396.2889551419</ele>
        <time>2015-10-10T08:19:07.730Z</time>
      </trkpt>
      <trkpt lat="45.79059" lon="6.97801">
        <ele>1399.587203166</ele>
        <time>2015-10-10T08:19:15.720Z</time>
      </trkpt>
      <trkpt lat="45.79068" lon="6.97801">
        <ele>1400</ele>
        <time>2015-10-10T08:19:24.730Z</time>
      </trkpt>
      <trkpt lat="45.79079" lon="6.97802">
        <ele>1401.60199936</ele>
        <time>2015-10-10T08:19:34.720Z</time>
      </trkpt>
      <trkpt lat="45.79083" lon="6.97816">
        <ele>1406</ele>
        <time>2015-10-10T08:19:51.720Z</time>
      </trkpt>
      <trkpt lat="45.79079" lon="6.97828">
        <ele>1407.50299904</ele>
        <time>2015-10-10T08:20:01.720Z</time>
      </trkpt>
      <trkpt lat="45.79073" lon="6.97839">
        <ele>1409</ele>
        <time>2015-10-10T08:20:09.720Z</time>
      </trkpt>
      <trkpt lat="45.79072" lon="6.97853">
        <ele>1409</ele>
        <time>2015-10-10T08:20:14.720Z</time>
      </trkpt>
      <trkpt lat="45.79062" lon="6.97857">
        <ele>1409.9709296124</ele>
        <time>2015-10-10T08:20:21.720Z</time>
      </trkpt>
      <trkpt lat="45.79052" lon="6.97859">
        <ele>1411.2138419835</ele>
        <time>2015-10-10T08:20:27.720Z</time>
      </trkpt>
      <trkpt lat="45.79044" lon="6.97867">
        <ele>1412.7634287603</ele>
        <time>2015-10-10T08:20:32.720Z</time>
      </trkpt>
      <trkpt lat="45.79035" lon="6.97873">
        <ele>1414</ele>
        <time>2015-10-10T08:20:39.720Z</time>
      </trkpt>
      <trkpt lat="45.79023" lon="6.97873">
        <ele>1414</ele>
        <time>2015-10-10T08:20:45.620Z</time>
      </trkpt>
      <trkpt lat="45.79019" lon="6.97888">
        <ele>1414.8995863191</ele>
        <time>2015-10-10T08:20:55.750Z</time>
      </trkpt>
      <trkpt lat="45.79025" lon="6.97898">
        <ele>1417.0039603985</ele>
        <time>2015-10-10T08:21:06.750Z</time>
      </trkpt>
      <trkpt lat="45.79036" lon="6.97905">
        <ele>1417.9118814491</ele>
        <time>2015-10-10T08:21:15.920Z</time>
      </trkpt>
      <trkpt lat="45.79058" lon="6.97901">
        <ele>1420.8860497515</ele>
        <time>2015-10-10T08:21:31.220Z</time>
      </trkpt>
      <trkpt lat="45.79067" lon="6.97902">
        <ele>1421.868371155</ele>
        <time>2015-10-10T08:21:36.220Z</time>
      </trkpt>
      <trkpt lat="45.79079" lon="6.97904">
        <ele>1422</ele>
        <time>2015-10-10T08:21:42.720Z</time>
      </trkpt>
      <trkpt lat="45.79083" lon="6.97892">
        <ele>1422.44</ele>
        <time>2015-10-10T08:21:48.910Z</time>
      </trkpt>
      <trkpt lat="45.79092" lon="6.97903">
        <ele>1424.3971008901</ele>
        <time>2015-10-10T08:22:00.820Z</time>
      </trkpt>
      <trkpt lat="45.79103" lon="6.97903">
        <ele>1424.8801943623</ele>
        <time>2015-10-10T08:22:05.820Z</time>
      </trkpt>
      <trkpt lat="45.79114" lon="6.97914">
        <ele>1425.9865301688</ele>
        <time>2015-10-10T08:22:11.820Z</time>
      </trkpt>
      <trkpt lat="45.79123" lon="6.9792">
        <ele>1426.8155448882</ele>
        <time>2015-10-10T08:22:15.820Z</time>
      </trkpt>
      <trkpt lat="45.79134" lon="6.97924">
        <ele>1427</ele>
        <time>2015-10-10T08:22:23.820Z</time>
      </trkpt>
      <trkpt lat="45.79143" lon="6.97931">
        <ele>1427.51100032</ele>
        <time>2015-10-10T08:22:31.820Z</time>
      </trkpt>
      <trkpt lat="45.79152" lon="6.97932">
        <ele>1428.41099904</ele>
        <time>2015-10-10T08:22:40.820Z</time>
      </trkpt>
      <trkpt lat="45.79163" lon="6.97935">
        <ele>1429.1107788332</ele>
        <time>2015-10-10T08:22:47.820Z</time>
      </trkpt>
      <trkpt lat="45.79173" lon="6.97936">
        <ele>1429.8093807964</ele>
        <time>2015-10-10T08:22:54.820Z</time>
      </trkpt>
      <trkpt lat="45.79183" lon="6.97943">
        <ele>1430.6173847328</ele>
        <time>2015-10-10T08:22:59.820Z</time>
      </trkpt>
      <trkpt lat="45.79193" lon="6.97947">
        <ele>1432.3089277667</ele>
        <time>2015-10-10T08:23:09.820Z</time>
      </trkpt>
      <trkpt lat="45.79203" lon="6.97942">
        <ele>1433</ele>
        <time>2015-10-10T08:23:17.820Z</time>
      </trkpt>
      <trkpt lat="45.79212" lon="6.97942">
        <ele>1433</ele>
        <time>2015-10-10T08:23:24.820Z</time>
      </trkpt>
      <trkpt lat="45.79222" lon="6.97947">
        <ele>1434.5945641608</ele>
        <time>2015-10-10T08:23:30.820Z</time>
      </trkpt>
      <trkpt lat="45.79231" lon="6.97947">
        <ele>1437.0825593668</ele>
        <time>2015-10-10T08:23:37.820Z</time>
      </trkpt>
      <trkpt lat="45.7924" lon="6.97952">
        <ele>1437.8049525052</ele>
        <time>2015-10-10T08:23:44.820Z</time>
      </trkpt>
      <trkpt lat="45.79249" lon="6.97957">
        <ele>1438.64099968</ele>
        <time>2015-10-10T08:23:53.120Z</time>
      </trkpt>
      <trkpt lat="45.79259" lon="6.97958">
        <ele>1439.8594231955</ele>
        <time>2015-10-10T08:24:01.020Z</time>
      </trkpt>
      <trkpt lat="45.79268" lon="6.97964">
        <ele>1440.8564305705</ele>
        <time>2015-10-10T08:24:06.020Z</time>
      </trkpt>
      <trkpt lat="45.79276" lon="6.97968">
        <ele>1441.5295882564</ele>
        <time>2015-10-10T08:24:12.020Z</time>
      </trkpt>
      <trkpt lat="45.79285" lon="6.97973">
        <ele>1442.41099904</ele>
        <time>2015-10-10T08:24:20.820Z</time>
      </trkpt>
      <trkpt lat="45.79293" lon="6.97981">
        <ele>1443.38200064</ele>
        <time>2015-10-10T08:24:28.620Z</time>
      </trkpt>
      <trkpt lat="45.79312" lon="6.97986">
        <ele>1445</ele>
        <time>2015-10-10T08:24:38.150Z</time>
      </trkpt>
      <trkpt lat="45.79324" lon="6.97993">
        <ele>1445.64199936</ele>
        <time>2015-10-10T08:24:49.920Z</time>
      </trkpt>
      <trkpt lat="45.79333" lon="6.97998">
        <ele>1446.44199936</ele>
        <time>2015-10-10T08:24:53.920Z</time>
      </trkpt>
      <trkpt lat="45.79342" lon="6.98003">
        <ele>1447.22099968</ele>
        <time>2015-10-10T08:24:58.920Z</time>
      </trkpt>
      <trkpt lat="45.79351" lon="6.98007">
        <ele>1448.12099968</ele>
        <time>2015-10-10T08:25:07.920Z</time>
      </trkpt>
      <trkpt lat="45.79359" lon="6.98002">
        <ele>1448.82099968</ele>
        <time>2015-10-10T08:25:14.920Z</time>
      </trkpt>
      <trkpt lat="45.79369" lon="6.98005">
        <ele>1449.42099968</ele>
        <time>2015-10-10T08:25:20.920Z</time>
      </trkpt>
      <trkpt lat="45.79378" lon="6.9801">
        <ele>1450.04199936</ele>
        <time>2015-10-10T08:25:26.920Z</time>
      </trkpt>
      <trkpt lat="45.79389" lon="6.98019">
        <ele>1452.12099968</ele>
        <time>2015-10-10T08:25:37.920Z</time>
      </trkpt>
      <trkpt lat="45.79393" lon="6.98031">
        <ele>1452.62099968</ele>
        <time>2015-10-10T08:25:42.920Z</time>
      </trkpt>
      <trkpt lat="45.79384" lon="6.98034">
        <ele>1453.64199936</ele>
        <time>2015-10-10T08:25:49.920Z</time>
      </trkpt>
      <trkpt lat="45.79374" lon="6.98031">
        <ele>1454.44199936</ele>
        <time>2015-10-10T08:25:53.920Z</time>
      </trkpt>
      <trkpt lat="45.7937" lon="6.98042">
        <ele>1456.95299712</ele>
        <time>2015-10-10T08:26:03.220Z</time>
      </trkpt>
      <trkpt lat="45.79378" lon="6.9805">
        <ele>1458.35100032</ele>
        <time>2015-10-10T08:26:10.220Z</time>
      </trkpt>
      <trkpt lat="45.79388" lon="6.98054">
        <ele>1459.39599872</ele>
        <time>2015-10-10T08:26:18.690Z</time>
      </trkpt>
      <trkpt lat="45.79399" lon="6.9806">
        <ele>1461.9709296124</ele>
        <time>2015-10-10T08:26:31.720Z</time>
      </trkpt>
      <trkpt lat="45.79407" lon="6.98069">
        <ele>1464.91600128</ele>
        <time>2015-10-10T08:26:41.820Z</time>
      </trkpt>
      <trkpt lat="45.79416" lon="6.98068">
        <ele>1467</ele>
        <time>2015-10-10T08:26:49.820Z</time>
      </trkpt>
      <trkpt lat="45.79426" lon="6.98074">
        <ele>1467.58199808</ele>
        <time>2015-10-10T08:26:59.620Z</time>
      </trkpt>
      <trkpt lat="45.79437" lon="6.98076">
        <ele>1468.98200064</ele>
        <time>2015-10-10T08:27:06.620Z</time>
      </trkpt>
      <trkpt lat="45.79446" lon="6.98083">
        <ele>1471.07299712</ele>
        <time>2015-10-10T08:27:13.620Z</time>
      </trkpt>
      <trkpt lat="45.79453" lon="6.98092">
        <ele>1473.1645322831</ele>
        <time>2015-10-10T08:27:22.620Z</time>
      </trkpt>
      <trkpt lat="45.79462" lon="6.98102">
        <ele>1474.5370556872</ele>
        <time>2015-10-10T08:27:32.150Z</time>
      </trkpt>
      <trkpt lat="45.7947" lon="6.9811">
        <ele>1475.3402574942</ele>
        <time>2015-10-10T08:27:40.150Z</time>
      </trkpt>
      <trkpt lat="45.79476" lon="6.98121">
        <ele>1475.9337298678</ele>
        <time>2015-10-10T08:27:46.150Z</time>
      </trkpt>
      <trkpt lat="45.79483" lon="6.98129">
        <ele>1477.6845301343</ele>
        <time>2015-10-10T08:27:55.150Z</time>
      </trkpt>
      <trkpt lat="45.7949" lon="6.98142">
        <ele>1479.016</ele>
        <time>2015-10-10T08:28:01.790Z</time>
      </trkpt>
      <trkpt lat="45.79502" lon="6.98154">
        <ele>1481.060937482</ele>
        <time>2015-10-10T08:28:12.020Z</time>
      </trkpt>
      <trkpt lat="45.79516" lon="6.9815">
        <ele>1486.0999001318</ele>
        <time>2015-10-10T08:28:27.720Z</time>
      </trkpt>
      <trkpt lat="45.79523" lon="6.9816">
        <ele>1486.8991011865</ele>
        <time>2015-10-10T08:28:35.720Z</time>
      </trkpt>
      <trkpt lat="45.79531" lon="6.98168">
        <ele>1488.2004006731</ele>
        <time>2015-10-10T08:28:42.720Z</time>
      </trkpt>
      <trkpt lat="45.7954" lon="6.98173">
        <ele>1489.61099904</ele>
        <time>2015-10-10T08:28:52.820Z</time>
      </trkpt>
      <trkpt lat="45.79549" lon="6.98188">
        <ele>1490.80399872</ele>
        <time>2015-10-10T08:28:58.720Z</time>
      </trkpt>
      <trkpt lat="45.79556" lon="6.98199">
        <ele>1494</ele>
        <time>2015-10-10T08:29:06.730Z</time>
      </trkpt>
      <trkpt lat="45.79562" lon="6.98207">
        <ele>1494.40199936</ele>
        <time>2015-10-10T08:29:18.720Z</time>
      </trkpt>
      <trkpt lat="45.79572" lon="6.98215">
        <ele>1497.80299904</ele>
        <time>2015-10-10T08:29:32.720Z</time>
      </trkpt>
      <trkpt lat="45.79581" lon="6.9822">
        <ele>1499.60199936</ele>
        <time>2015-10-10T08:29:39.720Z</time>
      </trkpt>
      <trkpt lat="45.7959" lon="6.98229">
        <ele>1500.60399872</ele>
        <time>2015-10-10T08:29:44.730Z</time>
      </trkpt>
      <trkpt lat="45.79597" lon="6.98238">
        <ele>1503</ele>
        <time>2015-10-10T08:30:13.020Z</time>
      </trkpt>
      <trkpt lat="45.796" lon="6.98251">
        <ele>1503</ele>
        <time>2015-10-10T08:30:19.020Z</time>
      </trkpt>
      <trkpt lat="45.79601" lon="6.98264">
        <ele>1503</ele>
        <time>2015-10-10T08:30:25.020Z</time>
      </trkpt>
      <trkpt lat="45.79593" lon="6.98273">
        <ele>1503.43100032</ele>
        <time>2015-10-10T08:30:31.020Z</time>
      </trkpt>
      <trkpt lat="45.79586" lon="6.98283">
        <ele>1504.23100032</ele>
        <time>2015-10-10T08:30:39.020Z</time>
      </trkpt>
      <trkpt lat="45.79577" lon="6.98282">
        <ele>1504.93099904</ele>
        <time>2015-10-10T08:30:46.020Z</time>
      </trkpt>
      <trkpt lat="45.79567" lon="6.98279">
        <ele>1507.52400128</ele>
        <time>2015-10-10T08:30:53.020Z</time>
      </trkpt>
      <trkpt lat="45.79562" lon="6.98291">
        <ele>1509.43100032</ele>
        <time>2015-10-10T08:31:01.020Z</time>
      </trkpt>
      <trkpt lat="45.79554" lon="6.98301">
        <ele>1510.63100032</ele>
        <time>2015-10-10T08:31:13.020Z</time>
      </trkpt>
      <trkpt lat="45.79544" lon="6.983">
        <ele>1511</ele>
        <time>2015-10-10T08:31:22.020Z</time>
      </trkpt>
      <trkpt lat="45.79538" lon="6.9829">
        <ele>1512</ele>
        <time>2015-10-10T08:31:48.020Z</time>
      </trkpt>
      <trkpt lat="45.79536" lon="6.98277">
        <ele>1513</ele>
        <time>2015-10-10T08:32:34.020Z</time>
      </trkpt>
      <trkpt lat="45.79531" lon="6.98289">
        <ele>1513</ele>
        <time>2015-10-10T08:32:47.020Z</time>
      </trkpt>
      <trkpt lat="45.79529" lon="6.98275">
        <ele>1511.87000064</ele>
        <time>2015-10-10T08:33:28.010Z</time>
      </trkpt>
      <trkpt lat="45.79519" lon="6.98278">
        <ele>1511.07000064</ele>
        <time>2015-10-10T08:33:36.010Z</time>
      </trkpt>
      <trkpt lat="45.7951" lon="6.98283">
        <ele>1507</ele>
        <time>2015-10-10T08:33:48.010Z</time>
      </trkpt>
      <trkpt lat="45.79501" lon="6.98284">
        <ele>1506.9709589842</ele>
        <time>2015-10-10T08:33:57.010Z</time>
      </trkpt>
      <trkpt lat="45.79492" lon="6.98286">
        <ele>1506.0997099244</ele>
        <time>2015-10-10T08:34:06.010Z</time>
      </trkpt>
      <trkpt lat="45.79486" lon="6.98297">
        <ele>1506.85999872</ele>
        <time>2015-10-10T08:34:21.010Z</time>
      </trkpt>
      <trkpt lat="45.79475" lon="6.98302">
        <ele>1510.07998976</ele>
        <time>2015-10-10T08:34:28.010Z</time>
      </trkpt>
      <trkpt lat="45.79467" lon="6.98307">
        <ele>1521.27998976</ele>
        <time>2015-10-10T08:34:35.010Z</time>
      </trkpt>
      <trkpt lat="45.79457" lon="6.98307">
        <ele>1527.4365594203</ele>
        <time>2015-10-10T08:34:41.010Z</time>
      </trkpt>
      <trkpt lat="45.79448" lon="6.98308">
        <ele>1536.02999936</ele>
        <time>2015-10-10T08:34:57.010Z</time>
      </trkpt>
      <trkpt lat="45.79439" lon="6.98304">
        <ele>1536.72999936</ele>
        <time>2015-10-10T08:35:04.010Z</time>
      </trkpt>
      <trkpt lat="45.79429" lon="6.983">
        <ele>1540.02999936</ele>
        <time>2015-10-10T08:35:17.010Z</time>
      </trkpt>
      <trkpt lat="45.7942" lon="6.98303">
        <ele>1540.72999936</ele>
        <time>2015-10-10T08:35:24.010Z</time>
      </trkpt>
      <trkpt lat="45.79417" lon="6.98316">
        <ele>1542.85999872</ele>
        <time>2015-10-10T08:35:36.010Z</time>
      </trkpt>
      <trkpt lat="45.79412" lon="6.98328">
        <ele>1547.0590580792</ele>
        <time>2015-10-10T08:35:52.010Z</time>
      </trkpt>
      <trkpt lat="45.79403" lon="6.98327">
        <ele>1548.12999936</ele>
        <time>2015-10-10T08:35:58.010Z</time>
      </trkpt>
      <trkpt lat="45.79394" lon="6.98323">
        <ele>1548.82999936</ele>
        <time>2015-10-10T08:36:05.010Z</time>
      </trkpt>
      <trkpt lat="45.79385" lon="6.98324">
        <ele>1549.8050427763</ele>
        <time>2015-10-10T08:36:15.010Z</time>
      </trkpt>
      <trkpt lat="45.79378" lon="6.98315">
        <ele>1550</ele>
        <time>2015-10-10T08:36:20.010Z</time>
      </trkpt>
      <trkpt lat="45.79368" lon="6.98312">
        <ele>1551.8581411734</ele>
        <time>2015-10-10T08:36:36.010Z</time>
      </trkpt>
      <trkpt lat="45.7936" lon="6.98306">
        <ele>1552.5295290396</ele>
        <time>2015-10-10T08:36:42.010Z</time>
      </trkpt>
      <trkpt lat="45.79354" lon="6.98294">
        <ele>1553.20999552</ele>
        <time>2015-10-10T08:36:47.010Z</time>
      </trkpt>
      <trkpt lat="45.79345" lon="6.98292">
        <ele>1556.00999552</ele>
        <time>2015-10-10T08:36:51.010Z</time>
      </trkpt>
      <trkpt lat="45.79336" lon="6.98295">
        <ele>1561.60999552</ele>
        <time>2015-10-10T08:36:59.010Z</time>
      </trkpt>
      <trkpt lat="45.79327" lon="6.983">
        <ele>1568.85999872</ele>
        <time>2015-10-10T08:37:16.010Z</time>
      </trkpt>
      <trkpt lat="45.7932" lon="6.98311">
        <ele>1572.2215741373</ele>
        <time>2015-10-10T08:37:29.010Z</time>
      </trkpt>
      <trkpt lat="45.79311" lon="6.98312">
        <ele>1572.9018456115</ele>
        <time>2015-10-10T08:37:36.010Z</time>
      </trkpt>
      <trkpt lat="45.79302" lon="6.98308">
        <ele>1574.4295699275</ele>
        <time>2015-10-10T08:37:51.010Z</time>
      </trkpt>
      <trkpt lat="45.79293" lon="6.98313">
        <ele>1575.8588579431</ele>
        <time>2015-10-10T08:38:01.010Z</time>
      </trkpt>
      <trkpt lat="45.79291" lon="6.98327">
        <ele>1578.8581411734</ele>
        <time>2015-10-10T08:38:16.010Z</time>
      </trkpt>
      <trkpt lat="45.79281" lon="6.98325">
        <ele>1579.5295290396</ele>
        <time>2015-10-10T08:38:22.010Z</time>
      </trkpt>
      <trkpt lat="45.79271" lon="6.98327">
        <ele>1580</ele>
        <time>2015-10-10T08:38:30.010Z</time>
      </trkpt>
      <trkpt lat="45.79262" lon="6.9833">
        <ele>1580</ele>
        <time>2015-10-10T08:38:36.010Z</time>
      </trkpt>
      <trkpt lat="45.79262" lon="6.98343">
        <ele>1580.25999872</ele>
        <time>2015-10-10T08:38:53.010Z</time>
      </trkpt>
      <trkpt lat="45.79267" lon="6.98355">
        <ele>1581.2521810274</ele>
        <time>2015-10-10T08:39:18.010Z</time>
      </trkpt>
      <trkpt lat="45.7927" lon="6.98368">
        <ele>1584.8475757092</ele>
        <time>2015-10-10T08:39:30.010Z</time>
      </trkpt>
      <trkpt lat="45.79272" lon="6.98381">
        <ele>1588.6713428961</ele>
        <time>2015-10-10T08:39:40.010Z</time>
      </trkpt>
      <trkpt lat="45.7928" lon="6.98389">
        <ele>1586.34000128</ele>
        <time>2015-10-10T08:39:55.010Z</time>
      </trkpt>
      <trkpt lat="45.7929" lon="6.9839">
        <ele>1584.82999936</ele>
        <time>2015-10-10T08:40:15.010Z</time>
      </trkpt>
      <trkpt lat="45.79294" lon="6.98402">
        <ele>1587.05999872</ele>
        <time>2015-10-10T08:40:27.010Z</time>
      </trkpt>
      <trkpt lat="45.793" lon="6.98414">
        <ele>1588.25999872</ele>
        <time>2015-10-10T08:40:33.010Z</time>
      </trkpt>
      <trkpt lat="45.79296" lon="6.98426">
        <ele>1590.65999872</ele>
        <time>2015-10-10T08:40:45.010Z</time>
      </trkpt>
      <trkpt lat="45.79287" lon="6.98429">
        <ele>1591</ele>
        <time>2015-10-10T08:40:59.010Z</time>
      </trkpt>
      <trkpt lat="45.79296" lon="6.9843">
        <ele>1593</ele>
        <time>2015-10-10T08:41:22.010Z</time>
      </trkpt>
      <trkpt lat="45.79302" lon="6.98442">
        <ele>1593</ele>
        <time>2015-10-10T08:41:30.010Z</time>
      </trkpt>
      <trkpt lat="45.79309" lon="6.98451">
        <ele>1593</ele>
        <time>2015-10-10T08:41:37.010Z</time>
      </trkpt>
      <trkpt lat="45.79318" lon="6.98457">
        <ele>1592.97000064</ele>
        <time>2015-10-10T08:41:47.010Z</time>
      </trkpt>
      <trkpt lat="45.79321" lon="6.98469">
        <ele>1592</ele>
        <time>2015-10-10T08:42:01.010Z</time>
      </trkpt>
      <trkpt lat="45.79322" lon="6.98483">
        <ele>1592.62999936</ele>
        <time>2015-10-10T08:42:13.010Z</time>
      </trkpt>
      <trkpt lat="45.79331" lon="6.98488">
        <ele>1592.17000064</ele>
        <time>2015-10-10T08:42:25.010Z</time>
      </trkpt>
      <trkpt lat="45.7934" lon="6.98493">
        <ele>1590.3849340384</ele>
        <time>2015-10-10T08:42:40.010Z</time>
      </trkpt>
      <trkpt lat="45.79347" lon="6.98501">
        <ele>1588.1701707563</ele>
        <time>2015-10-10T08:42:55.010Z</time>
      </trkpt>
      <trkpt lat="45.79356" lon="6.98507">
        <ele>1587.37000064</ele>
        <time>2015-10-10T08:43:03.010Z</time>
      </trkpt>
      <trkpt lat="45.79365" lon="6.98507">
        <ele>1588.236</ele>
        <time>2015-10-10T08:43:10.830Z</time>
      </trkpt>
      <trkpt lat="45.79366" lon="6.98521">
        <ele>1590</ele>
        <time>2015-10-10T08:43:26.720Z</time>
      </trkpt>
      <trkpt lat="45.79375" lon="6.98527">
        <ele>1590</ele>
        <time>2015-10-10T08:43:37.720Z</time>
      </trkpt>
      <trkpt lat="45.79384" lon="6.98525">
        <ele>1590</ele>
        <time>2015-10-10T08:43:44.720Z</time>
      </trkpt>
      <trkpt lat="45.79392" lon="6.98534">
        <ele>1588.19800064</ele>
        <time>2015-10-10T08:44:00.720Z</time>
      </trkpt>
      <trkpt lat="45.79399" lon="6.98542">
        <ele>1587</ele>
        <time>2015-10-10T08:44:12.720Z</time>
      </trkpt>
      <trkpt lat="45.79408" lon="6.98549">
        <ele>1586.40899968</ele>
        <time>2015-10-10T08:44:32.620Z</time>
      </trkpt>
      <trkpt lat="45.79415" lon="6.9856">
        <ele>1585.21799936</ele>
        <time>2015-10-10T08:44:40.620Z</time>
      </trkpt>
      <trkpt lat="45.79422" lon="6.98568">
        <ele>1583.40899968</ele>
        <time>2015-10-10T08:44:52.620Z</time>
      </trkpt>
      <trkpt lat="45.79429" lon="6.98577">
        <ele>1580.92700288</ele>
        <time>2015-10-10T08:45:03.620Z</time>
      </trkpt>
      <trkpt lat="45.79436" lon="6.98586">
        <ele>1579.30900096</ele>
        <time>2015-10-10T08:45:13.620Z</time>
      </trkpt>
      <trkpt lat="45.79444" lon="6.98592">
        <ele>1582.54600192</ele>
        <time>2015-10-10T08:45:22.620Z</time>
      </trkpt>
      <trkpt lat="45.79454" lon="6.98596">
        <ele>1586.16399616</ele>
        <time>2015-10-10T08:45:29.620Z</time>
      </trkpt>
      <trkpt lat="45.79461" lon="6.98605">
        <ele>1591.3016491013</ele>
        <time>2015-10-10T08:45:44.620Z</time>
      </trkpt>
      <trkpt lat="45.79469" lon="6.98613">
        <ele>1592.9118226357</ele>
        <time>2015-10-10T08:45:57.620Z</time>
      </trkpt>
      <trkpt lat="45.79478" lon="6.98621">
        <ele>1592.1366288372</ele>
        <time>2015-10-10T08:46:05.620Z</time>
      </trkpt>
      <trkpt lat="45.79485" lon="6.9863">
        <ele>1591.0103192604</ele>
        <time>2015-10-10T08:46:16.620Z</time>
      </trkpt>
      <trkpt lat="45.79493" lon="6.98636">
        <ele>1590.0109880555</ele>
        <time>2015-10-10T08:46:26.620Z</time>
      </trkpt>
      <trkpt lat="45.79501" lon="6.98643">
        <ele>1588.70900096</ele>
        <time>2015-10-10T08:46:39.620Z</time>
      </trkpt>
      <trkpt lat="45.79509" lon="6.98649">
        <ele>1585.95800064</ele>
        <time>2015-10-10T08:46:56.920Z</time>
      </trkpt>
      <trkpt lat="45.79518" lon="6.98653">
        <ele>1584.04199936</ele>
        <time>2015-10-10T08:47:06.920Z</time>
      </trkpt>
      <trkpt lat="45.79526" lon="6.98664">
        <ele>1640.47900032</ele>
        <time>2015-10-10T08:47:31.920Z</time>
      </trkpt>
      <trkpt lat="45.79532" lon="6.98674">
        <ele>1639.87900032</ele>
        <time>2015-10-10T08:47:37.920Z</time>
      </trkpt>
      <trkpt lat="45.79541" lon="6.98675">
        <ele>1637.35800064</ele>
        <time>2015-10-10T08:47:54.920Z</time>
      </trkpt>
      <trkpt lat="45.79551" lon="6.98688">
        <ele>1630.51600128</ele>
        <time>2015-10-10T08:48:22.920Z</time>
      </trkpt>
      <trkpt lat="45.7956" lon="6.98693">
        <ele>1629</ele>
        <time>2015-10-10T08:48:34.920Z</time>
      </trkpt>
      <trkpt lat="45.79555" lon="6.98705">
        <ele>1622.2600191687</ele>
        <time>2015-10-10T08:49:05.920Z</time>
      </trkpt>
      <trkpt lat="45.79558" lon="6.98719">
        <ele>1622</ele>
        <time>2015-10-10T08:49:15.920Z</time>
      </trkpt>
      <trkpt lat="45.79556" lon="6.98732">
        <ele>1628.4406777498</ele>
        <time>2015-10-10T08:49:28.920Z</time>
      </trkpt>
      <trkpt lat="45.7955" lon="6.98742">
        <ele>1630</ele>
        <time>2015-10-10T08:49:40.920Z</time>
      </trkpt>
      <trkpt lat="45.79554" lon="6.98755">
        <ele>1633.6799206425</ele>
        <time>2015-10-10T08:50:05.920Z</time>
      </trkpt>
      <trkpt lat="45.79562" lon="6.98762">
        <ele>1637.1208788398</ele>
        <time>2015-10-10T08:50:27.920Z</time>
      </trkpt>
      <trkpt lat="45.79567" lon="6.98773">
        <ele>1638.2402401633</ele>
        <time>2015-10-10T08:50:37.920Z</time>
      </trkpt>
      <trkpt lat="45.79575" lon="6.98781">
        <ele>1640</ele>
        <time>2015-10-10T08:50:51.920Z</time>
      </trkpt>
      <trkpt lat="45.79586" lon="6.98782">
        <ele>1687.61798144</ele>
        <time>2015-10-10T08:51:04.920Z</time>
      </trkpt>
      <trkpt lat="45.79593" lon="6.98792">
        <ele>1696.2133862383</ele>
        <time>2015-10-10T08:51:25.920Z</time>
      </trkpt>
      <trkpt lat="45.79588" lon="6.98803">
        <ele>1694.57900032</ele>
        <time>2015-10-10T08:51:40.920Z</time>
      </trkpt>
      <trkpt lat="45.79591" lon="6.98816">
        <ele>1691.7953453206</ele>
        <time>2015-10-10T08:52:02.920Z</time>
      </trkpt>
      <trkpt lat="45.79589" lon="6.98829">
        <ele>1690.9619232308</ele>
        <time>2015-10-10T08:52:16.920Z</time>
      </trkpt>
      <trkpt lat="45.79597" lon="6.98837">
        <ele>1689.04199936</ele>
        <time>2015-10-10T08:52:41.920Z</time>
      </trkpt>
      <trkpt lat="45.79604" lon="6.98847">
        <ele>1695.04699776</ele>
        <time>2015-10-10T08:52:53.920Z</time>
      </trkpt>
      <trkpt lat="45.79613" lon="6.9884">
        <ele>1701</ele>
        <time>2015-10-10T08:53:11.920Z</time>
      </trkpt>
      <trkpt lat="45.79622" lon="6.98831">
        <ele>1701</ele>
        <time>2015-10-10T08:53:26.920Z</time>
      </trkpt>
      <trkpt lat="45.79626" lon="6.98819">
        <ele>1700.57900032</ele>
        <time>2015-10-10T08:53:40.920Z</time>
      </trkpt>
      <trkpt lat="45.79635" lon="6.98816">
        <ele>1699.87900032</ele>
        <time>2015-10-10T08:53:47.920Z</time>
      </trkpt>
      <trkpt lat="45.79643" lon="6.98821">
        <ele>1699.27900032</ele>
        <time>2015-10-10T08:53:53.920Z</time>
      </trkpt>
      <trkpt lat="45.79635" lon="6.98807">
        <ele>1691.31600128</ele>
        <time>2015-10-10T08:54:20.920Z</time>
      </trkpt>
      <trkpt lat="45.79633" lon="6.9882">
        <ele>1689</ele>
        <time>2015-10-10T08:54:27.920Z</time>
      </trkpt>
      <trkpt lat="45.79638" lon="6.98831">
        <ele>1689</ele>
        <time>2015-10-10T08:54:33.910Z</time>
      </trkpt>
      <trkpt lat="45.79645" lon="6.98842">
        <ele>1689</ele>
        <time>2015-10-10T08:54:40.920Z</time>
      </trkpt>
      <trkpt lat="45.79646" lon="6.98855">
        <ele>1689.8933068808</ele>
        <time>2015-10-10T08:54:55.920Z</time>
      </trkpt>
      <trkpt lat="45.79653" lon="6.98864">
        <ele>1692.5926274009</ele>
        <time>2015-10-10T08:55:14.920Z</time>
      </trkpt>
      <trkpt lat="45.79661" lon="6.9887">
        <ele>1697.8709973568</ele>
        <time>2015-10-10T08:55:22.920Z</time>
      </trkpt>
      <trkpt lat="45.79667" lon="6.98882">
        <ele>1704.72599808</ele>
        <time>2015-10-10T08:55:32.920Z</time>
      </trkpt>
      <trkpt lat="45.79661" lon="6.98894">
        <ele>1708.86299904</ele>
        <time>2015-10-10T08:55:42.920Z</time>
      </trkpt>
      <trkpt lat="45.79654" lon="6.98903">
        <ele>1711.8364916481</ele>
        <time>2015-10-10T08:55:55.920Z</time>
      </trkpt>
      <trkpt lat="45.79648" lon="6.98913">
        <ele>1713</ele>
        <time>2015-10-10T08:56:07.920Z</time>
      </trkpt>
      <trkpt lat="45.79651" lon="6.98929">
        <ele>1713</ele>
        <time>2015-10-10T08:56:21.920Z</time>
      </trkpt>
      <trkpt lat="45.79653" lon="6.98943">
        <ele>1713</ele>
        <time>2015-10-10T08:56:53.920Z</time>
      </trkpt>
      <trkpt lat="45.79656" lon="6.98955">
        <ele>1712</ele>
        <time>2015-10-10T08:57:13.920Z</time>
      </trkpt>
      <trkpt lat="45.79652" lon="6.98968">
        <ele>1761.68</ele>
        <time>2015-10-10T08:57:25.910Z</time>
      </trkpt>
      <trkpt lat="45.79649" lon="6.98982">
        <ele>1765.67900032</ele>
        <time>2015-10-10T08:57:39.920Z</time>
      </trkpt>
      <trkpt lat="45.7965" lon="6.98994">
        <ele>1765</ele>
        <time>2015-10-10T08:57:53.920Z</time>
      </trkpt>
      <trkpt lat="45.79652" lon="6.99007">
        <ele>1767</ele>
        <time>2015-10-10T08:58:12.920Z</time>
      </trkpt>
      <trkpt lat="45.79653" lon="6.99023">
        <ele>1767</ele>
        <time>2015-10-10T08:58:28.920Z</time>
      </trkpt>
      <trkpt lat="45.79645" lon="6.99029">
        <ele>1767</ele>
        <time>2015-10-10T08:58:39.920Z</time>
      </trkpt>
      <trkpt lat="45.79652" lon="6.99039">
        <ele>1765.17900032</ele>
        <time>2015-10-10T08:59:04.920Z</time>
      </trkpt>
      <trkpt lat="45.79646" lon="6.99049">
        <ele>1765</ele>
        <time>2015-10-10T08:59:15.920Z</time>
      </trkpt>
      <trkpt lat="45.79637" lon="6.99053">
        <ele>1762.8403624096</ele>
        <time>2015-10-10T08:59:23.920Z</time>
      </trkpt>
      <trkpt lat="45.79645" lon="6.99058">
        <ele>1758.95800064</ele>
        <time>2015-10-10T08:59:51.920Z</time>
      </trkpt>
      <trkpt lat="45.79649" lon="6.99069">
        <ele>1760.6049984</ele>
        <time>2015-10-10T09:00:01.920Z</time>
      </trkpt>
      <trkpt lat="45.79642" lon="6.99081">
        <ele>1767.1</ele>
        <time>2015-10-10T09:00:14.910Z</time>
      </trkpt>
      <trkpt lat="45.79651" lon="6.99095">
        <ele>1771.82099968</ele>
        <time>2015-10-10T09:00:34.920Z</time>
      </trkpt>
      <trkpt lat="45.79655" lon="6.99108">
        <ele>1771</ele>
        <time>2015-10-10T09:01:06.920Z</time>
      </trkpt>
      <trkpt lat="45.79662" lon="6.99115">
        <ele>1771</ele>
        <time>2015-10-10T09:01:25.920Z</time>
      </trkpt>
      <trkpt lat="45.7967" lon="6.99127">
        <ele>1769.0213391204</ele>
        <time>2015-10-10T09:01:36.920Z</time>
      </trkpt>
      <trkpt lat="45.79679" lon="6.99132">
        <ele>1768.5795797143</ele>
        <time>2015-10-10T09:01:50.920Z</time>
      </trkpt>
      <trkpt lat="45.79688" lon="6.99136">
        <ele>1767.76</ele>
        <time>2015-10-10T09:01:57.910Z</time>
      </trkpt>
      <trkpt lat="45.79696" lon="6.99144">
        <ele>1766.04</ele>
        <time>2015-10-10T09:02:06.910Z</time>
      </trkpt>
      <trkpt lat="45.79702" lon="6.99155">
        <ele>1767.84199936</ele>
        <time>2015-10-10T09:02:15.920Z</time>
      </trkpt>
      <trkpt lat="45.79713" lon="6.99157">
        <ele>1815.56</ele>
        <time>2015-10-10T09:02:24.910Z</time>
      </trkpt>
      <trkpt lat="45.79722" lon="6.99153">
        <ele>1823.54</ele>
        <time>2015-10-10T09:02:34.910Z</time>
      </trkpt>
      <trkpt lat="45.79732" lon="6.99148">
        <ele>1822.3802394445</ele>
        <time>2015-10-10T09:02:42.920Z</time>
      </trkpt>
      <trkpt lat="45.79741" lon="6.99143">
        <ele>1822</ele>
        <time>2015-10-10T09:02:50.920Z</time>
      </trkpt>
      <trkpt lat="45.79751" lon="6.99142">
        <ele>1820.95800064</ele>
        <time>2015-10-10T09:03:01.920Z</time>
      </trkpt>
      <trkpt lat="45.79761" lon="6.99142">
        <ele>1816.2133862383</ele>
        <time>2015-10-10T09:04:05.920Z</time>
      </trkpt>
      <trkpt lat="45.79764" lon="6.99155">
        <ele>1811.1186445004</ele>
        <time>2015-10-10T09:05:18.920Z</time>
      </trkpt>
      <trkpt lat="45.79766" lon="6.99173">
        <ele>1807.6449332205</ele>
        <time>2015-10-10T09:05:27.920Z</time>
      </trkpt>
      <trkpt lat="45.79762" lon="6.99186">
        <ele>1804.97900032</ele>
        <time>2015-10-10T09:05:36.920Z</time>
      </trkpt>
      <trkpt lat="45.79765" lon="6.99201">
        <ele>1802.24</ele>
        <time>2015-10-10T09:05:48.910Z</time>
      </trkpt>
      <trkpt lat="45.79763" lon="6.99215">
        <ele>1795.88</ele>
        <time>2015-10-10T09:05:57.910Z</time>
      </trkpt>
      <trkpt lat="45.7976" lon="6.9923">
        <ele>1795</ele>
        <time>2015-10-10T09:06:06.920Z</time>
      </trkpt>
      <trkpt lat="45.79762" lon="6.99242">
        <ele>1795</ele>
        <time>2015-10-10T09:06:11.920Z</time>
      </trkpt>
      <trkpt lat="45.7976" lon="6.99255">
        <ele>1796.440472381</ele>
        <time>2015-10-10T09:06:17.920Z</time>
      </trkpt>
      <trkpt lat="45.79757" lon="6.99269">
        <ele>1805.9642819048</ele>
        <time>2015-10-10T09:06:25.920Z</time>
      </trkpt>
      <trkpt lat="45.79756" lon="6.99283">
        <ele>1808.5514103226</ele>
        <time>2015-10-10T09:06:31.920Z</time>
      </trkpt>
      <trkpt lat="45.79746" lon="6.99295">
        <ele>1810.32099968</ele>
        <time>2015-10-10T09:06:39.920Z</time>
      </trkpt>
      <trkpt lat="45.79748" lon="6.99309">
        <ele>1811</ele>
        <time>2015-10-10T09:06:49.920Z</time>
      </trkpt>
      <trkpt lat="45.79746" lon="6.99322">
        <ele>1811.2099968</ele>
        <time>2015-10-10T09:06:56.920Z</time>
      </trkpt>
      <trkpt lat="45.79745" lon="6.99335">
        <ele>1821.48399872</ele>
        <time>2015-10-10T09:07:07.920Z</time>
      </trkpt>
      <trkpt lat="45.79755" lon="6.99336">
        <ele>1825.44199936</ele>
        <time>2015-10-10T09:07:18.920Z</time>
      </trkpt>
      <trkpt lat="45.79761" lon="6.99348">
        <ele>1826.44199936</ele>
        <time>2015-10-10T09:07:23.920Z</time>
      </trkpt>
      <trkpt lat="45.79761" lon="6.99362">
        <ele>1829.43099648</ele>
        <time>2015-10-10T09:07:28.920Z</time>
      </trkpt>
      <trkpt lat="45.79764" lon="6.99375">
        <ele>1833.83099648</ele>
        <time>2015-10-10T09:07:32.920Z</time>
      </trkpt>
      <trkpt lat="45.79769" lon="6.99388">
        <ele>1838.06299904</ele>
        <time>2015-10-10T09:07:36.920Z</time>
      </trkpt>
      <trkpt lat="45.79772" lon="6.99401">
        <ele>1839.26299904</ele>
        <time>2015-10-10T09:07:40.920Z</time>
      </trkpt>
      <trkpt lat="45.79778" lon="6.99417">
        <ele>1841.1174754905</ele>
        <time>2015-10-10T09:07:47.920Z</time>
      </trkpt>
      <trkpt lat="45.79782" lon="6.99431">
        <ele>1841.7970875632</ele>
        <time>2015-10-10T09:07:54.920Z</time>
      </trkpt>
      <trkpt lat="45.79784" lon="6.99445">
        <ele>1842.300000132</ele>
        <time>2015-10-10T09:07:59.920Z</time>
      </trkpt>
      <trkpt lat="45.79792" lon="6.99452">
        <ele>1842.7123709939</ele>
        <time>2015-10-10T09:08:03.920Z</time>
      </trkpt>
      <trkpt lat="45.79802" lon="6.99461">
        <ele>1843.84199936</ele>
        <time>2015-10-10T09:08:10.920Z</time>
      </trkpt>
      <trkpt lat="45.79811" lon="6.99468">
        <ele>1844.84</ele>
        <time>2015-10-10T09:08:15.910Z</time>
      </trkpt>
      <trkpt lat="45.79821" lon="6.99471">
        <ele>1847.1049984</ele>
        <time>2015-10-10T09:08:20.920Z</time>
      </trkpt>
      <trkpt lat="45.7983" lon="6.99486">
        <ele>1850.041957416</ele>
        <time>2015-10-10T09:08:26.920Z</time>
      </trkpt>
      <trkpt lat="45.79838" lon="6.99502">
        <ele>1851.240758998</ele>
        <time>2015-10-10T09:08:32.920Z</time>
      </trkpt>
      <trkpt lat="45.79841" lon="6.99514">
        <ele>1852.4204202857</ele>
        <time>2015-10-10T09:08:40.920Z</time>
      </trkpt>
      <trkpt lat="45.79845" lon="6.9953">
        <ele>1852.8208205579</ele>
        <time>2015-10-10T09:08:44.920Z</time>
      </trkpt>
      <trkpt lat="45.79844" lon="6.99545">
        <ele>1854.24199936</ele>
        <time>2015-10-10T09:08:52.920Z</time>
      </trkpt>
      <trkpt lat="45.79847" lon="6.99559">
        <ele>1855.88399872</ele>
        <time>2015-10-10T09:08:58.920Z</time>
      </trkpt>
      <trkpt lat="45.79851" lon="6.99573">
        <ele>1857.88399872</ele>
        <time>2015-10-10T09:09:03.920Z</time>
      </trkpt>
      <trkpt lat="45.79861" lon="6.99585">
        <ele>1860.08299904</ele>
        <time>2015-10-10T09:09:10.320Z</time>
      </trkpt>
      <trkpt lat="45.79869" lon="6.99595">
        <ele>1862.02099968</ele>
        <time>2015-10-10T09:09:16.920Z</time>
      </trkpt>
      <trkpt lat="45.79872" lon="6.99613">
        <ele>1863</ele>
        <time>2015-10-10T09:09:26.920Z</time>
      </trkpt>
      <trkpt lat="45.79874" lon="6.99626">
        <ele>1863</ele>
        <time>2015-10-10T09:09:33.920Z</time>
      </trkpt>
      <trkpt lat="45.79884" lon="6.99634">
        <ele>1864.64199936</ele>
        <time>2015-10-10T09:09:49.920Z</time>
      </trkpt>
      <trkpt lat="45.79887" lon="6.99647">
        <ele>1866.04199936</ele>
        <time>2015-10-10T09:09:56.920Z</time>
      </trkpt>
      <trkpt lat="45.79895" lon="6.99659">
        <ele>1867</ele>
        <time>2015-10-10T09:10:30.920Z</time>
      </trkpt>
      <trkpt lat="45.799" lon="6.99671">
        <ele>1867.32099968</ele>
        <time>2015-10-10T09:10:39.920Z</time>
      </trkpt>
      <trkpt lat="45.79908" lon="6.9968">
        <ele>1867.75800064</ele>
        <time>2015-10-10T09:10:47.920Z</time>
      </trkpt>
      <trkpt lat="45.79914" lon="6.99691">
        <ele>1866.55800064</ele>
        <time>2015-10-10T09:10:53.920Z</time>
      </trkpt>
      <trkpt lat="45.79921" lon="6.99698">
        <ele>1866.3119531388</ele>
        <time>2015-10-10T09:10:59.920Z</time>
      </trkpt>
      <trkpt lat="45.79928" lon="6.99707">
        <ele>1866.7978619391</ele>
        <time>2015-10-10T09:11:04.920Z</time>
      </trkpt>
      <trkpt lat="45.7993" lon="6.9972">
        <ele>1867.6014416144</ele>
        <time>2015-10-10T09:11:09.920Z</time>
      </trkpt>
      <trkpt lat="45.79936" lon="6.99731">
        <ele>1869.22099968</ele>
        <time>2015-10-10T09:11:18.920Z</time>
      </trkpt>
      <trkpt lat="45.79942" lon="6.99741">
        <ele>1869.72099968</ele>
        <time>2015-10-10T09:11:23.920Z</time>
      </trkpt>
      <trkpt lat="45.79952" lon="6.99749">
        <ele>1870</ele>
        <time>2015-10-10T09:11:31.920Z</time>
      </trkpt>
      <trkpt lat="45.79962" lon="6.99752">
        <ele>1869.5979377498</ele>
        <time>2015-10-10T09:11:40.910Z</time>
      </trkpt>
      <trkpt lat="45.79969" lon="6.99765">
        <ele>1869.82099968</ele>
        <time>2015-10-10T09:11:54.920Z</time>
      </trkpt>
      <trkpt lat="45.79973" lon="6.99777">
        <ele>1869.57900032</ele>
        <time>2015-10-10T09:12:00.920Z</time>
      </trkpt>
      <trkpt lat="45.79978" lon="6.99789">
        <ele>1868.27400192</ele>
        <time>2015-10-10T09:12:07.920Z</time>
      </trkpt>
      <trkpt lat="45.79985" lon="6.99797">
        <ele>1864.07400192</ele>
        <time>2015-10-10T09:12:14.920Z</time>
      </trkpt>
      <trkpt lat="45.79985" lon="6.99814">
        <ele>1861.96</ele>
        <time>2015-10-10T09:12:21.910Z</time>
      </trkpt>
      <trkpt lat="45.79984" lon="6.99827">
        <ele>1860.87900032</ele>
        <time>2015-10-10T09:12:27.920Z</time>
      </trkpt>
      <trkpt lat="45.79991" lon="6.99839">
        <ele>1859.48</ele>
        <time>2015-10-10T09:12:41.910Z</time>
      </trkpt>
      <trkpt lat="45.79992" lon="6.99853">
        <ele>1858.15300224</ele>
        <time>2015-10-10T09:12:47.920Z</time>
      </trkpt>
      <trkpt lat="45.79993" lon="6.99869">
        <ele>1850.43700096</ele>
        <time>2015-10-10T09:13:01.920Z</time>
      </trkpt>
      <trkpt lat="45.80001" lon="6.99878">
        <ele>1848.97900032</ele>
        <time>2015-10-10T09:13:06.920Z</time>
      </trkpt>
      <trkpt lat="45.80006" lon="6.99889">
        <ele>1848</ele>
        <time>2015-10-10T09:13:16.910Z</time>
      </trkpt>
      <trkpt lat="45.80012" lon="6.999">
        <ele>1848</ele>
        <time>2015-10-10T09:13:23.920Z</time>
      </trkpt>
      <trkpt lat="45.80022" lon="6.99894">
        <ele>1847.27900032</ele>
        <time>2015-10-10T09:13:33.920Z</time>
      </trkpt>
      <trkpt lat="45.80032" lon="6.99894">
        <ele>1843.71600128</ele>
        <time>2015-10-10T09:13:44.920Z</time>
      </trkpt>
      <trkpt lat="45.80041" lon="6.99896">
        <ele>1842.75800064</ele>
        <time>2015-10-10T09:13:57.920Z</time>
      </trkpt>
      <trkpt lat="45.80047" lon="6.99887">
        <ele>1841</ele>
        <time>2015-10-10T09:14:09.910Z</time>
      </trkpt>
      <trkpt lat="45.80046" lon="6.99904">
        <ele>1840.87900032</ele>
        <time>2015-10-10T09:14:37.920Z</time>
      </trkpt>
      <trkpt lat="45.80053" lon="6.99894">
        <ele>1840.17900032</ele>
        <time>2015-10-10T09:14:44.920Z</time>
      </trkpt>
      <trkpt lat="45.80062" lon="6.99888">
        <ele>1838</ele>
        <time>2015-10-10T09:15:00.910Z</time>
      </trkpt>
      <trkpt lat="45.80072" lon="6.99886">
        <ele>1838</ele>
        <time>2015-10-10T09:15:07.920Z</time>
      </trkpt>
      <trkpt lat="45.80081" lon="6.99884">
        <ele>1838.12099968</ele>
        <time>2015-10-10T09:15:17.920Z</time>
      </trkpt>
      <trkpt lat="45.80088" lon="6.99894">
        <ele>1838.82099968</ele>
        <time>2015-10-10T09:15:24.920Z</time>
      </trkpt>
      <trkpt lat="45.80097" lon="6.99901">
        <ele>1839.97900032</ele>
        <time>2015-10-10T09:15:36.920Z</time>
      </trkpt>
      <trkpt lat="45.80106" lon="6.99903">
        <ele>1839</ele>
        <time>2015-10-10T09:15:48.920Z</time>
      </trkpt>
      <trkpt lat="45.80116" lon="6.99906">
        <ele>1839</ele>
        <time>2015-10-10T09:15:58.920Z</time>
      </trkpt>
      <trkpt lat="45.80109" lon="6.99917">
        <ele>1839</ele>
        <time>2015-10-10T09:16:03.920Z</time>
      </trkpt>
      <trkpt lat="45.80112" lon="6.99929">
        <ele>1837.95800064</ele>
        <time>2015-10-10T09:16:11.920Z</time>
      </trkpt>
      <trkpt lat="45.80107" lon="6.99945">
        <ele>1837</ele>
        <time>2015-10-10T09:16:19.920Z</time>
      </trkpt>
      <trkpt lat="45.80104" lon="6.99958">
        <ele>1837.64199936</ele>
        <time>2015-10-10T09:16:29.920Z</time>
      </trkpt>
      <trkpt lat="45.80109" lon="6.99968">
        <ele>1839.14699776</ele>
        <time>2015-10-10T09:16:36.920Z</time>
      </trkpt>
      <trkpt lat="45.80109" lon="6.99981">
        <ele>1846.82099968</ele>
        <time>2015-10-10T09:16:54.920Z</time>
      </trkpt>
      <trkpt lat="45.80114" lon="6.99996">
        <ele>1845.0208123753</ele>
        <time>2015-10-10T09:17:06.920Z</time>
      </trkpt>
      <trkpt lat="45.80123" lon="7.00004">
        <ele>1845.9127849079</ele>
        <time>2015-10-10T09:17:15.920Z</time>
      </trkpt>
      <trkpt lat="45.80132" lon="7.00011">
        <ele>1846</ele>
        <time>2015-10-10T09:17:25.910Z</time>
      </trkpt>
      <trkpt lat="45.8014" lon="7.00017">
        <ele>1846</ele>
        <time>2015-10-10T09:17:32.920Z</time>
      </trkpt>
      <trkpt lat="45.80149" lon="7.00026">
        <ele>1846.62099968</ele>
        <time>2015-10-10T09:17:42.920Z</time>
      </trkpt>
      <trkpt lat="45.80158" lon="7.00026">
        <ele>1850.6049984</ele>
        <time>2015-10-10T09:17:53.920Z</time>
      </trkpt>
      <trkpt lat="45.80158" lon="7.00013">
        <ele>1852</ele>
        <time>2015-10-10T09:18:02.920Z</time>
      </trkpt>
      <trkpt lat="45.80165" lon="7.00001">
        <ele>1852</ele>
        <time>2015-10-10T09:18:12.920Z</time>
      </trkpt>
      <trkpt lat="45.80167" lon="6.99988">
        <ele>1852.04199936</ele>
        <time>2015-10-10T09:18:26.920Z</time>
      </trkpt>
      <trkpt lat="45.80175" lon="6.99994">
        <ele>1854.84</ele>
        <time>2015-10-10T09:18:40.910Z</time>
      </trkpt>
      <trkpt lat="45.80175" lon="7.00008">
        <ele>1857.28399872</ele>
        <time>2015-10-10T09:18:49.920Z</time>
      </trkpt>
      <trkpt lat="45.80173" lon="7.0002">
        <ele>1860.5058252463</ele>
        <time>2015-10-10T09:19:01.920Z</time>
      </trkpt>
      <trkpt lat="45.80179" lon="7.00033">
        <ele>1861.7226796057</ele>
        <time>2015-10-10T09:19:14.020Z</time>
      </trkpt>
      <trkpt lat="45.80183" lon="7.00046">
        <ele>1863.42</ele>
        <time>2015-10-10T09:19:30.910Z</time>
      </trkpt>
      <trkpt lat="45.8019" lon="7.00055">
        <ele>1866.44</ele>
        <time>2015-10-10T09:19:48.910Z</time>
      </trkpt>
      <trkpt lat="45.80188" lon="7.00069">
        <ele>1868.72099968</ele>
        <time>2015-10-10T09:20:03.920Z</time>
      </trkpt>
      <trkpt lat="45.80191" lon="7.00081">
        <ele>1869.82099968</ele>
        <time>2015-10-10T09:20:24.920Z</time>
      </trkpt>
      <trkpt lat="45.80198" lon="7.00097">
        <ele>1873</ele>
        <time>2015-10-10T09:20:55.920Z</time>
      </trkpt>
      <trkpt lat="45.80204" lon="7.00113">
        <ele>1875.0190383846</ele>
        <time>2015-10-10T09:21:16.920Z</time>
      </trkpt>
      <trkpt lat="45.80204" lon="7.00127">
        <ele>1876</ele>
        <time>2015-10-10T09:21:35.920Z</time>
      </trkpt>
      <trkpt lat="45.80206" lon="7.0014">
        <ele>1875.42099968</ele>
        <time>2015-10-10T09:21:50.920Z</time>
      </trkpt>
      <trkpt lat="45.80206" lon="7.00154">
        <ele>1875</ele>
        <time>2015-10-10T09:22:11.920Z</time>
      </trkpt>
      <trkpt lat="45.80214" lon="7.00164">
        <ele>1874</ele>
        <time>2015-10-10T09:22:26.920Z</time>
      </trkpt>
      <trkpt lat="45.80218" lon="7.00176">
        <ele>1872.37900032</ele>
        <time>2015-10-10T09:22:52.920Z</time>
      </trkpt>
      <trkpt lat="45.8022" lon="7.00189">
        <ele>1871.15800064</ele>
        <time>2015-10-10T09:23:00.920Z</time>
      </trkpt>
      <trkpt lat="45.80221" lon="7.00205">
        <ele>1867.828</ele>
        <time>2015-10-10T09:23:28.430Z</time>
      </trkpt>
      <trkpt lat="45.80229" lon="7.00211">
        <ele>1865.606185167</ele>
        <time>2015-10-10T09:23:48.920Z</time>
      </trkpt>
      <trkpt lat="45.80234" lon="7.00223">
        <ele>1862.6793208965</ele>
        <time>2015-10-10T09:24:09.920Z</time>
      </trkpt>
      <trkpt lat="45.80238" lon="7.00235">
        <ele>1861</ele>
        <time>2015-10-10T09:24:27.920Z</time>
      </trkpt>
      <trkpt lat="45.80238" lon="7.00249">
        <ele>1858.64199936</ele>
        <time>2015-10-10T09:24:49.920Z</time>
      </trkpt>
      <trkpt lat="45.80242" lon="7.00261">
        <ele>1861.38</ele>
        <time>2015-10-10T09:25:12.910Z</time>
      </trkpt>
      <trkpt lat="45.80249" lon="7.00272">
        <ele>1857.15800064</ele>
        <time>2015-10-10T09:25:40.920Z</time>
      </trkpt>
      <trkpt lat="45.80246" lon="7.00285">
        <ele>1862.44</ele>
        <time>2015-10-10T09:25:55.910Z</time>
      </trkpt>
      <trkpt lat="45.80246" lon="7.003">
        <ele>1868.04</ele>
        <time>2015-10-10T09:26:21.910Z</time>
      </trkpt>
      <trkpt lat="45.80251" lon="7.00311">
        <ele>1869.8940721925</ele>
        <time>2015-10-10T09:26:35.910Z</time>
      </trkpt>
      <trkpt lat="45.80249" lon="7.00324">
        <ele>1928.9825079051</ele>
        <time>2015-10-10T09:26:56.910Z</time>
      </trkpt>
      <trkpt lat="45.8025" lon="7.00338">
        <ele>1930.12099968</ele>
        <time>2015-10-10T09:27:17.920Z</time>
      </trkpt>
      <trkpt lat="45.80252" lon="7.00352">
        <ele>1930.07900032</ele>
        <time>2015-10-10T09:27:35.920Z</time>
      </trkpt>
      <trkpt lat="45.80257" lon="7.00366">
        <ele>1931</ele>
        <time>2015-10-10T09:28:00.930Z</time>
      </trkpt>
      <trkpt lat="45.80261" lon="7.00381">
        <ele>1932.12099968</ele>
        <time>2015-10-10T09:28:27.920Z</time>
      </trkpt>
      <trkpt lat="45.80265" lon="7.00393">
        <ele>1933</ele>
        <time>2015-10-10T09:28:47.920Z</time>
      </trkpt>
      <trkpt lat="45.80275" lon="7.00389">
        <ele>1933</ele>
        <time>2015-10-10T09:28:59.910Z</time>
      </trkpt>
      <trkpt lat="45.80284" lon="7.00385">
        <ele>1934.63100032</ele>
        <time>2015-10-10T09:29:33.020Z</time>
      </trkpt>
      <trkpt lat="45.80287" lon="7.00373">
        <ele>1934.88</ele>
        <time>2015-10-10T09:29:47.910Z</time>
      </trkpt>
      <trkpt lat="45.80292" lon="7.00361">
        <ele>1931.812370598</ele>
        <time>2015-10-10T09:30:07.920Z</time>
      </trkpt>
      <trkpt lat="45.80302" lon="7.00357">
        <ele>1930</ele>
        <time>2015-10-10T09:30:28.920Z</time>
      </trkpt>
      <trkpt lat="45.8031" lon="7.00348">
        <ele>1930</ele>
        <time>2015-10-10T09:30:40.920Z</time>
      </trkpt>
      <trkpt lat="45.80317" lon="7.00358">
        <ele>1928.15800064</ele>
        <time>2015-10-10T09:31:00.920Z</time>
      </trkpt>
      <trkpt lat="45.80317" lon="7.00344">
        <ele>1926.15800064</ele>
        <time>2015-10-10T09:31:20.920Z</time>
      </trkpt>
      <trkpt lat="45.80327" lon="7.00343">
        <ele>1925</ele>
        <time>2015-10-10T09:31:29.920Z</time>
      </trkpt>
      <trkpt lat="45.80335" lon="7.00349">
        <ele>1925</ele>
        <time>2015-10-10T09:31:40.920Z</time>
      </trkpt>
      <trkpt lat="45.80345" lon="7.0036">
        <ele>1924.47900032</ele>
        <time>2015-10-10T09:31:51.920Z</time>
      </trkpt>
      <trkpt lat="45.80352" lon="7.00369">
        <ele>1936.59698176</ele>
        <time>2015-10-10T09:31:58.920Z</time>
      </trkpt>
      <trkpt lat="45.80359" lon="7.00377">
        <ele>1981</ele>
        <time>2015-10-10T09:32:07.910Z</time>
      </trkpt>
      <trkpt lat="45.80363" lon="7.0039">
        <ele>1981</ele>
        <time>2015-10-10T09:32:14.910Z</time>
      </trkpt>
      <trkpt lat="45.80372" lon="7.00393">
        <ele>1978.95800064</ele>
        <time>2015-10-10T09:32:26.920Z</time>
      </trkpt>
      <trkpt lat="45.80379" lon="7.004">
        <ele>1978.04199936</ele>
        <time>2015-10-10T09:32:41.920Z</time>
      </trkpt>
      <trkpt lat="45.80384" lon="7.00412">
        <ele>1978.84199936</ele>
        <time>2015-10-10T09:32:45.920Z</time>
      </trkpt>
      <trkpt lat="45.80396" lon="7.00422">
        <ele>1980.8094307643</ele>
        <time>2015-10-10T09:32:55.920Z</time>
      </trkpt>
      <trkpt lat="45.80406" lon="7.00431">
        <ele>1981</ele>
        <time>2015-10-10T09:33:03.920Z</time>
      </trkpt>
      <trkpt lat="45.80413" lon="7.0044">
        <ele>1981.2057998745</ele>
        <time>2015-10-10T09:33:08.910Z</time>
      </trkpt>
      <trkpt lat="45.80415" lon="7.00453">
        <ele>1981.8615528117</ele>
        <time>2015-10-10T09:33:15.920Z</time>
      </trkpt>
      <trkpt lat="45.80424" lon="7.00462">
        <ele>1982</ele>
        <time>2015-10-10T09:33:26.920Z</time>
      </trkpt>
      <trkpt lat="45.80433" lon="7.00466">
        <ele>1982</ele>
        <time>2015-10-10T09:33:33.920Z</time>
      </trkpt>
      <trkpt lat="45.80438" lon="7.00478">
        <ele>1980.51600128</ele>
        <time>2015-10-10T09:33:47.920Z</time>
      </trkpt>
      <trkpt lat="45.80438" lon="7.00491">
        <ele>1977.2145629294</ele>
        <time>2015-10-10T09:33:58.920Z</time>
      </trkpt>
      <trkpt lat="45.80443" lon="7.00504">
        <ele>1978.393814833</ele>
        <time>2015-10-10T09:34:08.920Z</time>
      </trkpt>
      <trkpt lat="45.8045" lon="7.00516">
        <ele>1980.84199936</ele>
        <time>2015-10-10T09:34:20.920Z</time>
      </trkpt>
      <trkpt lat="45.80449" lon="7.00529">
        <ele>1982.66</ele>
        <time>2015-10-10T09:34:28.910Z</time>
      </trkpt>
      <trkpt lat="45.80457" lon="7.00536">
        <ele>1984.97900032</ele>
        <time>2015-10-10T09:34:36.920Z</time>
      </trkpt>
      <trkpt lat="45.80467" lon="7.00542">
        <ele>1984.37900032</ele>
        <time>2015-10-10T09:34:42.920Z</time>
      </trkpt>
      <trkpt lat="45.80476" lon="7.00551">
        <ele>1985.44199936</ele>
        <time>2015-10-10T09:34:53.920Z</time>
      </trkpt>
      <trkpt lat="45.80482" lon="7.00562">
        <ele>1985.57900032</ele>
        <time>2015-10-10T09:35:00.920Z</time>
      </trkpt>
      <trkpt lat="45.80488" lon="7.00575">
        <ele>1985</ele>
        <time>2015-10-10T09:35:13.920Z</time>
      </trkpt>
      <trkpt lat="45.80498" lon="7.00569">
        <ele>1982.47900032</ele>
        <time>2015-10-10T09:35:31.920Z</time>
      </trkpt>
      <trkpt lat="45.80506" lon="7.00578">
        <ele>1982</ele>
        <time>2015-10-10T09:35:36.920Z</time>
      </trkpt>
      <trkpt lat="45.80514" lon="7.00585">
        <ele>1982</ele>
        <time>2015-10-10T09:35:41.920Z</time>
      </trkpt>
      <trkpt lat="45.80518" lon="7.00598">
        <ele>1982</ele>
        <time>2015-10-10T09:35:50.920Z</time>
      </trkpt>
      <trkpt lat="45.80528" lon="7.006">
        <ele>1983.86299904</ele>
        <time>2015-10-10T09:36:02.920Z</time>
      </trkpt>
      <trkpt lat="45.80534" lon="7.0061">
        <ele>1986.44199936</ele>
        <time>2015-10-10T09:36:13.920Z</time>
      </trkpt>
      <trkpt lat="45.80543" lon="7.00614">
        <ele>1986.6974554413</ele>
        <time>2015-10-10T09:36:19.920Z</time>
      </trkpt>
      <trkpt lat="45.80551" lon="7.00621">
        <ele>1986.1319510294</ele>
        <time>2015-10-10T09:36:25.920Z</time>
      </trkpt>
      <trkpt lat="45.80558" lon="7.0063">
        <ele>1984.2108632295</ele>
        <time>2015-10-10T09:36:32.920Z</time>
      </trkpt>
      <trkpt lat="45.80566" lon="7.00636">
        <ele>1983.64199936</ele>
        <time>2015-10-10T09:36:39.920Z</time>
      </trkpt>
      <trkpt lat="45.80574" lon="7.00645">
        <ele>1985.24199936</ele>
        <time>2015-10-10T09:36:47.920Z</time>
      </trkpt>
      <trkpt lat="45.80583" lon="7.00648">
        <ele>1986.84199936</ele>
        <time>2015-10-10T09:36:55.920Z</time>
      </trkpt>
      <trkpt lat="45.80591" lon="7.00656">
        <ele>1989.0400400272</ele>
        <time>2015-10-10T09:37:06.920Z</time>
      </trkpt>
      <trkpt lat="45.80601" lon="7.00658">
        <ele>1990.4414409797</ele>
        <time>2015-10-10T09:37:13.920Z</time>
      </trkpt>
      <trkpt lat="45.80611" lon="7.00657">
        <ele>1992.04199936</ele>
        <time>2015-10-10T09:37:21.920Z</time>
      </trkpt>
      <trkpt lat="45.8062" lon="7.00665">
        <ele>1993.2342685721</ele>
        <time>2015-10-10T09:37:27.920Z</time>
      </trkpt>
      <trkpt lat="45.80629" lon="7.0067">
        <ele>1994.7831557895</ele>
        <time>2015-10-10T09:37:35.920Z</time>
      </trkpt>
      <trkpt lat="45.8064" lon="7.0067">
        <ele>1995.595656473</ele>
        <time>2015-10-10T09:37:39.920Z</time>
      </trkpt>
      <trkpt lat="45.80648" lon="7.00676">
        <ele>1998.04199936</ele>
        <time>2015-10-10T09:37:51.920Z</time>
      </trkpt>
      <trkpt lat="45.80659" lon="7.0068">
        <ele>1999.42</ele>
        <time>2015-10-10T09:38:00.910Z</time>
      </trkpt>
      <trkpt lat="45.80668" lon="7.00688">
        <ele>2000.04199936</ele>
        <time>2015-10-10T09:38:06.920Z</time>
      </trkpt>
      <trkpt lat="45.80676" lon="7.00698">
        <ele>2001.64199936</ele>
        <time>2015-10-10T09:38:14.920Z</time>
      </trkpt>
      <trkpt lat="45.80685" lon="7.00703">
        <ele>2002.47900032</ele>
        <time>2015-10-10T09:38:31.920Z</time>
      </trkpt>
      <trkpt lat="45.80694" lon="7.00707">
        <ele>2001.87900032</ele>
        <time>2015-10-10T09:38:37.920Z</time>
      </trkpt>
      <trkpt lat="45.80702" lon="7.00715">
        <ele>2001</ele>
        <time>2015-10-10T09:38:49.920Z</time>
      </trkpt>
      <trkpt lat="45.80714" lon="7.00722">
        <ele>2000.92099968</ele>
        <time>2015-10-10T09:39:15.920Z</time>
      </trkpt>
      <trkpt lat="45.80724" lon="7.00726">
        <ele>2000.8867044195</ele>
        <time>2015-10-10T09:39:27.920Z</time>
      </trkpt>
      <trkpt lat="45.80734" lon="7.0073">
        <ele>2000.1376407491</ele>
        <time>2015-10-10T09:39:35.920Z</time>
      </trkpt>
      <trkpt lat="45.80743" lon="7.00734">
        <ele>2000</ele>
        <time>2015-10-10T09:39:43.020Z</time>
      </trkpt>
      <trkpt lat="45.80752" lon="7.00729">
        <ele>2001</ele>
        <time>2015-10-10T09:40:02.920Z</time>
      </trkpt>
      <trkpt lat="45.80761" lon="7.00731">
        <ele>2001.22099968</ele>
        <time>2015-10-10T09:40:08.920Z</time>
      </trkpt>
      <trkpt lat="45.8077" lon="7.00729">
        <ele>2002</ele>
        <time>2015-10-10T09:40:18.920Z</time>
      </trkpt>
      <trkpt lat="45.80778" lon="7.00718">
        <ele>2003.44199936</ele>
        <time>2015-10-10T09:40:33.920Z</time>
      </trkpt>
      <trkpt lat="45.80787" lon="7.00719">
        <ele>2006</ele>
        <time>2015-10-10T09:40:55.920Z</time>
      </trkpt>
      <trkpt lat="45.80794" lon="7.00729">
        <ele>2006</ele>
        <time>2015-10-10T09:41:09.910Z</time>
      </trkpt>
      <trkpt lat="45.80797" lon="7.00742">
        <ele>2006</ele>
        <time>2015-10-10T09:41:24.920Z</time>
      </trkpt>
      <trkpt lat="45.80803" lon="7.00751">
        <ele>2004.8030925835</ele>
        <time>2015-10-10T09:41:38.920Z</time>
      </trkpt>
      <trkpt lat="45.80808" lon="7.00734">
        <ele>2002.35800064</ele>
        <time>2015-10-10T09:41:59.920Z</time>
      </trkpt>
      <trkpt lat="45.80813" lon="7.00721">
        <ele>2000.57900032</ele>
        <time>2015-10-10T09:42:10.920Z</time>
      </trkpt>
      <trkpt lat="45.80822" lon="7.00722">
        <ele>1999.48</ele>
        <time>2015-10-10T09:42:21.910Z</time>
      </trkpt>
      <trkpt lat="45.80831" lon="7.00726">
        <ele>1998.15800064</ele>
        <time>2015-10-10T09:42:30.920Z</time>
      </trkpt>
      <trkpt lat="45.80834" lon="7.0074">
        <ele>1993.9854365735</ele>
        <time>2015-10-10T09:42:42.920Z</time>
      </trkpt>
      <trkpt lat="45.80842" lon="7.00748">
        <ele>1992</ele>
        <time>2015-10-10T09:42:50.910Z</time>
      </trkpt>
      <trkpt lat="45.8085" lon="7.00758">
        <ele>1989.51600128</ele>
        <time>2015-10-10T09:43:02.920Z</time>
      </trkpt>
      <trkpt lat="45.80857" lon="7.00767">
        <ele>1986.75800064</ele>
        <time>2015-10-10T09:43:12.920Z</time>
      </trkpt>
      <trkpt lat="45.80855" lon="7.00781">
        <ele>1985.6812317994</ele>
        <time>2015-10-10T09:43:19.920Z</time>
      </trkpt>
      <trkpt lat="45.80855" lon="7.00794">
        <ele>1985</ele>
        <time>2015-10-10T09:43:29.920Z</time>
      </trkpt>
      <trkpt lat="45.8086" lon="7.00804">
        <ele>1985.12099968</ele>
        <time>2015-10-10T09:43:37.920Z</time>
      </trkpt>
      <trkpt lat="45.80863" lon="7.00817">
        <ele>1985.72</ele>
        <time>2015-10-10T09:43:43.910Z</time>
      </trkpt>
      <trkpt lat="45.80866" lon="7.00831">
        <ele>1987.04199936</ele>
        <time>2015-10-10T09:43:51.920Z</time>
      </trkpt>
      <trkpt lat="45.8087" lon="7.00842">
        <ele>1988.22099968</ele>
        <time>2015-10-10T09:43:58.920Z</time>
      </trkpt>
      <trkpt lat="45.80862" lon="7.00857">
        <ele>1988.82099968</ele>
        <time>2015-10-10T09:44:04.920Z</time>
      </trkpt>
      <trkpt lat="45.80859" lon="7.0087">
        <ele>1989</ele>
        <time>2015-10-10T09:44:11.930Z</time>
      </trkpt>
      <trkpt lat="45.80858" lon="7.00884">
        <ele>1989.44199936</ele>
        <time>2015-10-10T09:44:18.920Z</time>
      </trkpt>
      <trkpt lat="45.8086" lon="7.00898">
        <ele>1991.24199936</ele>
        <time>2015-10-10T09:44:27.920Z</time>
      </trkpt>
      <trkpt lat="45.80856" lon="7.00911">
        <ele>1992.04199936</ele>
        <time>2015-10-10T09:44:31.920Z</time>
      </trkpt>
      <trkpt lat="45.80851" lon="7.00924">
        <ele>1993.32099968</ele>
        <time>2015-10-10T09:44:39.920Z</time>
      </trkpt>
      <trkpt lat="45.80851" lon="7.00937">
        <ele>1994</ele>
        <time>2015-10-10T09:44:49.920Z</time>
      </trkpt>
      <trkpt lat="45.80855" lon="7.00949">
        <ele>1994</ele>
        <time>2015-10-10T09:44:55.920Z</time>
      </trkpt>
      <trkpt lat="45.80853" lon="7.00962">
        <ele>1995.6416411158</ele>
        <time>2015-10-10T09:45:04.920Z</time>
      </trkpt>
      <trkpt lat="45.80852" lon="7.00976">
        <ele>1996.32099968</ele>
        <time>2015-10-10T09:45:09.920Z</time>
      </trkpt>
      <trkpt lat="45.8085" lon="7.0099">
        <ele>1997.24199936</ele>
        <time>2015-10-10T09:45:17.920Z</time>
      </trkpt>
      <trkpt lat="45.80854" lon="7.01004">
        <ele>1998.64199936</ele>
        <time>2015-10-10T09:45:24.920Z</time>
      </trkpt>
      <trkpt lat="45.80865" lon="7.01007">
        <ele>1999.04199936</ele>
        <time>2015-10-10T09:45:36.920Z</time>
      </trkpt>
      <trkpt lat="45.80866" lon="7.01023">
        <ele>1998.4999993402</ele>
        <time>2015-10-10T09:45:59.920Z</time>
      </trkpt>
      <trkpt lat="45.80871" lon="7.01034">
        <ele>1994.95800064</ele>
        <time>2015-10-10T09:46:06.920Z</time>
      </trkpt>
      <trkpt lat="45.80878" lon="7.01042">
        <ele>1992</ele>
        <time>2015-10-10T09:46:28.920Z</time>
      </trkpt>
      <trkpt lat="45.80878" lon="7.01056">
        <ele>1992</ele>
        <time>2015-10-10T09:46:43.920Z</time>
      </trkpt>
      <trkpt lat="45.80884" lon="7.01069">
        <ele>1994.56299904</ele>
        <time>2015-10-10T09:47:01.920Z</time>
      </trkpt>
      <trkpt lat="45.80893" lon="7.01074">
        <ele>1996</ele>
        <time>2015-10-10T09:47:10.920Z</time>
      </trkpt>
      <trkpt lat="45.80901" lon="7.01082">
        <ele>1995.47900032</ele>
        <time>2015-10-10T09:47:21.920Z</time>
      </trkpt>
      <trkpt lat="45.80901" lon="7.01096">
        <ele>1993.35800064</ele>
        <time>2015-10-10T09:47:34.920Z</time>
      </trkpt>
      <trkpt lat="45.80893" lon="7.01102">
        <ele>1991.93799936</ele>
        <time>2015-10-10T09:47:47.020Z</time>
      </trkpt>
      <trkpt lat="45.80891" lon="7.01115">
        <ele>1989</ele>
        <time>2015-10-10T09:48:12.910Z</time>
      </trkpt>
      <trkpt lat="45.80899" lon="7.01122">
        <ele>1988</ele>
        <time>2015-10-10T09:48:30.920Z</time>
      </trkpt>
      <trkpt lat="45.80906" lon="7.0113">
        <ele>1987.38</ele>
        <time>2015-10-10T09:48:42.910Z</time>
      </trkpt>
      <trkpt lat="45.80915" lon="7.01136">
        <ele>1986.28</ele>
        <time>2015-10-10T09:48:53.910Z</time>
      </trkpt>
      <trkpt lat="45.80923" lon="7.01141">
        <ele>1983.5930244961</ele>
        <time>2015-10-10T09:49:02.920Z</time>
      </trkpt>
      <trkpt lat="45.80931" lon="7.0115">
        <ele>1982</ele>
        <time>2015-10-10T09:49:12.910Z</time>
      </trkpt>
      <trkpt lat="45.80938" lon="7.01159">
        <ele>1982</ele>
        <time>2015-10-10T09:49:20.910Z</time>
      </trkpt>
      <trkpt lat="45.80941" lon="7.01172">
        <ele>1981.58</ele>
        <time>2015-10-10T09:49:30.910Z</time>
      </trkpt>
      <trkpt lat="45.8095" lon="7.01175">
        <ele>1980.48</ele>
        <time>2015-10-10T09:49:41.910Z</time>
      </trkpt>
      <trkpt lat="45.80956" lon="7.01186">
        <ele>1980.72099968</ele>
        <time>2015-10-10T09:49:53.920Z</time>
      </trkpt>
      <trkpt lat="45.80966" lon="7.01193">
        <ele>1981</ele>
        <time>2015-10-10T09:50:03.920Z</time>
      </trkpt>
      <trkpt lat="45.80975" lon="7.01194">
        <ele>1980.77900032</ele>
        <time>2015-10-10T09:50:18.920Z</time>
      </trkpt>
      <trkpt lat="45.80984" lon="7.01204">
        <ele>1979.08</ele>
        <time>2015-10-10T09:50:35.910Z</time>
      </trkpt>
      <trkpt lat="45.8099" lon="7.01214">
        <ele>1977.62</ele>
        <time>2015-10-10T09:50:52.910Z</time>
      </trkpt>
      <trkpt lat="45.81001" lon="7.01221">
        <ele>1978.9217818118</ele>
        <time>2015-10-10T09:51:16.020Z</time>
      </trkpt>
      <trkpt lat="45.8101" lon="7.01223">
        <ele>2030.55800064</ele>
        <time>2015-10-10T09:51:38.920Z</time>
      </trkpt>
      <trkpt lat="45.81017" lon="7.01212">
        <ele>2025.7185633332</ele>
        <time>2015-10-10T09:51:59.920Z</time>
      </trkpt>
      <trkpt lat="45.81014" lon="7.01225">
        <ele>2018.8030925835</ele>
        <time>2015-10-10T09:52:18.920Z</time>
      </trkpt>
      <trkpt lat="45.81022" lon="7.01217">
        <ele>1997.64</ele>
        <time>2015-10-10T09:53:47.910Z</time>
      </trkpt>
      <trkpt lat="45.81029" lon="7.01227">
        <ele>2036.97900032</ele>
        <time>2015-10-10T09:55:06.920Z</time>
      </trkpt>
      <trkpt lat="45.81033" lon="7.0124">
        <ele>2031.4</ele>
        <time>2015-10-10T09:55:51.910Z</time>
      </trkpt>
      <trkpt lat="45.8104" lon="7.01248">
        <ele>2028.5584420566</ele>
        <time>2015-10-10T09:55:58.920Z</time>
      </trkpt>
      <trkpt lat="45.81049" lon="7.01252">
        <ele>2024.47900032</ele>
        <time>2015-10-10T09:56:21.920Z</time>
      </trkpt>
      <trkpt lat="45.81058" lon="7.01241">
        <ele>2023.0087375588</ele>
        <time>2015-10-10T09:56:36.920Z</time>
      </trkpt>
      <trkpt lat="45.81066" lon="7.01247">
        <ele>2033.7492536515</ele>
        <time>2015-10-10T09:57:15.920Z</time>
      </trkpt>
      <trkpt lat="45.81068" lon="7.01261">
        <ele>2036.97900032</ele>
        <time>2015-10-10T09:57:26.920Z</time>
      </trkpt>
      <trkpt lat="45.81062" lon="7.01275">
        <ele>2036.67900032</ele>
        <time>2015-10-10T09:57:29.920Z</time>
      </trkpt>
      <trkpt lat="45.81065" lon="7.0129">
        <ele>2036.62099968</ele>
        <time>2015-10-10T09:57:42.920Z</time>
      </trkpt>
      <trkpt lat="45.81073" lon="7.01296">
        <ele>2037.84199936</ele>
        <time>2015-10-10T09:57:50.920Z</time>
      </trkpt>
      <trkpt lat="45.81079" lon="7.01286">
        <ele>2039</ele>
        <time>2015-10-10T09:57:56.920Z</time>
      </trkpt>
      <trkpt lat="45.81087" lon="7.01293">
        <ele>2039</ele>
        <time>2015-10-10T09:58:02.920Z</time>
      </trkpt>
      <trkpt lat="45.81097" lon="7.0129">
        <ele>2039</ele>
        <time>2015-10-10T09:58:09.920Z</time>
      </trkpt>
      <trkpt lat="45.81106" lon="7.01288">
        <ele>2039</ele>
        <time>2015-10-10T09:58:14.910Z</time>
      </trkpt>
      <trkpt lat="45.81108" lon="7.01301">
        <ele>2037.7172835859</ele>
        <time>2015-10-10T09:58:19.920Z</time>
      </trkpt>
      <trkpt lat="45.8111" lon="7.01314">
        <ele>2035.7968904325</ele>
        <time>2015-10-10T09:58:34.920Z</time>
      </trkpt>
      <trkpt lat="45.81112" lon="7.01328">
        <ele>2036.5061855629</ele>
        <time>2015-10-10T09:58:41.920Z</time>
      </trkpt>
      <trkpt lat="45.81115" lon="7.0134">
        <ele>2037.64199936</ele>
        <time>2015-10-10T09:58:49.920Z</time>
      </trkpt>
      <trkpt lat="45.81111" lon="7.01355">
        <ele>2039.72099968</ele>
        <time>2015-10-10T09:59:03.920Z</time>
      </trkpt>
      <trkpt lat="45.81112" lon="7.01369">
        <ele>2040.42099968</ele>
        <time>2015-10-10T09:59:10.920Z</time>
      </trkpt>
      <trkpt lat="45.81111" lon="7.01383">
        <ele>2042.32099968</ele>
        <time>2015-10-10T09:59:29.920Z</time>
      </trkpt>
      <trkpt lat="45.81113" lon="7.01395">
        <ele>2043.24199936</ele>
        <time>2015-10-10T09:59:37.920Z</time>
      </trkpt>
      <trkpt lat="45.81118" lon="7.01408">
        <ele>2044.44199936</ele>
        <time>2015-10-10T09:59:43.920Z</time>
      </trkpt>
      <trkpt lat="45.81118" lon="7.01424">
        <ele>2045</ele>
        <time>2015-10-10T09:59:53.920Z</time>
      </trkpt>
      <trkpt lat="45.81123" lon="7.01435">
        <ele>2045</ele>
        <time>2015-10-10T10:00:00.920Z</time>
      </trkpt>
      <trkpt lat="45.81127" lon="7.01449">
        <ele>2045</ele>
        <time>2015-10-10T10:00:11.920Z</time>
      </trkpt>
      <trkpt lat="45.81134" lon="7.01459">
        <ele>2046.56299904</ele>
        <time>2015-10-10T10:00:21.920Z</time>
      </trkpt>
      <trkpt lat="45.81135" lon="7.01474">
        <ele>2048</ele>
        <time>2015-10-10T10:00:31.920Z</time>
      </trkpt>
      <trkpt lat="45.81139" lon="7.01485">
        <ele>2050.08399872</ele>
        <time>2015-10-10T10:00:41.920Z</time>
      </trkpt>
      <trkpt lat="45.81146" lon="7.01494">
        <ele>2052.32</ele>
        <time>2015-10-10T10:00:49.910Z</time>
      </trkpt>
      <trkpt lat="45.81153" lon="7.01503">
        <ele>2053</ele>
        <time>2015-10-10T10:00:56.930Z</time>
      </trkpt>
      <trkpt lat="45.8116" lon="7.01513">
        <ele>2053</ele>
        <time>2015-10-10T10:01:05.930Z</time>
      </trkpt>
      <trkpt lat="45.81167" lon="7.01524">
        <ele>2053.9185564249</ele>
        <time>2015-10-10T10:01:15.920Z</time>
      </trkpt>
      <trkpt lat="45.81175" lon="7.01531">
        <ele>2054</ele>
        <time>2015-10-10T10:01:23.910Z</time>
      </trkpt>
      <trkpt lat="45.81184" lon="7.01536">
        <ele>2054.52</ele>
        <time>2015-10-10T10:01:31.910Z</time>
      </trkpt>
      <trkpt lat="45.81193" lon="7.0154">
        <ele>2055.5048546826</ele>
        <time>2015-10-10T10:01:41.910Z</time>
      </trkpt>
      <trkpt lat="45.81201" lon="7.01546">
        <ele>2056</ele>
        <time>2015-10-10T10:01:48.910Z</time>
      </trkpt>
      <trkpt lat="45.8121" lon="7.01553">
        <ele>2056</ele>
        <time>2015-10-10T10:01:55.920Z</time>
      </trkpt>
      <trkpt lat="45.81217" lon="7.01564">
        <ele>2056.7719293431</ele>
        <time>2015-10-10T10:02:04.920Z</time>
      </trkpt>
      <trkpt lat="45.81221" lon="7.01577">
        <ele>2062.4415579434</ele>
        <time>2015-10-10T10:02:18.920Z</time>
      </trkpt>
      <trkpt lat="45.81221" lon="7.01591">
        <ele>2064</ele>
        <time>2015-10-10T10:02:33.910Z</time>
      </trkpt>
      <trkpt lat="45.81222" lon="7.01606">
        <ele>2067.24</ele>
        <time>2015-10-10T10:02:47.910Z</time>
      </trkpt>
      <trkpt lat="45.81228" lon="7.01621">
        <ele>2068.77900032</ele>
        <time>2015-10-10T10:02:58.920Z</time>
      </trkpt>
      <trkpt lat="45.81235" lon="7.01631">
        <ele>2068.02</ele>
        <time>2015-10-10T10:03:06.910Z</time>
      </trkpt>
      <trkpt lat="45.81236" lon="7.01644">
        <ele>2070.24199936</ele>
        <time>2015-10-10T10:03:22.920Z</time>
      </trkpt>
      <trkpt lat="45.81239" lon="7.01658">
        <ele>2071.52099968</ele>
        <time>2015-10-10T10:03:31.920Z</time>
      </trkpt>
      <trkpt lat="45.81243" lon="7.01671">
        <ele>2073.24</ele>
        <time>2015-10-10T10:03:42.910Z</time>
      </trkpt>
      <trkpt lat="45.81246" lon="7.01683">
        <ele>2074</ele>
        <time>2015-10-10T10:03:54.910Z</time>
      </trkpt>
      <trkpt lat="45.81249" lon="7.01695">
        <ele>2074</ele>
        <time>2015-10-10T10:04:06.920Z</time>
      </trkpt>
      <trkpt lat="45.81256" lon="7.01705">
        <ele>2075</ele>
        <time>2015-10-10T10:04:22.910Z</time>
      </trkpt>
      <trkpt lat="45.8126" lon="7.01718">
        <ele>2074.44</ele>
        <time>2015-10-10T10:04:38.910Z</time>
      </trkpt>
      <trkpt lat="45.81269" lon="7.01722">
        <ele>2075.4933060372</ele>
        <time>2015-10-10T10:05:01.920Z</time>
      </trkpt>
      <trkpt lat="45.81277" lon="7.01715">
        <ele>2074.67900032</ele>
        <time>2015-10-10T10:05:19.920Z</time>
      </trkpt>
      <trkpt lat="45.81287" lon="7.01712">
        <ele>2074.62</ele>
        <time>2015-10-10T10:05:32.910Z</time>
      </trkpt>
      <trkpt lat="45.81296" lon="7.01714">
        <ele>2075</ele>
        <time>2015-10-10T10:05:45.910Z</time>
      </trkpt>
      <trkpt lat="45.81303" lon="7.01705">
        <ele>2076</ele>
        <time>2015-10-10T10:05:59.920Z</time>
      </trkpt>
      <trkpt lat="45.8131" lon="7.01696">
        <ele>2076</ele>
        <time>2015-10-10T10:06:08.910Z</time>
      </trkpt>
      <trkpt lat="45.8132" lon="7.01696">
        <ele>2075.37900032</ele>
        <time>2015-10-10T10:06:22.920Z</time>
      </trkpt>
      <trkpt lat="45.8133" lon="7.01693">
        <ele>2073.56</ele>
        <time>2015-10-10T10:06:38.910Z</time>
      </trkpt>
      <trkpt lat="45.81337" lon="7.01686">
        <ele>2071.52</ele>
        <time>2015-10-10T10:06:47.910Z</time>
      </trkpt>
      <trkpt lat="45.81346" lon="7.01682">
        <ele>2067.68</ele>
        <time>2015-10-10T10:06:59.910Z</time>
      </trkpt>
      <trkpt lat="45.81356" lon="7.01683">
        <ele>2067</ele>
        <time>2015-10-10T10:07:14.910Z</time>
      </trkpt>
      <trkpt lat="45.81365" lon="7.01689">
        <ele>2059.84</ele>
        <time>2015-10-10T10:07:33.910Z</time>
      </trkpt>
      <trkpt lat="45.81373" lon="7.01695">
        <ele>2056.12</ele>
        <time>2015-10-10T10:07:48.910Z</time>
      </trkpt>
      <trkpt lat="45.81383" lon="7.01698">
        <ele>2051.1924192629</ele>
        <time>2015-10-10T10:08:02.910Z</time>
      </trkpt>
      <trkpt lat="45.8139" lon="7.0169">
        <ele>2045.91600128</ele>
        <time>2015-10-10T10:08:16.920Z</time>
      </trkpt>
      <trkpt lat="45.81399" lon="7.01686">
        <ele>2041.11600128</ele>
        <time>2015-10-10T10:08:28.920Z</time>
      </trkpt>
      <trkpt lat="45.81407" lon="7.01694">
        <ele>2028.4198252034</ele>
        <time>2015-10-10T10:09:05.920Z</time>
      </trkpt>
      <trkpt lat="45.81415" lon="7.01698">
        <ele>2026.77900032</ele>
        <time>2015-10-10T10:09:18.920Z</time>
      </trkpt>
      <trkpt lat="45.81423" lon="7.01689">
        <ele>2024.55800064</ele>
        <time>2015-10-10T10:09:33.920Z</time>
      </trkpt>
      <trkpt lat="45.81434" lon="7.01688">
        <ele>2084.52</ele>
        <time>2015-10-10T10:10:12.910Z</time>
      </trkpt>
      <trkpt lat="45.81443" lon="7.01682">
        <ele>2082</ele>
        <time>2015-10-10T10:10:30.910Z</time>
      </trkpt>
      <trkpt lat="45.81445" lon="7.01695">
        <ele>2084.68</ele>
        <time>2015-10-10T10:10:59.910Z</time>
      </trkpt>
      <trkpt lat="45.81454" lon="7.017">
        <ele>2076.16</ele>
        <time>2015-10-10T10:11:40.910Z</time>
      </trkpt>
      <trkpt lat="45.81463" lon="7.01706">
        <ele>2076.3203202177</ele>
        <time>2015-10-10T10:11:59.920Z</time>
      </trkpt>
      <trkpt lat="45.8147" lon="7.01715">
        <ele>2075.54</ele>
        <time>2015-10-10T10:12:34.910Z</time>
      </trkpt>
      <trkpt lat="45.81477" lon="7.01731">
        <ele>2064.28</ele>
        <time>2015-10-10T10:13:13.910Z</time>
      </trkpt>
      <trkpt lat="45.81484" lon="7.01741">
        <ele>2084.58</ele>
        <time>2015-10-10T10:13:30.910Z</time>
      </trkpt>
      <trkpt lat="45.81485" lon="7.01755">
        <ele>2105.53700096</ele>
        <time>2015-10-10T10:13:54.920Z</time>
      </trkpt>
      <trkpt lat="45.81485" lon="7.0177">
        <ele>2098</ele>
        <time>2015-10-10T10:14:06.920Z</time>
      </trkpt>
      <trkpt lat="45.81477" lon="7.01776">
        <ele>2098.281444103</ele>
        <time>2015-10-10T10:14:27.920Z</time>
      </trkpt>
      <trkpt lat="45.8148" lon="7.01789">
        <ele>2099.35800064</ele>
        <time>2015-10-10T10:14:49.920Z</time>
      </trkpt>
      <trkpt lat="45.81482" lon="7.01803">
        <ele>2095.27900032</ele>
        <time>2015-10-10T10:15:13.920Z</time>
      </trkpt>
      <trkpt lat="45.81475" lon="7.01818">
        <ele>2091.07900032</ele>
        <time>2015-10-10T10:15:45.920Z</time>
      </trkpt>
      <trkpt lat="45.81483" lon="7.01825">
        <ele>2138.32</ele>
        <time>2015-10-10T10:16:05.910Z</time>
      </trkpt>
      <trkpt lat="45.81485" lon="7.01838">
        <ele>2135</ele>
        <time>2015-10-10T10:16:37.910Z</time>
      </trkpt>
      <trkpt lat="45.81493" lon="7.01843">
        <ele>2134.98</ele>
        <time>2015-10-10T10:16:56.910Z</time>
      </trkpt>
      <trkpt lat="45.81501" lon="7.01851">
        <ele>2134.32</ele>
        <time>2015-10-10T10:17:09.910Z</time>
      </trkpt>
      <trkpt lat="45.81509" lon="7.01842">
        <ele>2135</ele>
        <time>2015-10-10T10:17:20.910Z</time>
      </trkpt>
      <trkpt lat="45.81513" lon="7.0183">
        <ele>2137.557161011</ele>
        <time>2015-10-10T10:17:38.910Z</time>
      </trkpt>
      <trkpt lat="45.81513" lon="7.01817">
        <ele>2150.88</ele>
        <time>2015-10-10T10:17:49.910Z</time>
      </trkpt>
      <trkpt lat="45.81522" lon="7.01809">
        <ele>2159</ele>
        <time>2015-10-10T10:18:09.910Z</time>
      </trkpt>
      <trkpt lat="45.81527" lon="7.0182">
        <ele>2158.9</ele>
        <time>2015-10-10T10:18:26.910Z</time>
      </trkpt>
      <trkpt lat="45.81536" lon="7.01821">
        <ele>2145.3760937224</ele>
        <time>2015-10-10T10:18:59.920Z</time>
      </trkpt>
      <trkpt lat="45.81544" lon="7.01813">
        <ele>2143.081359726</ele>
        <time>2015-10-10T10:19:15.920Z</time>
      </trkpt>
      <trkpt lat="45.81543" lon="7.01827">
        <ele>2134.13700096</ele>
        <time>2015-10-10T10:20:02.920Z</time>
      </trkpt>
      <trkpt lat="45.81543" lon="7.01842">
        <ele>2133</ele>
        <time>2015-10-10T10:20:16.920Z</time>
      </trkpt>
      <trkpt lat="45.81553" lon="7.01838">
        <ele>2188</ele>
        <time>2015-10-10T10:21:08.920Z</time>
      </trkpt>
      <trkpt lat="45.81561" lon="7.01851">
        <ele>2186.4044029936</ele>
        <time>2015-10-10T10:21:27.910Z</time>
      </trkpt>
      <trkpt lat="45.81571" lon="7.0185">
        <ele>2186.72</ele>
        <time>2015-10-10T10:22:29.910Z</time>
      </trkpt>
      <trkpt lat="45.81575" lon="7.01863">
        <ele>2182.74</ele>
        <time>2015-10-10T10:22:40.910Z</time>
      </trkpt>
      <trkpt lat="45.81574" lon="7.01877">
        <ele>2179.44</ele>
        <time>2015-10-10T10:22:51.910Z</time>
      </trkpt>
      <trkpt lat="45.81583" lon="7.01875">
        <ele>2172.38</ele>
        <time>2015-10-10T10:23:32.910Z</time>
      </trkpt>
      <trkpt lat="45.81595" lon="7.0187">
        <ele>2181.0400400272</ele>
        <time>2015-10-10T10:24:36.920Z</time>
      </trkpt>
      <trkpt lat="45.81604" lon="7.01876">
        <ele>2185.928</ele>
        <time>2015-10-10T10:24:54.030Z</time>
      </trkpt>
      <trkpt lat="45.81614" lon="7.01882">
        <ele>2189.52</ele>
        <time>2015-10-10T10:25:21.910Z</time>
      </trkpt>
      <trkpt lat="45.81612" lon="7.01869">
        <ele>2196.52</ele>
        <time>2015-10-10T10:25:51.910Z</time>
      </trkpt>
      <trkpt lat="45.81615" lon="7.01857">
        <ele>2196.3419734479</ele>
        <time>2015-10-10T10:26:08.910Z</time>
      </trkpt>
      <trkpt lat="45.81623" lon="7.01862">
        <ele>2190</ele>
        <time>2015-10-10T10:26:36.910Z</time>
      </trkpt>
      <trkpt lat="45.81632" lon="7.01853">
        <ele>2243</ele>
        <time>2015-10-10T10:27:07.910Z</time>
      </trkpt>
      <trkpt lat="45.81641" lon="7.0185">
        <ele>2237.560877963</ele>
        <time>2015-10-10T10:27:43.920Z</time>
      </trkpt>
      <trkpt lat="45.81652" lon="7.01845">
        <ele>2232</ele>
        <time>2015-10-10T10:28:12.910Z</time>
      </trkpt>
      <trkpt lat="45.81661" lon="7.01852">
        <ele>2234.37800064</ele>
        <time>2015-10-10T10:28:42.930Z</time>
      </trkpt>
      <trkpt lat="45.8167" lon="7.01852">
        <ele>2231.36299904</ele>
        <time>2015-10-10T10:29:27.920Z</time>
      </trkpt>
      <trkpt lat="45.81676" lon="7.01868">
        <ele>2232</ele>
        <time>2015-10-10T10:30:05.920Z</time>
      </trkpt>
      <trkpt lat="45.81681" lon="7.01879">
        <ele>2231</ele>
        <time>2015-10-10T10:30:23.910Z</time>
      </trkpt>
      <trkpt lat="45.8168" lon="7.01895">
        <ele>2286</ele>
        <time>2015-10-10T10:31:18.920Z</time>
      </trkpt>
      <trkpt lat="45.81685" lon="7.01906">
        <ele>2286</ele>
        <time>2015-10-10T10:31:31.920Z</time>
      </trkpt>
      <trkpt lat="45.81683" lon="7.01888">
        <ele>2286.08399872</ele>
        <time>2015-10-10T10:31:36.920Z</time>
      </trkpt>
      <trkpt lat="45.8169" lon="7.01896">
        <ele>2289.62</ele>
        <time>2015-10-10T10:32:02.910Z</time>
      </trkpt>
      <trkpt lat="45.81697" lon="7.01903">
        <ele>2288.78</ele>
        <time>2015-10-10T10:32:18.910Z</time>
      </trkpt>
      <trkpt lat="45.81707" lon="7.01914">
        <ele>2283.35800064</ele>
        <time>2015-10-10T10:32:39.920Z</time>
      </trkpt>
      <trkpt lat="45.81712" lon="7.01924">
        <ele>2278.77900032</ele>
        <time>2015-10-10T10:32:58.920Z</time>
      </trkpt>
      <trkpt lat="45.81721" lon="7.01923">
        <ele>2282.5633355919</ele>
        <time>2015-10-10T10:33:33.920Z</time>
      </trkpt>
      <trkpt lat="45.81729" lon="7.01915">
        <ele>2284.92</ele>
        <time>2015-10-10T10:33:45.910Z</time>
      </trkpt>
      <trkpt lat="45.8173" lon="7.01901">
        <ele>2286.6</ele>
        <time>2015-10-10T10:33:57.910Z</time>
      </trkpt>
      <trkpt lat="45.81728" lon="7.01882">
        <ele>2295.84199936</ele>
        <time>2015-10-10T10:34:20.920Z</time>
      </trkpt>
      <trkpt lat="45.81725" lon="7.01868">
        <ele>2297.32099968</ele>
        <time>2015-10-10T10:34:29.920Z</time>
      </trkpt>
      <trkpt lat="45.81734" lon="7.01875">
        <ele>2323.56</ele>
        <time>2015-10-10T10:35:31.910Z</time>
      </trkpt>
      <trkpt lat="45.8174" lon="7.01885">
        <ele>2326.26</ele>
        <time>2015-10-10T10:35:50.910Z</time>
      </trkpt>
      <trkpt lat="45.81747" lon="7.01895">
        <ele>2329.14</ele>
        <time>2015-10-10T10:36:16.910Z</time>
      </trkpt>
      <trkpt lat="45.81755" lon="7.01902">
        <ele>2336.1175896187</ele>
        <time>2015-10-10T10:36:27.920Z</time>
      </trkpt>
      <trkpt lat="45.81762" lon="7.01911">
        <ele>2338.32</ele>
        <time>2015-10-10T10:36:49.910Z</time>
      </trkpt>
      <trkpt lat="45.81773" lon="7.01915">
        <ele>2350.12</ele>
        <time>2015-10-10T10:37:17.910Z</time>
      </trkpt>
      <trkpt lat="45.8178" lon="7.01927">
        <ele>2351</ele>
        <time>2015-10-10T10:37:34.920Z</time>
      </trkpt>
      <trkpt lat="45.81786" lon="7.01938">
        <ele>2357</ele>
        <time>2015-10-10T10:38:06.910Z</time>
      </trkpt>
      <trkpt lat="45.81793" lon="7.01947">
        <ele>2358</ele>
        <time>2015-10-10T10:38:35.910Z</time>
      </trkpt>
      <trkpt lat="45.81798" lon="7.01959">
        <ele>2357.33700096</ele>
        <time>2015-10-10T10:38:58.920Z</time>
      </trkpt>
      <trkpt lat="45.81807" lon="7.01959">
        <ele>2355.63200256</ele>
        <time>2015-10-10T10:40:15.920Z</time>
      </trkpt>
      <trkpt lat="45.81816" lon="7.01965">
        <ele>2340.87400192</ele>
        <time>2015-10-10T10:40:36.920Z</time>
      </trkpt>
      <trkpt lat="45.81822" lon="7.01976">
        <ele>2334.38</ele>
        <time>2015-10-10T10:40:52.910Z</time>
      </trkpt>
      <trkpt lat="45.81833" lon="7.01981">
        <ele>2327</ele>
        <time>2015-10-10T10:41:25.910Z</time>
      </trkpt>
      <trkpt lat="45.81841" lon="7.01989">
        <ele>2325.18</ele>
        <time>2015-10-10T10:42:04.910Z</time>
      </trkpt>
      <trkpt lat="45.8185" lon="7.01999">
        <ele>2335.52</ele>
        <time>2015-10-10T10:43:17.910Z</time>
      </trkpt>
      <trkpt lat="45.81855" lon="7.02011">
        <ele>2331.3806191826</ele>
        <time>2015-10-10T10:43:32.910Z</time>
      </trkpt>
      <trkpt lat="45.81861" lon="7.02024">
        <ele>2391.68</ele>
        <time>2015-10-10T10:44:09.910Z</time>
      </trkpt>
      <trkpt lat="45.81868" lon="7.02031">
        <ele>2389.88</ele>
        <time>2015-10-10T10:44:27.910Z</time>
      </trkpt>
      <trkpt lat="45.81874" lon="7.02042">
        <ele>2385.92</ele>
        <time>2015-10-10T10:44:46.910Z</time>
      </trkpt>
      <trkpt lat="45.81877" lon="7.02054">
        <ele>2380</ele>
        <time>2015-10-10T10:45:06.910Z</time>
      </trkpt>
      <trkpt lat="45.81884" lon="7.02064">
        <ele>2381.34</ele>
        <time>2015-10-10T10:46:32.910Z</time>
      </trkpt>
      <trkpt lat="45.81888" lon="7.02076">
        <ele>2388</ele>
        <time>2015-10-10T10:46:51.910Z</time>
      </trkpt>
      <trkpt lat="45.81893" lon="7.02087">
        <ele>2390.12</ele>
        <time>2015-10-10T10:47:17.910Z</time>
      </trkpt>
      <trkpt lat="45.81897" lon="7.021">
        <ele>2390</ele>
        <time>2015-10-10T10:47:49.920Z</time>
      </trkpt>
      <trkpt lat="45.81902" lon="7.0211">
        <ele>2389.02</ele>
        <time>2015-10-10T10:48:06.910Z</time>
      </trkpt>
      <trkpt lat="45.81911" lon="7.02116">
        <ele>2389.98</ele>
        <time>2015-10-10T10:49:26.910Z</time>
      </trkpt>
      <trkpt lat="45.81916" lon="7.02127">
        <ele>2385.7602396836</ele>
        <time>2015-10-10T10:49:47.910Z</time>
      </trkpt>
      <trkpt lat="45.81922" lon="7.02137">
        <ele>2383.2792795101</ele>
        <time>2015-10-10T10:50:03.920Z</time>
      </trkpt>
      <trkpt lat="45.81925" lon="7.02149">
        <ele>2381.47900032</ele>
        <time>2015-10-10T10:50:21.920Z</time>
      </trkpt>
      <trkpt lat="45.81932" lon="7.02157">
        <ele>2387.13898112</ele>
        <time>2015-10-10T10:50:37.920Z</time>
      </trkpt>
      <trkpt lat="45.81929" lon="7.0217">
        <ele>2434.56</ele>
        <time>2015-10-10T10:51:03.910Z</time>
      </trkpt>
      <trkpt lat="45.81935" lon="7.02186">
        <ele>2432.68</ele>
        <time>2015-10-10T10:51:29.910Z</time>
      </trkpt>
      <trkpt lat="45.81941" lon="7.02196">
        <ele>2433.04</ele>
        <time>2015-10-10T10:51:46.910Z</time>
      </trkpt>
      <trkpt lat="45.81947" lon="7.02209">
        <ele>2437</ele>
        <time>2015-10-10T10:52:08.910Z</time>
      </trkpt>
      <trkpt lat="45.81951" lon="7.0222">
        <ele>2437.6990295606</ele>
        <time>2015-10-10T10:52:23.910Z</time>
      </trkpt>
      <trkpt lat="45.81957" lon="7.02232">
        <ele>2438</ele>
        <time>2015-10-10T10:52:39.910Z</time>
      </trkpt>
      <trkpt lat="45.81961" lon="7.02244">
        <ele>2438</ele>
        <time>2015-10-10T10:52:51.910Z</time>
      </trkpt>
      <trkpt lat="45.81969" lon="7.02241">
        <ele>2445.92</ele>
        <time>2015-10-10T10:54:29.910Z</time>
      </trkpt>
      <trkpt lat="45.81977" lon="7.02233">
        <ele>2454.06</ele>
        <time>2015-10-10T10:54:46.910Z</time>
      </trkpt>
      <trkpt lat="45.8198" lon="7.0222">
        <ele>2459.88</ele>
        <time>2015-10-10T10:54:59.910Z</time>
      </trkpt>
      <trkpt lat="45.81984" lon="7.02209">
        <ele>2473.96799744</ele>
        <time>2015-10-10T10:55:17.920Z</time>
      </trkpt>
      <trkpt lat="45.81994" lon="7.02201">
        <ele>2489.8290416217</ele>
        <time>2015-10-10T10:55:42.920Z</time>
      </trkpt>
      <trkpt lat="45.82001" lon="7.02192">
        <ele>2495.96</ele>
        <time>2015-10-10T10:55:59.910Z</time>
      </trkpt>
      <trkpt lat="45.82009" lon="7.02185">
        <ele>2509.56</ele>
        <time>2015-10-10T10:56:31.910Z</time>
      </trkpt>
      <trkpt lat="45.82017" lon="7.02176">
        <ele>2516.26</ele>
        <time>2015-10-10T10:56:50.910Z</time>
      </trkpt>
      <trkpt lat="45.82022" lon="7.02165">
        <ele>2521.26</ele>
        <time>2015-10-10T10:57:10.910Z</time>
      </trkpt>
      <trkpt lat="45.82031" lon="7.02157">
        <ele>2528.22</ele>
        <time>2015-10-10T10:57:38.910Z</time>
      </trkpt>
      <trkpt lat="45.82037" lon="7.02168">
        <ele>2534.44</ele>
        <time>2015-10-10T10:58:03.910Z</time>
      </trkpt>
      <trkpt lat="45.82042" lon="7.02153">
        <ele>2534</ele>
        <time>2015-10-10T10:59:00.910Z</time>
      </trkpt>
      <trkpt lat="45.82051" lon="7.02144">
        <ele>2540</ele>
        <time>2015-10-10T10:59:35.910Z</time>
      </trkpt>
      <trkpt lat="45.8206" lon="7.02145">
        <ele>2545.22</ele>
        <time>2015-10-10T11:00:08.910Z</time>
      </trkpt>
      <trkpt lat="45.82066" lon="7.02136">
        <ele>2547.9100787352</ele>
        <time>2015-10-10T11:01:25.920Z</time>
      </trkpt>
      <trkpt lat="45.82077" lon="7.02134">
        <ele>2551.68</ele>
        <time>2015-10-10T11:02:09.910Z</time>
      </trkpt>
      <trkpt lat="45.82083" lon="7.02143">
        <ele>2555</ele>
        <time>2015-10-10T11:03:18.930Z</time>
      </trkpt>
      <trkpt lat="45.82094" lon="7.02138">
        <ele>2555.4013603581</ele>
        <time>2015-10-10T11:04:03.920Z</time>
      </trkpt>
      <trkpt lat="45.82104" lon="7.02132">
        <ele>2557</ele>
        <time>2015-10-10T11:04:31.910Z</time>
      </trkpt>
      <trkpt lat="45.82113" lon="7.0213">
        <ele>2557.5918366078</ele>
        <time>2015-10-10T11:05:00.910Z</time>
      </trkpt>
      <trkpt lat="45.82124" lon="7.02125">
        <ele>2556</ele>
        <time>2015-10-10T11:05:29.910Z</time>
      </trkpt>
      <trkpt lat="45.82132" lon="7.02122">
        <ele>2565.1</ele>
        <time>2015-10-10T11:06:14.910Z</time>
      </trkpt>
      <trkpt lat="45.82139" lon="7.02112">
        <ele>2577.44199936</ele>
        <time>2015-10-10T11:07:08.920Z</time>
      </trkpt>
      <trkpt lat="45.82143" lon="7.02098">
        <ele>2583.64</ele>
        <time>2015-10-10T11:07:44.910Z</time>
      </trkpt>
      <trkpt lat="45.82147" lon="7.02082">
        <ele>2585.3498543362</ele>
        <time>2015-10-10T11:08:07.910Z</time>
      </trkpt>
      <trkpt lat="45.82152" lon="7.02071">
        <ele>2589.27900032</ele>
        <time>2015-10-10T11:08:33.920Z</time>
      </trkpt>
      <trkpt lat="45.82159" lon="7.02062">
        <ele>2594</ele>
        <time>2015-10-10T11:08:56.910Z</time>
      </trkpt>
      <trkpt lat="45.82166" lon="7.02055">
        <ele>2595.04</ele>
        <time>2015-10-10T11:09:11.910Z</time>
      </trkpt>
      <trkpt lat="45.82167" lon="7.02041">
        <ele>2594.36</ele>
        <time>2015-10-10T11:10:04.910Z</time>
      </trkpt>
      <trkpt lat="45.82171" lon="7.0203">
        <ele>2594</ele>
        <time>2015-10-10T11:10:18.920Z</time>
      </trkpt>
      <trkpt lat="45.82169" lon="7.02016">
        <ele>2595.66299904</ele>
        <time>2015-10-10T11:10:38.920Z</time>
      </trkpt>
      <trkpt lat="45.82173" lon="7.02003">
        <ele>2599.92</ele>
        <time>2015-10-10T11:11:05.910Z</time>
      </trkpt>
      <trkpt lat="45.82178" lon="7.01991">
        <ele>2600.1744901225</ele>
        <time>2015-10-10T11:11:28.920Z</time>
      </trkpt>
      <trkpt lat="45.82176" lon="7.01976">
        <ele>2601</ele>
        <time>2015-10-10T11:11:54.910Z</time>
      </trkpt>
      <trkpt lat="45.82173" lon="7.01964">
        <ele>2607</ele>
        <time>2015-10-10T11:12:09.910Z</time>
      </trkpt>
      <trkpt lat="45.82181" lon="7.01957">
        <ele>2605</ele>
        <time>2015-10-10T11:13:08.910Z</time>
      </trkpt>
      <trkpt lat="45.82189" lon="7.01951">
        <ele>2605</ele>
        <time>2015-10-10T11:13:23.910Z</time>
      </trkpt>
      <trkpt lat="45.82199" lon="7.01952">
        <ele>2605</ele>
        <time>2015-10-10T11:13:31.910Z</time>
      </trkpt>
      <trkpt lat="45.82208" lon="7.01949">
        <ele>2603.3950016</ele>
        <time>2015-10-10T11:13:39.920Z</time>
      </trkpt>
      <trkpt lat="45.82218" lon="7.01954">
        <ele>2600.8950016</ele>
        <time>2015-10-10T11:13:44.920Z</time>
      </trkpt>
      <trkpt lat="45.82228" lon="7.0196">
        <ele>2599.78</ele>
        <time>2015-10-10T11:13:48.910Z</time>
      </trkpt>
      <trkpt lat="45.82238" lon="7.01963">
        <ele>2599.28</ele>
        <time>2015-10-10T11:13:53.910Z</time>
      </trkpt>
      <trkpt lat="45.82246" lon="7.01968">
        <ele>2597.32</ele>
        <time>2015-10-10T11:14:00.910Z</time>
      </trkpt>
      <trkpt lat="45.82253" lon="7.01959">
        <ele>2592.9</ele>
        <time>2015-10-10T11:14:20.910Z</time>
      </trkpt>
      <trkpt lat="45.8226" lon="7.0195">
        <ele>2587.0262381423</ele>
        <time>2015-10-10T11:14:36.910Z</time>
      </trkpt>
      <trkpt lat="45.82268" lon="7.01944">
        <ele>2583.7373852153</ele>
        <time>2015-10-10T11:14:44.920Z</time>
      </trkpt>
      <trkpt lat="45.82278" lon="7.01939">
        <ele>2582.58</ele>
        <time>2015-10-10T11:14:50.910Z</time>
      </trkpt>
      <trkpt lat="45.82288" lon="7.01936">
        <ele>2582.17900032</ele>
        <time>2015-10-10T11:14:54.920Z</time>
      </trkpt>
      <trkpt lat="45.82297" lon="7.0193">
        <ele>2580.32</ele>
        <time>2015-10-10T11:15:00.910Z</time>
      </trkpt>
      <trkpt lat="45.82305" lon="7.01923">
        <ele>2577.9401197222</ele>
        <time>2015-10-10T11:15:06.910Z</time>
      </trkpt>
      <trkpt lat="45.82311" lon="7.01914">
        <ele>2575.5419155557</ele>
        <time>2015-10-10T11:15:14.920Z</time>
      </trkpt>
      <trkpt lat="45.82317" lon="7.01902">
        <ele>2572.35800064</ele>
        <time>2015-10-10T11:15:29.920Z</time>
      </trkpt>
      <trkpt lat="45.82328" lon="7.01898">
        <ele>2571.56</ele>
        <time>2015-10-10T11:15:33.910Z</time>
      </trkpt>
      <trkpt lat="45.82334" lon="7.01889">
        <ele>2571</ele>
        <time>2015-10-10T11:15:38.910Z</time>
      </trkpt>
      <trkpt lat="45.82334" lon="7.01876">
        <ele>2571</ele>
        <time>2015-10-10T11:15:52.910Z</time>
      </trkpt>
      <trkpt lat="45.82336" lon="7.01861">
        <ele>2571.96299904</ele>
        <time>2015-10-10T11:15:59.920Z</time>
      </trkpt>
      <trkpt lat="45.82342" lon="7.01848">
        <ele>2573.76</ele>
        <time>2015-10-10T11:16:05.910Z</time>
      </trkpt>
      <trkpt lat="45.82346" lon="7.01837">
        <ele>2574.52</ele>
        <time>2015-10-10T11:16:11.910Z</time>
      </trkpt>
      <trkpt lat="45.82353" lon="7.01828">
        <ele>2577.48</ele>
        <time>2015-10-10T11:16:22.910Z</time>
      </trkpt>
      <trkpt lat="45.8236" lon="7.01816">
        <ele>2585.04</ele>
        <time>2015-10-10T11:16:46.910Z</time>
      </trkpt>
      <trkpt lat="45.82362" lon="7.01803">
        <ele>2586.64199936</ele>
        <time>2015-10-10T11:16:54.920Z</time>
      </trkpt>
      <trkpt lat="45.82362" lon="7.01788">
        <ele>2587</ele>
        <time>2015-10-10T11:16:59.920Z</time>
      </trkpt>
      <trkpt lat="45.82363" lon="7.01775">
        <ele>2587</ele>
        <time>2015-10-10T11:17:04.920Z</time>
      </trkpt>
      <trkpt lat="45.82366" lon="7.0176">
        <ele>2587.42</ele>
        <time>2015-10-10T11:17:10.910Z</time>
      </trkpt>
      <trkpt lat="45.82371" lon="7.01747">
        <ele>2587.92</ele>
        <time>2015-10-10T11:17:15.910Z</time>
      </trkpt>
      <trkpt lat="45.82375" lon="7.01734">
        <ele>2588</ele>
        <time>2015-10-10T11:17:21.910Z</time>
      </trkpt>
      <trkpt lat="45.82378" lon="7.01721">
        <ele>2588</ele>
        <time>2015-10-10T11:17:25.910Z</time>
      </trkpt>
      <trkpt lat="45.82382" lon="7.01709">
        <ele>2588</ele>
        <time>2015-10-10T11:17:30.910Z</time>
      </trkpt>
      <trkpt lat="45.82384" lon="7.01693">
        <ele>2587.961127296</ele>
        <time>2015-10-10T11:17:36.910Z</time>
      </trkpt>
      <trkpt lat="45.82389" lon="7.01682">
        <ele>2586.9893096954</ele>
        <time>2015-10-10T11:17:41.910Z</time>
      </trkpt>
      <trkpt lat="45.82389" lon="7.01669">
        <ele>2586</ele>
        <time>2015-10-10T11:17:48.910Z</time>
      </trkpt>
      <trkpt lat="45.82396" lon="7.01658">
        <ele>2585.64</ele>
        <time>2015-10-10T11:17:57.910Z</time>
      </trkpt>
      <trkpt lat="45.82405" lon="7.01654">
        <ele>2584.14</ele>
        <time>2015-10-10T11:18:02.910Z</time>
      </trkpt>
      <trkpt lat="45.82409" lon="7.01642">
        <ele>2582.67900032</ele>
        <time>2015-10-10T11:18:09.920Z</time>
      </trkpt>
      <trkpt lat="45.82416" lon="7.01633">
        <ele>2582</ele>
        <time>2015-10-10T11:18:19.920Z</time>
      </trkpt>
      <trkpt lat="45.82424" lon="7.01627">
        <ele>2582</ele>
        <time>2015-10-10T11:18:29.920Z</time>
      </trkpt>
      <trkpt lat="45.82433" lon="7.01623">
        <ele>2582.52</ele>
        <time>2015-10-10T11:18:41.910Z</time>
      </trkpt>
      <trkpt lat="45.82443" lon="7.0162">
        <ele>2583</ele>
        <time>2015-10-10T11:18:48.910Z</time>
      </trkpt>
      <trkpt lat="45.82449" lon="7.0161">
        <ele>2583</ele>
        <time>2015-10-10T11:18:52.910Z</time>
      </trkpt>
      <trkpt lat="45.82455" lon="7.01597">
        <ele>2583</ele>
        <time>2015-10-10T11:18:57.910Z</time>
      </trkpt>
      <trkpt lat="45.82465" lon="7.01592">
        <ele>2583</ele>
        <time>2015-10-10T11:19:01.910Z</time>
      </trkpt>
      <trkpt lat="45.82469" lon="7.01579">
        <ele>2584.56</ele>
        <time>2015-10-10T11:19:11.910Z</time>
      </trkpt>
      <trkpt lat="45.82472" lon="7.01566">
        <ele>2585.46299904</ele>
        <time>2015-10-10T11:19:14.920Z</time>
      </trkpt>
      <trkpt lat="45.82476" lon="7.01553">
        <ele>2585.78</ele>
        <time>2015-10-10T11:19:18.910Z</time>
      </trkpt>
      <trkpt lat="45.8248" lon="7.0154">
        <ele>2585.38</ele>
        <time>2015-10-10T11:19:22.910Z</time>
      </trkpt>
      <trkpt lat="45.82482" lon="7.01524">
        <ele>2584.12</ele>
        <time>2015-10-10T11:19:28.910Z</time>
      </trkpt>
      <trkpt lat="45.82483" lon="7.01511">
        <ele>2581.71600128</ele>
        <time>2015-10-10T11:19:34.920Z</time>
      </trkpt>
      <trkpt lat="45.82482" lon="7.01498">
        <ele>2581</ele>
        <time>2015-10-10T11:19:39.920Z</time>
      </trkpt>
      <trkpt lat="45.82481" lon="7.01482">
        <ele>2581</ele>
        <time>2015-10-10T11:19:44.920Z</time>
      </trkpt>
      <trkpt lat="45.82481" lon="7.01469">
        <ele>2581.64199936</ele>
        <time>2015-10-10T11:19:49.920Z</time>
      </trkpt>
      <trkpt lat="45.82483" lon="7.01454">
        <ele>2582.64199936</ele>
        <time>2015-10-10T11:19:54.920Z</time>
      </trkpt>
      <trkpt lat="45.82488" lon="7.0144">
        <ele>2583</ele>
        <time>2015-10-10T11:19:59.920Z</time>
      </trkpt>
      <trkpt lat="45.82485" lon="7.01427">
        <ele>2583</ele>
        <time>2015-10-10T11:20:04.920Z</time>
      </trkpt>
      <trkpt lat="45.82478" lon="7.01418">
        <ele>2579.71600128</ele>
        <time>2015-10-10T11:20:14.920Z</time>
      </trkpt>
      <trkpt lat="45.82472" lon="7.01409">
        <ele>2580.8217833326</ele>
        <time>2015-10-10T11:20:25.910Z</time>
      </trkpt>
      <trkpt lat="45.82469" lon="7.01396">
        <ele>2584.5858595</ele>
        <time>2015-10-10T11:20:33.910Z</time>
      </trkpt>
      <trkpt lat="45.82471" lon="7.01383">
        <ele>2586</ele>
        <time>2015-10-10T11:20:37.910Z</time>
      </trkpt>
      <trkpt lat="45.8247" lon="7.01367">
        <ele>2586</ele>
        <time>2015-10-10T11:20:41.910Z</time>
      </trkpt>
      <trkpt lat="45.82471" lon="7.01353">
        <ele>2586.019436352</ele>
        <time>2015-10-10T11:20:46.910Z</time>
      </trkpt>
      <trkpt lat="45.82471" lon="7.01338">
        <ele>2586.5053451523</ele>
        <time>2015-10-10T11:20:51.910Z</time>
      </trkpt>
      <trkpt lat="45.82472" lon="7.01324">
        <ele>2586.9912539526</ele>
        <time>2015-10-10T11:20:56.910Z</time>
      </trkpt>
      <trkpt lat="45.82473" lon="7.01311">
        <ele>2587.4026778488</ele>
        <time>2015-10-10T11:21:00.910Z</time>
      </trkpt>
      <trkpt lat="45.8247" lon="7.01297">
        <ele>2587.9176107378</ele>
        <time>2015-10-10T11:21:05.910Z</time>
      </trkpt>
      <trkpt lat="45.82465" lon="7.01285">
        <ele>2588</ele>
        <time>2015-10-10T11:21:11.910Z</time>
      </trkpt>
      <trkpt lat="45.82461" lon="7.01271">
        <ele>2587.9</ele>
        <time>2015-10-10T11:21:16.910Z</time>
      </trkpt>
      <trkpt lat="45.82458" lon="7.01259">
        <ele>2585.4</ele>
        <time>2015-10-10T11:21:21.910Z</time>
      </trkpt>
      <trkpt lat="45.82458" lon="7.01244">
        <ele>2582.560877963</ele>
        <time>2015-10-10T11:21:28.910Z</time>
      </trkpt>
      <trkpt lat="45.82457" lon="7.01231">
        <ele>2581.5628733336</ele>
        <time>2015-10-10T11:21:33.910Z</time>
      </trkpt>
      <trkpt lat="45.82453" lon="7.01218">
        <ele>2579.3206410769</ele>
        <time>2015-10-10T11:21:40.920Z</time>
      </trkpt>
      <trkpt lat="45.82449" lon="7.01205">
        <ele>2575.91100288</ele>
        <time>2015-10-10T11:21:47.920Z</time>
      </trkpt>
      <trkpt lat="45.82445" lon="7.01193">
        <ele>2570.51100288</ele>
        <time>2015-10-10T11:21:53.920Z</time>
      </trkpt>
      <trkpt lat="45.82444" lon="7.0118">
        <ele>2566.07400192</ele>
        <time>2015-10-10T11:21:59.920Z</time>
      </trkpt>
      <trkpt lat="45.82441" lon="7.01168">
        <ele>2561.8572836395</ele>
        <time>2015-10-10T11:22:06.920Z</time>
      </trkpt>
      <trkpt lat="45.82435" lon="7.01157">
        <ele>2555.7407749846</ele>
        <time>2015-10-10T11:22:15.920Z</time>
      </trkpt>
      <trkpt lat="45.82426" lon="7.0116">
        <ele>2545.7391770793</ele>
        <time>2015-10-10T11:22:23.920Z</time>
      </trkpt>
      <trkpt lat="45.82426" lon="7.01146">
        <ele>2537.07400192</ele>
        <time>2015-10-10T11:22:34.920Z</time>
      </trkpt>
      <trkpt lat="45.82423" lon="7.01132">
        <ele>2528.11600128</ele>
        <time>2015-10-10T11:22:53.920Z</time>
      </trkpt>
      <trkpt lat="45.82423" lon="7.01118">
        <ele>2519.5817446755</ele>
        <time>2015-10-10T11:23:10.910Z</time>
      </trkpt>
      <trkpt lat="45.82428" lon="7.01105">
        <ele>2519</ele>
        <time>2015-10-10T11:23:16.910Z</time>
      </trkpt>
      <trkpt lat="45.82431" lon="7.01092">
        <ele>2519</ele>
        <time>2015-10-10T11:23:21.910Z</time>
      </trkpt>
      <trkpt lat="45.82434" lon="7.01079">
        <ele>2518.28</ele>
        <time>2015-10-10T11:23:27.910Z</time>
      </trkpt>
      <trkpt lat="45.8244" lon="7.01066">
        <ele>2515.28</ele>
        <time>2015-10-10T11:23:32.910Z</time>
      </trkpt>
      <trkpt lat="45.82435" lon="7.01054">
        <ele>2507.94600448</ele>
        <time>2015-10-10T11:23:43.930Z</time>
      </trkpt>
      <trkpt lat="45.82432" lon="7.01041">
        <ele>2504.92</ele>
        <time>2015-10-10T11:23:47.910Z</time>
      </trkpt>
      <trkpt lat="45.82427" lon="7.01029">
        <ele>2496.5335275517</ele>
        <time>2015-10-10T11:23:57.910Z</time>
      </trkpt>
      <trkpt lat="45.82424" lon="7.01014">
        <ele>2493.8124382701</ele>
        <time>2015-10-10T11:24:04.910Z</time>
      </trkpt>
      <trkpt lat="45.82423" lon="7.00999">
        <ele>2492.610711395</ele>
        <time>2015-10-10T11:24:08.890Z</time>
      </trkpt>
      <trkpt lat="45.82418" lon="7.00989">
        <ele>2490.48</ele>
        <time>2015-10-10T11:24:21.910Z</time>
      </trkpt>
      <trkpt lat="45.82415" lon="7.00974">
        <ele>2490</ele>
        <time>2015-10-10T11:24:27.910Z</time>
      </trkpt>
      <trkpt lat="45.82409" lon="7.00961">
        <ele>2490</ele>
        <time>2015-10-10T11:24:33.920Z</time>
      </trkpt>
      <trkpt lat="45.82405" lon="7.00947">
        <ele>2490.0190193333</ele>
        <time>2015-10-10T11:24:46.910Z</time>
      </trkpt>
      <trkpt lat="45.82407" lon="7.00932">
        <ele>2490.6196197415</ele>
        <time>2015-10-10T11:24:52.910Z</time>
      </trkpt>
      <trkpt lat="45.82406" lon="7.00918">
        <ele>2490.88</ele>
        <time>2015-10-10T11:24:57.910Z</time>
      </trkpt>
      <trkpt lat="45.824" lon="7.00906">
        <ele>2490.18</ele>
        <time>2015-10-10T11:25:04.910Z</time>
      </trkpt>
      <trkpt lat="45.82393" lon="7.00897">
        <ele>2484.1658393912</ele>
        <time>2015-10-10T11:25:17.910Z</time>
      </trkpt>
      <trkpt lat="45.82399" lon="7.00887">
        <ele>2481.3853040285</ele>
        <time>2015-10-10T11:25:21.910Z</time>
      </trkpt>
      <trkpt lat="45.82406" lon="7.00875">
        <ele>2478.6047686658</ele>
        <time>2015-10-10T11:25:25.910Z</time>
      </trkpt>
      <trkpt lat="45.82407" lon="7.00862">
        <ele>2475.4169192079</ele>
        <time>2015-10-10T11:25:31.910Z</time>
      </trkpt>
      <trkpt lat="45.824" lon="7.00851">
        <ele>2472.77900032</ele>
        <time>2015-10-10T11:25:38.920Z</time>
      </trkpt>
      <trkpt lat="45.82393" lon="7.00842">
        <ele>2472.48</ele>
        <time>2015-10-10T11:25:47.910Z</time>
      </trkpt>
      <trkpt lat="45.82388" lon="7.00831">
        <ele>2475.28</ele>
        <time>2015-10-10T11:25:54.910Z</time>
      </trkpt>
      <trkpt lat="45.82387" lon="7.00816">
        <ele>2477.6</ele>
        <time>2015-10-10T11:25:59.910Z</time>
      </trkpt>
      <trkpt lat="45.8238" lon="7.00805">
        <ele>2481</ele>
        <time>2015-10-10T11:26:13.920Z</time>
      </trkpt>
      <trkpt lat="45.82382" lon="7.0079">
        <ele>2481</ele>
        <time>2015-10-10T11:26:21.910Z</time>
      </trkpt>
      <trkpt lat="45.8238" lon="7.00776">
        <ele>2481</ele>
        <time>2015-10-10T11:26:27.910Z</time>
      </trkpt>
      <trkpt lat="45.82377" lon="7.00762">
        <ele>2481</ele>
        <time>2015-10-10T11:26:36.910Z</time>
      </trkpt>
      <trkpt lat="45.82372" lon="7.00751">
        <ele>2480.2873328816</ele>
        <time>2015-10-10T11:26:43.920Z</time>
      </trkpt>
      <trkpt lat="45.82367" lon="7.00739">
        <ele>2479.36</ele>
        <time>2015-10-10T11:26:49.910Z</time>
      </trkpt>
      <trkpt lat="45.82362" lon="7.00729">
        <ele>2477.7852286213</ele>
        <time>2015-10-10T11:26:58.920Z</time>
      </trkpt>
      <trkpt lat="45.82357" lon="7.00715">
        <ele>2477.1059278075</ele>
        <time>2015-10-10T11:27:05.910Z</time>
      </trkpt>
      <trkpt lat="45.82353" lon="7.00701">
        <ele>2475.616</ele>
        <time>2015-10-10T11:27:13.920Z</time>
      </trkpt>
      <trkpt lat="45.82354" lon="7.00686">
        <ele>2474.9062818846</ele>
        <time>2015-10-10T11:27:17.910Z</time>
      </trkpt>
      <trkpt lat="45.82354" lon="7.00673">
        <ele>2474.4943355734</ele>
        <time>2015-10-10T11:27:21.910Z</time>
      </trkpt>
      <trkpt lat="45.82354" lon="7.00659">
        <ele>2474.0823892622</ele>
        <time>2015-10-10T11:27:25.910Z</time>
      </trkpt>
      <trkpt lat="45.8235" lon="7.00647">
        <ele>2471.341038823</ele>
        <time>2015-10-10T11:27:35.910Z</time>
      </trkpt>
      <trkpt lat="45.82345" lon="7.00634">
        <ele>2469.1850303966</ele>
        <time>2015-10-10T11:27:42.910Z</time>
      </trkpt>
      <trkpt lat="45.82336" lon="7.00625">
        <ele>2464.8862255561</ele>
        <time>2015-10-10T11:27:51.910Z</time>
      </trkpt>
      <trkpt lat="45.82331" lon="7.00612">
        <ele>2461.9458898944</ele>
        <time>2015-10-10T11:27:56.910Z</time>
      </trkpt>
      <trkpt lat="45.8233" lon="7.00596">
        <ele>2460.7434858559</ele>
        <time>2015-10-10T11:28:00.910Z</time>
      </trkpt>
      <trkpt lat="45.82326" lon="7.00583">
        <ele>2458.96</ele>
        <time>2015-10-10T11:28:06.910Z</time>
      </trkpt>
      <trkpt lat="45.82319" lon="7.00573">
        <ele>2455.44</ele>
        <time>2015-10-10T11:28:21.910Z</time>
      </trkpt>
      <trkpt lat="45.82313" lon="7.00562">
        <ele>2453.36</ele>
        <time>2015-10-10T11:28:29.910Z</time>
      </trkpt>
      <trkpt lat="45.82312" lon="7.00549">
        <ele>2452.55800064</ele>
        <time>2015-10-10T11:28:33.920Z</time>
      </trkpt>
      <trkpt lat="45.82309" lon="7.00536">
        <ele>2451.52</ele>
        <time>2015-10-10T11:28:37.910Z</time>
      </trkpt>
      <trkpt lat="45.82307" lon="7.00522">
        <ele>2449.92</ele>
        <time>2015-10-10T11:28:41.910Z</time>
      </trkpt>
      <trkpt lat="45.82304" lon="7.00509">
        <ele>2448.32</ele>
        <time>2015-10-10T11:28:45.910Z</time>
      </trkpt>
      <trkpt lat="45.82298" lon="7.00498">
        <ele>2448</ele>
        <time>2015-10-10T11:28:49.910Z</time>
      </trkpt>
      <trkpt lat="45.82298" lon="7.00485">
        <ele>2415.6824925966</ele>
        <time>2015-10-10T11:30:59.920Z</time>
      </trkpt>
      <trkpt lat="45.82295" lon="7.00473">
        <ele>2415.0900090271</ele>
        <time>2015-10-10T11:31:05.910Z</time>
      </trkpt>
      <trkpt lat="45.82291" lon="7.0046">
        <ele>2417.5733087256</ele>
        <time>2015-10-10T11:31:11.910Z</time>
      </trkpt>
      <trkpt lat="45.82285" lon="7.00448">
        <ele>2424.9920910672</ele>
        <time>2015-10-10T11:31:20.920Z</time>
      </trkpt>
      <trkpt lat="45.82281" lon="7.00436">
        <ele>2430.9090909091</ele>
        <time>2015-10-10T11:31:25.910Z</time>
      </trkpt>
      <trkpt lat="45.82278" lon="7.00422">
        <ele>2383.3046814575</ele>
        <time>2015-10-10T11:31:32.920Z</time>
      </trkpt>
      <trkpt lat="45.82275" lon="7.0041">
        <ele>2337</ele>
        <time>2015-10-10T11:31:39.910Z</time>
      </trkpt>
      <trkpt lat="45.82273" lon="7.00394">
        <ele>2303.22</ele>
        <time>2015-10-10T11:31:48.910Z</time>
      </trkpt>
      <trkpt lat="45.82272" lon="7.00381">
        <ele>2303.62099968</ele>
        <time>2015-10-10T11:31:52.920Z</time>
      </trkpt>
      <trkpt lat="45.82265" lon="7.00365">
        <ele>2304</ele>
        <time>2015-10-10T11:32:05.910Z</time>
      </trkpt>
      <trkpt lat="45.82261" lon="7.00351">
        <ele>2304</ele>
        <time>2015-10-10T11:32:09.920Z</time>
      </trkpt>
      <trkpt lat="45.82253" lon="7.00343">
        <ele>2304</ele>
        <time>2015-10-10T11:32:15.920Z</time>
      </trkpt>
      <trkpt lat="45.82247" lon="7.00333">
        <ele>2304</ele>
        <time>2015-10-10T11:32:21.920Z</time>
      </trkpt>
      <trkpt lat="45.82242" lon="7.0032">
        <ele>2304</ele>
        <time>2015-10-10T11:32:28.920Z</time>
      </trkpt>
      <trkpt lat="45.8224" lon="7.00307">
        <ele>2304</ele>
        <time>2015-10-10T11:32:35.920Z</time>
      </trkpt>
      <trkpt lat="45.82236" lon="7.00294">
        <ele>2305.24199936</ele>
        <time>2015-10-10T11:32:42.920Z</time>
      </trkpt>
      <trkpt lat="45.82229" lon="7.00287">
        <ele>2306</ele>
        <time>2015-10-10T11:32:48.920Z</time>
      </trkpt>
      <trkpt lat="45.8222" lon="7.00278">
        <ele>2306</ele>
        <time>2015-10-10T11:32:55.920Z</time>
      </trkpt>
      <trkpt lat="45.82213" lon="7.00268">
        <ele>2306</ele>
        <time>2015-10-10T11:33:02.920Z</time>
      </trkpt>
      <trkpt lat="45.82208" lon="7.00258">
        <ele>2306.22099968</ele>
        <time>2015-10-10T11:33:08.920Z</time>
      </trkpt>
      <trkpt lat="45.82203" lon="7.00247">
        <ele>2307.02</ele>
        <time>2015-10-10T11:33:16.910Z</time>
      </trkpt>
      <trkpt lat="45.82197" lon="7.00234">
        <ele>2307.82</ele>
        <time>2015-10-10T11:33:24.910Z</time>
      </trkpt>
      <trkpt lat="45.82191" lon="7.00225">
        <ele>2308.6019421216</ele>
        <time>2015-10-10T11:33:32.910Z</time>
      </trkpt>
      <trkpt lat="45.82185" lon="7.00213">
        <ele>2309</ele>
        <time>2015-10-10T11:33:40.910Z</time>
      </trkpt>
      <trkpt lat="45.8218" lon="7.00202">
        <ele>2309.22099968</ele>
        <time>2015-10-10T11:33:48.920Z</time>
      </trkpt>
      <trkpt lat="45.82174" lon="7.00191">
        <ele>2309.72099968</ele>
        <time>2015-10-10T11:33:53.920Z</time>
      </trkpt>
      <trkpt lat="45.82171" lon="7.00178">
        <ele>2310.6019421216</ele>
        <time>2015-10-10T11:34:02.910Z</time>
      </trkpt>
      <trkpt lat="45.82166" lon="7.00167">
        <ele>2311.1836747755</ele>
        <time>2015-10-10T11:34:07.910Z</time>
      </trkpt>
      <trkpt lat="45.82159" lon="7.00158">
        <ele>2312.8163278367</ele>
        <time>2015-10-10T11:34:15.910Z</time>
      </trkpt>
      <trkpt lat="45.82153" lon="7.00146">
        <ele>2313.8181819357</ele>
        <time>2015-10-10T11:34:24.910Z</time>
      </trkpt>
      <trkpt lat="45.8215" lon="7.00133">
        <ele>2314</ele>
        <time>2015-10-10T11:34:34.910Z</time>
      </trkpt>
      <trkpt lat="45.82145" lon="7.00122">
        <ele>2314.52</ele>
        <time>2015-10-10T11:34:41.910Z</time>
      </trkpt>
      <trkpt lat="45.82141" lon="7.0011">
        <ele>2315</ele>
        <time>2015-10-10T11:34:47.910Z</time>
      </trkpt>
      <trkpt lat="45.8214" lon="7.00097">
        <ele>2315</ele>
        <time>2015-10-10T11:34:52.910Z</time>
      </trkpt>
      <trkpt lat="45.82134" lon="7.00086">
        <ele>2315</ele>
        <time>2015-10-10T11:35:03.920Z</time>
      </trkpt>
      <trkpt lat="45.8213" lon="7.00073">
        <ele>2315</ele>
        <time>2015-10-10T11:35:11.910Z</time>
      </trkpt>
      <trkpt lat="45.82127" lon="7.00061">
        <ele>2314.58</ele>
        <time>2015-10-10T11:35:20.910Z</time>
      </trkpt>
      <trkpt lat="45.82119" lon="7.0005">
        <ele>2314</ele>
        <time>2015-10-10T11:35:30.910Z</time>
      </trkpt>
      <trkpt lat="45.82112" lon="7.00038">
        <ele>2314.2199002491</ele>
        <time>2015-10-10T11:35:38.920Z</time>
      </trkpt>
      <trkpt lat="45.82105" lon="7.00027">
        <ele>2314.915423177</ele>
        <time>2015-10-10T11:35:45.910Z</time>
      </trkpt>
      <trkpt lat="45.82097" lon="7.00019">
        <ele>2315</ele>
        <time>2015-10-10T11:35:50.910Z</time>
      </trkpt>
      <trkpt lat="45.82091" lon="7.00008">
        <ele>2315</ele>
        <time>2015-10-10T11:36:01.910Z</time>
      </trkpt>
      <trkpt lat="45.82088" lon="6.99996">
        <ele>2315.02099968</ele>
        <time>2015-10-10T11:36:06.920Z</time>
      </trkpt>
      <trkpt lat="45.82085" lon="6.99981">
        <ele>2315.98</ele>
        <time>2015-10-10T11:36:16.910Z</time>
      </trkpt>
      <trkpt lat="45.82079" lon="6.99971">
        <ele>2315.17900032</ele>
        <time>2015-10-10T11:36:24.920Z</time>
      </trkpt>
      <trkpt lat="45.82076" lon="6.99957">
        <ele>2315</ele>
        <time>2015-10-10T11:36:30.910Z</time>
      </trkpt>
      <trkpt lat="45.82076" lon="6.99942">
        <ele>2315</ele>
        <time>2015-10-10T11:36:34.920Z</time>
      </trkpt>
      <trkpt lat="45.82073" lon="6.99929">
        <ele>2315.5053451523</ele>
        <time>2015-10-10T11:36:41.910Z</time>
      </trkpt>
      <trkpt lat="45.82068" lon="6.99916">
        <ele>2315.8032953068</ele>
        <time>2015-10-10T11:36:48.910Z</time>
      </trkpt>
      <trkpt lat="45.82062" lon="6.99904">
        <ele>2314.78</ele>
        <time>2015-10-10T11:36:58.910Z</time>
      </trkpt>
      <trkpt lat="45.82061" lon="6.99891">
        <ele>2314.28</ele>
        <time>2015-10-10T11:37:03.910Z</time>
      </trkpt>
      <trkpt lat="45.82058" lon="6.99878">
        <ele>2313.0670551035</ele>
        <time>2015-10-10T11:37:09.910Z</time>
      </trkpt>
      <trkpt lat="45.82056" lon="6.99862">
        <ele>2311.3177834224</ele>
        <time>2015-10-10T11:37:15.910Z</time>
      </trkpt>
      <trkpt lat="45.82059" lon="6.99848">
        <ele>2311.4022637037</ele>
        <time>2015-10-10T11:37:20.910Z</time>
      </trkpt>
      <trkpt lat="45.82054" lon="6.99836">
        <ele>2311.7807805307</ele>
        <time>2015-10-10T11:37:28.910Z</time>
      </trkpt>
      <trkpt lat="45.82049" lon="6.99824">
        <ele>2310.87900032</ele>
        <time>2015-10-10T11:37:37.920Z</time>
      </trkpt>
      <trkpt lat="45.82047" lon="6.99811">
        <ele>2310.48</ele>
        <time>2015-10-10T11:37:41.910Z</time>
      </trkpt>
      <trkpt lat="45.82043" lon="6.99798">
        <ele>2309.68</ele>
        <time>2015-10-10T11:37:49.910Z</time>
      </trkpt>
      <trkpt lat="45.82045" lon="6.99783">
        <ele>2308.56</ele>
        <time>2015-10-10T11:37:58.910Z</time>
      </trkpt>
      <trkpt lat="45.82042" lon="6.9977">
        <ele>2307.36</ele>
        <time>2015-10-10T11:38:04.910Z</time>
      </trkpt>
      <trkpt lat="45.82039" lon="6.99754">
        <ele>2307</ele>
        <time>2015-10-10T11:38:09.910Z</time>
      </trkpt>
      <trkpt lat="45.82032" lon="6.99742">
        <ele>2309.18</ele>
        <time>2015-10-10T11:38:44.910Z</time>
      </trkpt>
      <trkpt lat="45.82028" lon="6.99731">
        <ele>2309</ele>
        <time>2015-10-10T11:38:48.910Z</time>
      </trkpt>
      <trkpt lat="45.82025" lon="6.99716">
        <ele>2309</ele>
        <time>2015-10-10T11:38:55.910Z</time>
      </trkpt>
      <trkpt lat="45.82029" lon="6.99701">
        <ele>2309</ele>
        <time>2015-10-10T11:38:59.910Z</time>
      </trkpt>
      <trkpt lat="45.82023" lon="6.99689">
        <ele>2309.42</ele>
        <time>2015-10-10T11:39:10.910Z</time>
      </trkpt>
      <trkpt lat="45.82021" lon="6.99676">
        <ele>2309.82</ele>
        <time>2015-10-10T11:39:14.910Z</time>
      </trkpt>
      <trkpt lat="45.82014" lon="6.99664">
        <ele>2310</ele>
        <time>2015-10-10T11:39:24.910Z</time>
      </trkpt>
      <trkpt lat="45.8201" lon="6.99653">
        <ele>2310.62099968</ele>
        <time>2015-10-10T11:39:32.920Z</time>
      </trkpt>
      <trkpt lat="45.82005" lon="6.99639">
        <ele>2311</ele>
        <time>2015-10-10T11:39:42.930Z</time>
      </trkpt>
      <trkpt lat="45.82005" lon="6.99624">
        <ele>2310.8824103813</ele>
        <time>2015-10-10T11:39:47.920Z</time>
      </trkpt>
      <trkpt lat="45.81999" lon="6.99611">
        <ele>2310</ele>
        <time>2015-10-10T11:39:57.920Z</time>
      </trkpt>
      <trkpt lat="45.82002" lon="6.99598">
        <ele>2310</ele>
        <time>2015-10-10T11:40:01.910Z</time>
      </trkpt>
      <trkpt lat="45.81997" lon="6.99586">
        <ele>2310</ele>
        <time>2015-10-10T11:40:10.910Z</time>
      </trkpt>
      <trkpt lat="45.81992" lon="6.99571">
        <ele>2310</ele>
        <time>2015-10-10T11:40:15.910Z</time>
      </trkpt>
      <trkpt lat="45.81989" lon="6.99558">
        <ele>2310</ele>
        <time>2015-10-10T11:40:19.910Z</time>
      </trkpt>
      <trkpt lat="45.81982" lon="6.99547">
        <ele>2309.58</ele>
        <time>2015-10-10T11:40:30.910Z</time>
      </trkpt>
      <trkpt lat="45.81976" lon="6.99535">
        <ele>2308.94</ele>
        <time>2015-10-10T11:40:36.910Z</time>
      </trkpt>
      <trkpt lat="45.8197" lon="6.99526">
        <ele>2307.44</ele>
        <time>2015-10-10T11:40:41.910Z</time>
      </trkpt>
      <trkpt lat="45.81964" lon="6.99515">
        <ele>2306.62099968</ele>
        <time>2015-10-10T11:40:52.920Z</time>
      </trkpt>
      <trkpt lat="45.81961" lon="6.99502">
        <ele>2306.5725104958</ele>
        <time>2015-10-10T11:40:59.910Z</time>
      </trkpt>
      <trkpt lat="45.81957" lon="6.99491">
        <ele>2304.6809586607</ele>
        <time>2015-10-10T11:41:04.910Z</time>
      </trkpt>
      <trkpt lat="45.81952" lon="6.99477">
        <ele>2304.32</ele>
        <time>2015-10-10T11:41:09.910Z</time>
      </trkpt>
      <trkpt lat="45.81947" lon="6.99466">
        <ele>2304.72</ele>
        <time>2015-10-10T11:41:13.910Z</time>
      </trkpt>
      <trkpt lat="45.81943" lon="6.99453">
        <ele>2304.7804389815</ele>
        <time>2015-10-10T11:41:18.910Z</time>
      </trkpt>
      <trkpt lat="45.81937" lon="6.9944">
        <ele>2304.2814366668</ele>
        <time>2015-10-10T11:41:23.910Z</time>
      </trkpt>
      <trkpt lat="45.81931" lon="6.9943">
        <ele>2303.8807612789</ele>
        <time>2015-10-10T11:41:27.920Z</time>
      </trkpt>
      <trkpt lat="45.81922" lon="6.99426">
        <ele>2302.9805825122</ele>
        <time>2015-10-10T11:41:36.910Z</time>
      </trkpt>
      <trkpt lat="45.81915" lon="6.99414">
        <ele>2302.1067955615</ele>
        <time>2015-10-10T11:41:45.910Z</time>
      </trkpt>
      <trkpt lat="45.81908" lon="6.99405">
        <ele>2301.5979377498</ele>
        <time>2015-10-10T11:41:50.910Z</time>
      </trkpt>
      <trkpt lat="45.81901" lon="6.99396">
        <ele>2301</ele>
        <time>2015-10-10T11:41:59.910Z</time>
      </trkpt>
      <trkpt lat="45.81896" lon="6.99383">
        <ele>2301</ele>
        <time>2015-10-10T11:42:05.910Z</time>
      </trkpt>
      <trkpt lat="45.8189" lon="6.99369">
        <ele>2301</ele>
        <time>2015-10-10T11:42:10.910Z</time>
      </trkpt>
      <trkpt lat="45.81885" lon="6.99356">
        <ele>2301</ele>
        <time>2015-10-10T11:42:15.910Z</time>
      </trkpt>
      <trkpt lat="45.81877" lon="6.99346">
        <ele>2299.34</ele>
        <time>2015-10-10T11:42:28.910Z</time>
      </trkpt>
      <trkpt lat="45.81871" lon="6.99336">
        <ele>2297.53700096</ele>
        <time>2015-10-10T11:42:34.920Z</time>
      </trkpt>
      <trkpt lat="45.81865" lon="6.99324">
        <ele>2297</ele>
        <time>2015-10-10T11:42:43.920Z</time>
      </trkpt>
      <trkpt lat="45.81859" lon="6.99312">
        <ele>2295.31600128</ele>
        <time>2015-10-10T11:42:50.920Z</time>
      </trkpt>
      <trkpt lat="45.81854" lon="6.99301">
        <ele>2292.9795921414</ele>
        <time>2015-10-10T11:42:56.920Z</time>
      </trkpt>
      <trkpt lat="45.81848" lon="6.99289">
        <ele>2292.299319821</ele>
        <time>2015-10-10T11:43:03.920Z</time>
      </trkpt>
      <trkpt lat="45.81842" lon="6.99278">
        <ele>2291.596292615</ele>
        <time>2015-10-10T11:43:10.920Z</time>
      </trkpt>
      <trkpt lat="45.81837" lon="6.99265">
        <ele>2291</ele>
        <time>2015-10-10T11:43:17.920Z</time>
      </trkpt>
      <trkpt lat="45.8183" lon="6.99254">
        <ele>2291</ele>
        <time>2015-10-10T11:43:24.920Z</time>
      </trkpt>
      <trkpt lat="45.81826" lon="6.99241">
        <ele>2288.91600128</ele>
        <time>2015-10-10T11:43:31.920Z</time>
      </trkpt>
      <trkpt lat="45.81825" lon="6.99228">
        <ele>2287</ele>
        <time>2015-10-10T11:43:38.930Z</time>
      </trkpt>
      <trkpt lat="45.81829" lon="6.99215">
        <ele>2287.3186377115</ele>
        <time>2015-10-10T11:43:49.910Z</time>
      </trkpt>
      <trkpt lat="45.81827" lon="6.99199">
        <ele>2287.9198397308</ele>
        <time>2015-10-10T11:43:55.910Z</time>
      </trkpt>
      <trkpt lat="45.81821" lon="6.99187">
        <ele>2287.16</ele>
        <time>2015-10-10T11:44:00.910Z</time>
      </trkpt>
      <trkpt lat="45.81812" lon="6.9918">
        <ele>2285.68</ele>
        <time>2015-10-10T11:44:09.910Z</time>
      </trkpt>
      <trkpt lat="45.81806" lon="6.99169">
        <ele>2284.58</ele>
        <time>2015-10-10T11:44:20.910Z</time>
      </trkpt>
      <trkpt lat="45.81802" lon="6.99154">
        <ele>2283.8834950732</ele>
        <time>2015-10-10T11:44:27.910Z</time>
      </trkpt>
      <trkpt lat="45.81798" lon="6.99142">
        <ele>2283.4951453174</ele>
        <time>2015-10-10T11:44:31.910Z</time>
      </trkpt>
      <trkpt lat="45.81795" lon="6.99128">
        <ele>2283.1067955615</ele>
        <time>2015-10-10T11:44:35.910Z</time>
      </trkpt>
      <trkpt lat="45.81791" lon="6.99114">
        <ele>2283</ele>
        <time>2015-10-10T11:44:39.910Z</time>
      </trkpt>
      <trkpt lat="45.81785" lon="6.99104">
        <ele>2283</ele>
        <time>2015-10-10T11:44:43.920Z</time>
      </trkpt>
      <trkpt lat="45.81778" lon="6.99097">
        <ele>2280.11600128</ele>
        <time>2015-10-10T11:44:53.920Z</time>
      </trkpt>
      <trkpt lat="45.81769" lon="6.99087">
        <ele>2278.8842815458</ele>
        <time>2015-10-10T11:45:17.910Z</time>
      </trkpt>
      <trkpt lat="45.81763" lon="6.99077">
        <ele>2278.1128251843</ele>
        <time>2015-10-10T11:45:25.910Z</time>
      </trkpt>
      <trkpt lat="45.81762" lon="6.99064">
        <ele>2275.9999973499</ele>
        <time>2015-10-10T11:45:31.910Z</time>
      </trkpt>
      <trkpt lat="45.81763" lon="6.9905">
        <ele>2274.0170520999</ele>
        <time>2015-10-10T11:45:36.910Z</time>
      </trkpt>
      <trkpt lat="45.81761" lon="6.99035">
        <ele>2274.88</ele>
        <time>2015-10-10T11:45:47.910Z</time>
      </trkpt>
      <trkpt lat="45.81761" lon="6.99021">
        <ele>2274.48</ele>
        <time>2015-10-10T11:45:51.910Z</time>
      </trkpt>
      <trkpt lat="45.81757" lon="6.99008">
        <ele>2273.3806191826</ele>
        <time>2015-10-10T11:46:02.910Z</time>
      </trkpt>
      <trkpt lat="45.81752" lon="6.98995">
        <ele>2271.486879063</ele>
        <time>2015-10-10T11:46:11.910Z</time>
      </trkpt>
      <trkpt lat="45.81751" lon="6.98981">
        <ele>2270</ele>
        <time>2015-10-10T11:46:17.910Z</time>
      </trkpt>
      <trkpt lat="45.81748" lon="6.98966">
        <ele>2270</ele>
        <time>2015-10-10T11:46:22.910Z</time>
      </trkpt>
      <trkpt lat="45.81744" lon="6.98954">
        <ele>2269.77900032</ele>
        <time>2015-10-10T11:46:28.920Z</time>
      </trkpt>
      <trkpt lat="45.81739" lon="6.9894">
        <ele>2268.98</ele>
        <time>2015-10-10T11:46:36.910Z</time>
      </trkpt>
      <trkpt lat="45.81733" lon="6.9893">
        <ele>2268.48</ele>
        <time>2015-10-10T11:46:41.910Z</time>
      </trkpt>
      <trkpt lat="45.81728" lon="6.98916">
        <ele>2268</ele>
        <time>2015-10-10T11:46:51.910Z</time>
      </trkpt>
      <trkpt lat="45.81727" lon="6.98901">
        <ele>2267.96</ele>
        <time>2015-10-10T11:46:56.910Z</time>
      </trkpt>
      <trkpt lat="45.81727" lon="6.98888">
        <ele>2267.16</ele>
        <time>2015-10-10T11:47:00.910Z</time>
      </trkpt>
      <trkpt lat="45.81722" lon="6.98875">
        <ele>2266</ele>
        <time>2015-10-10T11:47:13.920Z</time>
      </trkpt>
      <trkpt lat="45.81722" lon="6.98862">
        <ele>2265.68</ele>
        <time>2015-10-10T11:47:19.910Z</time>
      </trkpt>
      <trkpt lat="45.81721" lon="6.98849">
        <ele>2265.27900032</ele>
        <time>2015-10-10T11:47:23.920Z</time>
      </trkpt>
      <trkpt lat="45.81714" lon="6.98839">
        <ele>2262.54</ele>
        <time>2015-10-10T11:47:34.910Z</time>
      </trkpt>
      <trkpt lat="45.81707" lon="6.98831">
        <ele>2260.36</ele>
        <time>2015-10-10T11:47:44.910Z</time>
      </trkpt>
      <trkpt lat="45.81699" lon="6.98821">
        <ele>2260.64</ele>
        <time>2015-10-10T11:47:49.910Z</time>
      </trkpt>
      <trkpt lat="45.81689" lon="6.98817">
        <ele>2261.44199936</ele>
        <time>2015-10-10T11:47:53.920Z</time>
      </trkpt>
      <trkpt lat="45.81679" lon="6.98813">
        <ele>2261.27900032</ele>
        <time>2015-10-10T11:48:03.920Z</time>
      </trkpt>
      <trkpt lat="45.8167" lon="6.98806">
        <ele>2261.72099968</ele>
        <time>2015-10-10T11:48:13.920Z</time>
      </trkpt>
      <trkpt lat="45.81662" lon="6.98801">
        <ele>2262</ele>
        <time>2015-10-10T11:48:17.910Z</time>
      </trkpt>
      <trkpt lat="45.81652" lon="6.98798">
        <ele>2262</ele>
        <time>2015-10-10T11:48:25.910Z</time>
      </trkpt>
      <trkpt lat="45.81645" lon="6.98789">
        <ele>2262.2989695347</ele>
        <time>2015-10-10T11:48:29.910Z</time>
      </trkpt>
      <trkpt lat="45.81636" lon="6.98784">
        <ele>2262.58</ele>
        <time>2015-10-10T11:48:40.910Z</time>
      </trkpt>
      <trkpt lat="45.81629" lon="6.98776">
        <ele>2262.18</ele>
        <time>2015-10-10T11:48:44.910Z</time>
      </trkpt>
      <trkpt lat="45.81622" lon="6.98766">
        <ele>2262</ele>
        <time>2015-10-10T11:48:51.910Z</time>
      </trkpt>
      <trkpt lat="45.81617" lon="6.98753">
        <ele>2261.9805825122</ele>
        <time>2015-10-10T11:48:56.910Z</time>
      </trkpt>
      <trkpt lat="45.81612" lon="6.98743">
        <ele>2261.5922327563</ele>
        <time>2015-10-10T11:49:00.910Z</time>
      </trkpt>
      <trkpt lat="45.81603" lon="6.98736">
        <ele>2261.8041245004</ele>
        <time>2015-10-10T11:49:10.910Z</time>
      </trkpt>
      <trkpt lat="45.81598" lon="6.98725">
        <ele>2262.8350516552</ele>
        <time>2015-10-10T11:49:15.910Z</time>
      </trkpt>
      <trkpt lat="45.81592" lon="6.98713">
        <ele>2263</ele>
        <time>2015-10-10T11:49:22.910Z</time>
      </trkpt>
      <trkpt lat="45.81584" lon="6.98704">
        <ele>2263</ele>
        <time>2015-10-10T11:49:32.910Z</time>
      </trkpt>
      <trkpt lat="45.81578" lon="6.98692">
        <ele>2263</ele>
        <time>2015-10-10T11:49:40.910Z</time>
      </trkpt>
      <trkpt lat="45.81575" lon="6.98678">
        <ele>2263</ele>
        <time>2015-10-10T11:49:45.910Z</time>
      </trkpt>
      <trkpt lat="45.81568" lon="6.98667">
        <ele>2262.9604351751</ele>
        <time>2015-10-10T11:49:56.910Z</time>
      </trkpt>
      <trkpt lat="45.81564" lon="6.98654">
        <ele>2261.9713145524</ele>
        <time>2015-10-10T11:50:01.910Z</time>
      </trkpt>
      <trkpt lat="45.81559" lon="6.98643">
        <ele>2261.1800180542</ele>
        <time>2015-10-10T11:50:05.910Z</time>
      </trkpt>
      <trkpt lat="45.81552" lon="6.98632">
        <ele>2261</ele>
        <time>2015-10-10T11:50:15.910Z</time>
      </trkpt>
      <trkpt lat="45.81546" lon="6.98621">
        <ele>2261</ele>
        <time>2015-10-10T11:50:19.910Z</time>
      </trkpt>
      <trkpt lat="45.81538" lon="6.98612">
        <ele>2261</ele>
        <time>2015-10-10T11:50:30.910Z</time>
      </trkpt>
      <trkpt lat="45.81532" lon="6.98598">
        <ele>2261</ele>
        <time>2015-10-10T11:50:35.910Z</time>
      </trkpt>
      <trkpt lat="45.81524" lon="6.9859">
        <ele>2260.18</ele>
        <time>2015-10-10T11:50:44.910Z</time>
      </trkpt>
      <trkpt lat="45.81518" lon="6.98579">
        <ele>2259.68</ele>
        <time>2015-10-10T11:50:49.910Z</time>
      </trkpt>
      <trkpt lat="45.81511" lon="6.98569">
        <ele>2259.27800064</ele>
        <time>2015-10-10T11:50:53.930Z</time>
      </trkpt>
      <trkpt lat="45.81503" lon="6.98562">
        <ele>2259</ele>
        <time>2015-10-10T11:51:02.910Z</time>
      </trkpt>
      <trkpt lat="45.81496" lon="6.98554">
        <ele>2259</ele>
        <time>2015-10-10T11:51:07.910Z</time>
      </trkpt>
      <trkpt lat="45.81491" lon="6.98542">
        <ele>2258.98</ele>
        <time>2015-10-10T11:51:16.910Z</time>
      </trkpt>
      <trkpt lat="45.81484" lon="6.98531">
        <ele>2258.58</ele>
        <time>2015-10-10T11:51:20.910Z</time>
      </trkpt>
      <trkpt lat="45.81479" lon="6.98517">
        <ele>2258</ele>
        <time>2015-10-10T11:51:32.910Z</time>
      </trkpt>
      <trkpt lat="45.81473" lon="6.98505">
        <ele>2258</ele>
        <time>2015-10-10T11:51:36.910Z</time>
      </trkpt>
      <trkpt lat="45.81467" lon="6.98493">
        <ele>2257.88</ele>
        <time>2015-10-10T11:51:47.910Z</time>
      </trkpt>
      <trkpt lat="45.81464" lon="6.98477">
        <ele>2257.38</ele>
        <time>2015-10-10T11:51:52.910Z</time>
      </trkpt>
      <trkpt lat="45.81457" lon="6.98469">
        <ele>2255.74</ele>
        <time>2015-10-10T11:52:00.910Z</time>
      </trkpt>
      <trkpt lat="45.81448" lon="6.98464">
        <ele>2253.38</ele>
        <time>2015-10-10T11:52:12.910Z</time>
      </trkpt>
      <trkpt lat="45.81443" lon="6.98452">
        <ele>2252.88</ele>
        <time>2015-10-10T11:52:17.910Z</time>
      </trkpt>
      <trkpt lat="45.81437" lon="6.9844">
        <ele>2252.48</ele>
        <time>2015-10-10T11:52:21.910Z</time>
      </trkpt>
      <trkpt lat="45.81431" lon="6.98429">
        <ele>2252.08</ele>
        <time>2015-10-10T11:52:25.910Z</time>
      </trkpt>
      <trkpt lat="45.81425" lon="6.98416">
        <ele>2250.776698269</ele>
        <time>2015-10-10T11:52:30.910Z</time>
      </trkpt>
      <trkpt lat="45.8142" lon="6.98405">
        <ele>2249.0291243676</ele>
        <time>2015-10-10T11:52:36.910Z</time>
      </trkpt>
      <trkpt lat="45.81415" lon="6.9839">
        <ele>2247.484535103</ele>
        <time>2015-10-10T11:52:41.910Z</time>
      </trkpt>
      <trkpt lat="45.81409" lon="6.98378">
        <ele>2246.2474225172</ele>
        <time>2015-10-10T11:52:45.910Z</time>
      </trkpt>
      <trkpt lat="45.81401" lon="6.9837">
        <ele>2243.920792029</ele>
        <time>2015-10-10T11:52:56.910Z</time>
      </trkpt>
      <trkpt lat="45.81392" lon="6.98366">
        <ele>2240.3564333348</ele>
        <time>2015-10-10T11:53:05.910Z</time>
      </trkpt>
      <trkpt lat="45.81385" lon="6.98356">
        <ele>2238.9676767886</ele>
        <time>2015-10-10T11:53:11.920Z</time>
      </trkpt>
      <trkpt lat="45.81378" lon="6.98346">
        <ele>2237.55800064</ele>
        <time>2015-10-10T11:53:18.920Z</time>
      </trkpt>
      <trkpt lat="45.81371" lon="6.98339">
        <ele>2235.63700096</ele>
        <time>2015-10-10T11:53:27.920Z</time>
      </trkpt>
      <trkpt lat="45.81362" lon="6.98333">
        <ele>2233.83700096</ele>
        <time>2015-10-10T11:53:33.920Z</time>
      </trkpt>
      <trkpt lat="45.81353" lon="6.98329">
        <ele>2231.43700096</ele>
        <time>2015-10-10T11:53:41.920Z</time>
      </trkpt>
      <trkpt lat="45.81343" lon="6.98323">
        <ele>2229.3383238887</ele>
        <time>2015-10-10T11:53:48.920Z</time>
      </trkpt>
      <trkpt lat="45.81335" lon="6.98315">
        <ele>2227.5419155557</ele>
        <time>2015-10-10T11:53:54.920Z</time>
      </trkpt>
      <trkpt lat="45.81327" lon="6.9831">
        <ele>2225.3206410769</ele>
        <time>2015-10-10T11:54:00.920Z</time>
      </trkpt>
      <trkpt lat="45.81318" lon="6.98303">
        <ele>2222.51600128</ele>
        <time>2015-10-10T11:54:07.920Z</time>
      </trkpt>
      <trkpt lat="45.81312" lon="6.98294">
        <ele>2217.18</ele>
        <time>2015-10-10T11:54:44.910Z</time>
      </trkpt>
      <trkpt lat="45.81305" lon="6.98282">
        <ele>2215.31600128</ele>
        <time>2015-10-10T11:54:50.920Z</time>
      </trkpt>
      <trkpt lat="45.81298" lon="6.98271">
        <ele>2212.34</ele>
        <time>2015-10-10T11:54:58.910Z</time>
      </trkpt>
      <trkpt lat="45.81292" lon="6.98261">
        <ele>2210.23400192</ele>
        <time>2015-10-10T11:55:05.930Z</time>
      </trkpt>
      <trkpt lat="45.81287" lon="6.98246">
        <ele>2206.28</ele>
        <time>2015-10-10T11:55:12.910Z</time>
      </trkpt>
      <trkpt lat="45.81281" lon="6.98237">
        <ele>2201.92</ele>
        <time>2015-10-10T11:55:21.910Z</time>
      </trkpt>
      <trkpt lat="45.81273" lon="6.98229">
        <ele>2198.44</ele>
        <time>2015-10-10T11:55:31.910Z</time>
      </trkpt>
      <trkpt lat="45.81266" lon="6.98219">
        <ele>2196.3786403906</ele>
        <time>2015-10-10T11:55:39.910Z</time>
      </trkpt>
      <trkpt lat="45.81262" lon="6.98206">
        <ele>2195.0194162451</ele>
        <time>2015-10-10T11:55:46.910Z</time>
      </trkpt>
      <trkpt lat="45.81255" lon="6.98197">
        <ele>2191.4432980168</ele>
        <time>2015-10-10T11:55:53.910Z</time>
      </trkpt>
      <trkpt lat="45.81248" lon="6.98189">
        <ele>2186.4</ele>
        <time>2015-10-10T11:56:03.910Z</time>
      </trkpt>
      <trkpt lat="45.81241" lon="6.9818">
        <ele>2183.76</ele>
        <time>2015-10-10T11:56:12.910Z</time>
      </trkpt>
      <trkpt lat="45.81232" lon="6.98172">
        <ele>2180.4051879634</ele>
        <time>2015-10-10T11:56:21.910Z</time>
      </trkpt>
      <trkpt lat="45.81225" lon="6.98162">
        <ele>2176.7976641245</ele>
        <time>2015-10-10T11:56:32.910Z</time>
      </trkpt>
      <trkpt lat="45.8122" lon="6.98151">
        <ele>2174.1752569565</ele>
        <time>2015-10-10T11:56:42.910Z</time>
      </trkpt>
      <trkpt lat="45.81215" lon="6.9814">
        <ele>2170.54</ele>
        <time>2015-10-10T11:56:54.910Z</time>
      </trkpt>
      <trkpt lat="45.81213" lon="6.98127">
        <ele>2167.4</ele>
        <time>2015-10-10T11:57:01.910Z</time>
      </trkpt>
      <trkpt lat="45.81204" lon="6.9812">
        <ele>2162.54</ele>
        <time>2015-10-10T11:57:14.910Z</time>
      </trkpt>
      <trkpt lat="45.81199" lon="6.98108">
        <ele>2156.96</ele>
        <time>2015-10-10T11:57:23.910Z</time>
      </trkpt>
      <trkpt lat="45.81203" lon="6.98096">
        <ele>2154</ele>
        <time>2015-10-10T11:57:43.910Z</time>
      </trkpt>
      <trkpt lat="45.81193" lon="6.98094">
        <ele>2153.0541036928</ele>
        <time>2015-10-10T11:57:57.910Z</time>
      </trkpt>
      <trkpt lat="45.81186" lon="6.98086">
        <ele>2148.2444875386</ele>
        <time>2015-10-10T11:58:03.910Z</time>
      </trkpt>
      <trkpt lat="45.81176" lon="6.98093">
        <ele>2144.55800064</ele>
        <time>2015-10-10T11:58:13.920Z</time>
      </trkpt>
      <trkpt lat="45.81169" lon="6.98102">
        <ele>2142.32</ele>
        <time>2015-10-10T11:58:20.910Z</time>
      </trkpt>
      <trkpt lat="45.81161" lon="6.9811">
        <ele>2136.12</ele>
        <time>2015-10-10T11:58:38.910Z</time>
      </trkpt>
      <trkpt lat="45.81152" lon="6.98106">
        <ele>2132.9223300488</ele>
        <time>2015-10-10T11:58:46.910Z</time>
      </trkpt>
      <trkpt lat="45.81147" lon="6.98093">
        <ele>2128.2164927231</ele>
        <time>2015-10-10T11:58:58.910Z</time>
      </trkpt>
      <trkpt lat="45.81141" lon="6.98106">
        <ele>2124.12</ele>
        <time>2015-10-10T11:59:08.910Z</time>
      </trkpt>
      <trkpt lat="45.8114" lon="6.98119">
        <ele>2120.94</ele>
        <time>2015-10-10T11:59:16.910Z</time>
      </trkpt>
      <trkpt lat="45.8114" lon="6.98132">
        <ele>2119.44</ele>
        <time>2015-10-10T11:59:21.910Z</time>
      </trkpt>
      <trkpt lat="45.81136" lon="6.98145">
        <ele>2116.7212783125</ele>
        <time>2015-10-10T11:59:29.910Z</time>
      </trkpt>
      <trkpt lat="45.81126" lon="6.98142">
        <ele>2111.5405403674</ele>
        <time>2015-10-10T11:59:44.910Z</time>
      </trkpt>
      <trkpt lat="45.81118" lon="6.98135">
        <ele>2109.13700096</ele>
        <time>2015-10-10T11:59:52.920Z</time>
      </trkpt>
      <trkpt lat="45.81112" lon="6.98126">
        <ele>2106.74</ele>
        <time>2015-10-10T12:00:00.910Z</time>
      </trkpt>
      <trkpt lat="45.81104" lon="6.98116">
        <ele>2103.4</ele>
        <time>2015-10-10T12:00:09.910Z</time>
      </trkpt>
      <trkpt lat="45.81097" lon="6.98107">
        <ele>2098.46</ele>
        <time>2015-10-10T12:00:18.910Z</time>
      </trkpt>
      <trkpt lat="45.81089" lon="6.98097">
        <ele>2091.08</ele>
        <time>2015-10-10T12:00:29.910Z</time>
      </trkpt>
      <trkpt lat="45.81083" lon="6.98085">
        <ele>2085.08</ele>
        <time>2015-10-10T12:00:39.910Z</time>
      </trkpt>
      <trkpt lat="45.81078" lon="6.98073">
        <ele>2082.08</ele>
        <time>2015-10-10T12:00:44.910Z</time>
      </trkpt>
      <trkpt lat="45.81073" lon="6.98062">
        <ele>2077.22</ele>
        <time>2015-10-10T12:00:50.910Z</time>
      </trkpt>
      <trkpt lat="45.81068" lon="6.98051">
        <ele>2070.9</ele>
        <time>2015-10-10T12:00:58.910Z</time>
      </trkpt>
      <trkpt lat="45.81065" lon="6.98039">
        <ele>2066.94</ele>
        <time>2015-10-10T12:01:06.910Z</time>
      </trkpt>
      <trkpt lat="45.81057" lon="6.98032">
        <ele>2062.32</ele>
        <time>2015-10-10T12:01:20.910Z</time>
      </trkpt>
      <trkpt lat="45.81058" lon="6.98019">
        <ele>2059.0428704698</ele>
        <time>2015-10-10T12:01:29.910Z</time>
      </trkpt>
      <trkpt lat="45.81054" lon="6.98007">
        <ele>2055.7281819267</ele>
        <time>2015-10-10T12:01:39.910Z</time>
      </trkpt>
      <trkpt lat="45.81046" lon="6.97996">
        <ele>2052.5207930429</ele>
        <time>2015-10-10T12:01:47.920Z</time>
      </trkpt>
      <trkpt lat="45.8104" lon="6.97983">
        <ele>2050.9405927544</ele>
        <time>2015-10-10T12:01:51.910Z</time>
      </trkpt>
      <trkpt lat="45.81033" lon="6.97974">
        <ele>2049.3564333348</ele>
        <time>2015-10-10T12:01:55.910Z</time>
      </trkpt>
      <trkpt lat="45.81022" lon="6.97978">
        <ele>2046.6039203137</ele>
        <time>2015-10-10T12:02:02.920Z</time>
      </trkpt>
      <trkpt lat="45.81026" lon="6.97991">
        <ele>2045.0352928628</ele>
        <time>2015-10-10T12:02:06.920Z</time>
      </trkpt>
      <trkpt lat="45.81018" lon="6.98">
        <ele>2045</ele>
        <time>2015-10-10T12:02:13.920Z</time>
      </trkpt>
      <trkpt lat="45.81012" lon="6.98011">
        <ele>2038.9</ele>
        <time>2015-10-10T12:02:26.910Z</time>
      </trkpt>
      <trkpt lat="45.81002" lon="6.98001">
        <ele>2034.64</ele>
        <time>2015-10-10T12:03:07.910Z</time>
      </trkpt>
      <trkpt lat="45.80992" lon="6.98">
        <ele>2032.83700096</ele>
        <time>2015-10-10T12:03:13.920Z</time>
      </trkpt>
      <trkpt lat="45.80987" lon="6.97989">
        <ele>2030.32</ele>
        <time>2015-10-10T12:03:20.910Z</time>
      </trkpt>
      <trkpt lat="45.80979" lon="6.97982">
        <ele>2026.14</ele>
        <time>2015-10-10T12:03:32.910Z</time>
      </trkpt>
      <trkpt lat="45.80971" lon="6.97975">
        <ele>2022.91600128</ele>
        <time>2015-10-10T12:03:41.920Z</time>
      </trkpt>
      <trkpt lat="45.80965" lon="6.97964">
        <ele>2020.03700096</ele>
        <time>2015-10-10T12:03:49.920Z</time>
      </trkpt>
      <trkpt lat="45.80957" lon="6.97956">
        <ele>2016.1895047431</ele>
        <time>2015-10-10T12:04:02.920Z</time>
      </trkpt>
      <trkpt lat="45.8096" lon="6.97944">
        <ele>2014.0978375785</ele>
        <time>2015-10-10T12:04:09.920Z</time>
      </trkpt>
      <trkpt lat="45.80959" lon="6.97929">
        <ele>2011.9603030384</ele>
        <time>2015-10-10T12:04:16.920Z</time>
      </trkpt>
      <trkpt lat="45.80956" lon="6.97916">
        <ele>2010.2589787578</ele>
        <time>2015-10-10T12:04:25.920Z</time>
      </trkpt>
      <trkpt lat="45.80952" lon="6.97903">
        <ele>2008.2070065685</ele>
        <time>2015-10-10T12:04:32.920Z</time>
      </trkpt>
      <trkpt lat="45.80947" lon="6.97891">
        <ele>2007</ele>
        <time>2015-10-10T12:04:39.910Z</time>
      </trkpt>
      <trkpt lat="45.80939" lon="6.97885">
        <ele>2006.1816362038</ele>
        <time>2015-10-10T12:05:04.910Z</time>
      </trkpt>
      <trkpt lat="45.8093" lon="6.97885">
        <ele>2004.0175261484</ele>
        <time>2015-10-10T12:05:16.910Z</time>
      </trkpt>
      <trkpt lat="45.80924" lon="6.97874">
        <ele>2000.4366644081</ele>
        <time>2015-10-10T12:05:23.920Z</time>
      </trkpt>
      <trkpt lat="45.80913" lon="6.97875">
        <ele>1997.82</ele>
        <time>2015-10-10T12:06:14.910Z</time>
      </trkpt>
      <trkpt lat="45.80916" lon="6.97863">
        <ele>1997.28</ele>
        <time>2015-10-10T12:08:03.910Z</time>
      </trkpt>
      <trkpt lat="45.80908" lon="6.97858">
        <ele>1997</ele>
        <time>2015-10-10T12:08:13.910Z</time>
      </trkpt>
      <trkpt lat="45.80902" lon="6.97848">
        <ele>1994.4708737683</ele>
        <time>2015-10-10T12:08:21.920Z</time>
      </trkpt>
      <trkpt lat="45.80896" lon="6.97858">
        <ele>1990.1752569565</ele>
        <time>2015-10-10T12:08:32.910Z</time>
      </trkpt>
      <trkpt lat="45.8089" lon="6.97871">
        <ele>1988.30699904</ele>
        <time>2015-10-10T12:08:39.020Z</time>
      </trkpt>
      <trkpt lat="45.80883" lon="6.9788">
        <ele>1986</ele>
        <time>2015-10-10T12:08:46.920Z</time>
      </trkpt>
      <trkpt lat="45.80884" lon="6.97864">
        <ele>1986</ele>
        <time>2015-10-10T12:08:51.920Z</time>
      </trkpt>
      <trkpt lat="45.80881" lon="6.97852">
        <ele>1984</ele>
        <time>2015-10-10T12:09:09.910Z</time>
      </trkpt>
      <trkpt lat="45.80872" lon="6.97846">
        <ele>1983.5389047574</ele>
        <time>2015-10-10T12:09:17.910Z</time>
      </trkpt>
      <trkpt lat="45.80863" lon="6.97845">
        <ele>1980.4649364734</ele>
        <time>2015-10-10T12:09:25.910Z</time>
      </trkpt>
      <trkpt lat="45.80855" lon="6.97837">
        <ele>1978.4191858455</ele>
        <time>2015-10-10T12:09:30.910Z</time>
      </trkpt>
      <trkpt lat="45.80846" lon="6.97833">
        <ele>1975.0909090909</ele>
        <time>2015-10-10T12:09:45.910Z</time>
      </trkpt>
      <trkpt lat="45.80841" lon="6.9782">
        <ele>1972.5384615385</ele>
        <time>2015-10-10T12:09:52.910Z</time>
      </trkpt>
      <trkpt lat="45.80839" lon="6.97807">
        <ele>1970.93700096</ele>
        <time>2015-10-10T12:09:56.920Z</time>
      </trkpt>
      <trkpt lat="45.80836" lon="6.97793">
        <ele>1968.54</ele>
        <time>2015-10-10T12:10:04.910Z</time>
      </trkpt>
      <trkpt lat="45.80832" lon="6.97781">
        <ele>1966.43700096</ele>
        <time>2015-10-10T12:10:11.920Z</time>
      </trkpt>
      <trkpt lat="45.80829" lon="6.97767">
        <ele>1963.72</ele>
        <time>2015-10-10T12:10:19.910Z</time>
      </trkpt>
      <trkpt lat="45.80824" lon="6.97754">
        <ele>1961.72</ele>
        <time>2015-10-10T12:10:24.910Z</time>
      </trkpt>
      <trkpt lat="45.80814" lon="6.97751">
        <ele>1959.14</ele>
        <time>2015-10-10T12:10:32.910Z</time>
      </trkpt>
      <trkpt lat="45.80806" lon="6.97745">
        <ele>1957.97900032</ele>
        <time>2015-10-10T12:10:36.920Z</time>
      </trkpt>
      <trkpt lat="45.80798" lon="6.97738">
        <ele>1957.38</ele>
        <time>2015-10-10T12:10:42.910Z</time>
      </trkpt>
      <trkpt lat="45.80788" lon="6.97733">
        <ele>1956.28</ele>
        <time>2015-10-10T12:10:53.910Z</time>
      </trkpt>
      <trkpt lat="45.8078" lon="6.97728">
        <ele>1954.76</ele>
        <time>2015-10-10T12:11:02.910Z</time>
      </trkpt>
      <trkpt lat="45.80778" lon="6.97741">
        <ele>1954.47900032</ele>
        <time>2015-10-10T12:11:51.920Z</time>
      </trkpt>
      <trkpt lat="45.80777" lon="6.97754">
        <ele>1952.3266932271</ele>
        <time>2015-10-10T12:12:00.910Z</time>
      </trkpt>
      <trkpt lat="45.80774" lon="6.97767">
        <ele>1950.3346613546</ele>
        <time>2015-10-10T12:12:05.910Z</time>
      </trkpt>
      <trkpt lat="45.80776" lon="6.97781">
        <ele>1948.146438723</ele>
        <time>2015-10-10T12:12:12.910Z</time>
      </trkpt>
      <trkpt lat="45.80777" lon="6.97794">
        <ele>1947</ele>
        <time>2015-10-10T12:12:18.910Z</time>
      </trkpt>
      <trkpt lat="45.80782" lon="6.97806">
        <ele>1945.9</ele>
        <time>2015-10-10T12:12:28.910Z</time>
      </trkpt>
      <trkpt lat="45.8078" lon="6.97819">
        <ele>1940.35800064</ele>
        <time>2015-10-10T12:12:44.920Z</time>
      </trkpt>
      <trkpt lat="45.80775" lon="6.97833">
        <ele>1939.17900032</ele>
        <time>2015-10-10T12:12:54.920Z</time>
      </trkpt>
      <trkpt lat="45.80768" lon="6.97844">
        <ele>1935.5658292854</ele>
        <time>2015-10-10T12:13:08.920Z</time>
      </trkpt>
      <trkpt lat="45.80763" lon="6.97856">
        <ele>1934.5628138894</ele>
        <time>2015-10-10T12:13:13.910Z</time>
      </trkpt>
      <trkpt lat="45.80754" lon="6.97847">
        <ele>1929</ele>
        <time>2015-10-10T12:13:27.910Z</time>
      </trkpt>
      <trkpt lat="45.80755" lon="6.97834">
        <ele>1929</ele>
        <time>2015-10-10T12:13:32.910Z</time>
      </trkpt>
      <trkpt lat="45.80754" lon="6.9782">
        <ele>1928.95800064</ele>
        <time>2015-10-10T12:13:36.920Z</time>
      </trkpt>
      <trkpt lat="45.80753" lon="6.97806">
        <ele>1927.75800064</ele>
        <time>2015-10-10T12:13:42.920Z</time>
      </trkpt>
      <trkpt lat="45.80743" lon="6.97804">
        <ele>1921.55800064</ele>
        <time>2015-10-10T12:14:03.920Z</time>
      </trkpt>
      <trkpt lat="45.80736" lon="6.97814">
        <ele>1920.75800064</ele>
        <time>2015-10-10T12:14:07.920Z</time>
      </trkpt>
      <trkpt lat="45.80734" lon="6.97827">
        <ele>1917.73700096</ele>
        <time>2015-10-10T12:14:20.920Z</time>
      </trkpt>
      <trkpt lat="45.80731" lon="6.97841">
        <ele>1915.63700096</ele>
        <time>2015-10-10T12:14:27.920Z</time>
      </trkpt>
      <trkpt lat="45.80724" lon="6.97833">
        <ele>1913.24</ele>
        <time>2015-10-10T12:14:35.910Z</time>
      </trkpt>
      <trkpt lat="45.80721" lon="6.97819">
        <ele>1911.1924192629</ele>
        <time>2015-10-10T12:14:42.910Z</time>
      </trkpt>
      <trkpt lat="45.80716" lon="6.97804">
        <ele>1908.1709583783</ele>
        <time>2015-10-10T12:14:52.920Z</time>
      </trkpt>
      <trkpt lat="45.80711" lon="6.97816">
        <ele>1904.15800064</ele>
        <time>2015-10-10T12:15:10.920Z</time>
      </trkpt>
      <trkpt lat="45.80709" lon="6.9783">
        <ele>1902.96</ele>
        <time>2015-10-10T12:15:16.910Z</time>
      </trkpt>
      <trkpt lat="45.80707" lon="6.97843">
        <ele>1901.76</ele>
        <time>2015-10-10T12:15:22.910Z</time>
      </trkpt>
      <trkpt lat="45.80705" lon="6.97856">
        <ele>1899.55800064</ele>
        <time>2015-10-10T12:15:33.920Z</time>
      </trkpt>
      <trkpt lat="45.80699" lon="6.97867">
        <ele>1891.16</ele>
        <time>2015-10-10T12:15:55.910Z</time>
      </trkpt>
      <trkpt lat="45.80703" lon="6.97882">
        <ele>1890.15800064</ele>
        <time>2015-10-10T12:16:00.920Z</time>
      </trkpt>
      <trkpt lat="45.80693" lon="6.97876">
        <ele>1885.67900032</ele>
        <time>2015-10-10T12:16:19.920Z</time>
      </trkpt>
      <trkpt lat="45.80686" lon="6.97884">
        <ele>1884.76</ele>
        <time>2015-10-10T12:16:27.910Z</time>
      </trkpt>
      <trkpt lat="45.80687" lon="6.97897">
        <ele>1881.3950016</ele>
        <time>2015-10-10T12:16:39.920Z</time>
      </trkpt>
      <trkpt lat="45.80695" lon="6.97906">
        <ele>1877.0446438095</ele>
        <time>2015-10-10T12:16:49.920Z</time>
      </trkpt>
      <trkpt lat="45.80698" lon="6.97919">
        <ele>1875.2589295238</ele>
        <time>2015-10-10T12:16:55.920Z</time>
      </trkpt>
      <trkpt lat="45.80701" lon="6.97938">
        <ele>1873.4485896774</ele>
        <time>2015-10-10T12:17:01.920Z</time>
      </trkpt>
      <trkpt lat="45.80705" lon="6.9795">
        <ele>1870.31600128</ele>
        <time>2015-10-10T12:17:10.920Z</time>
      </trkpt>
      <trkpt lat="45.80705" lon="6.97963">
        <ele>1867.56</ele>
        <time>2015-10-10T12:17:18.910Z</time>
      </trkpt>
      <trkpt lat="45.80704" lon="6.97976">
        <ele>1866.35800064</ele>
        <time>2015-10-10T12:17:24.920Z</time>
      </trkpt>
      <trkpt lat="45.80705" lon="6.9799">
        <ele>1863.12</ele>
        <time>2015-10-10T12:17:33.910Z</time>
      </trkpt>
      <trkpt lat="45.80701" lon="6.98003">
        <ele>1857.1588967389</ele>
        <time>2015-10-10T12:17:48.920Z</time>
      </trkpt>
      <trkpt lat="45.80704" lon="6.98017">
        <ele>1854.4947649048</ele>
        <time>2015-10-10T12:17:55.920Z</time>
      </trkpt>
      <trkpt lat="45.80695" lon="6.98025">
        <ele>1847.83700096</ele>
        <time>2015-10-10T12:18:13.920Z</time>
      </trkpt>
      <trkpt lat="45.80694" lon="6.9804">
        <ele>1846.38</ele>
        <time>2015-10-10T12:18:22.910Z</time>
      </trkpt>
      <trkpt lat="45.80696" lon="6.98056">
        <ele>1844.8950016</ele>
        <time>2015-10-10T12:18:28.920Z</time>
      </trkpt>
      <trkpt lat="45.80699" lon="6.98069">
        <ele>1842.3950016</ele>
        <time>2015-10-10T12:18:33.920Z</time>
      </trkpt>
      <trkpt lat="45.80704" lon="6.98084">
        <ele>1839.76</ele>
        <time>2015-10-10T12:18:47.910Z</time>
      </trkpt>
      <trkpt lat="45.8071" lon="6.98095">
        <ele>1838.75800064</ele>
        <time>2015-10-10T12:18:52.920Z</time>
      </trkpt>
      <trkpt lat="45.80714" lon="6.98106">
        <ele>1836.7533985264</ele>
        <time>2015-10-10T12:18:59.920Z</time>
      </trkpt>
      <trkpt lat="45.80716" lon="6.98119">
        <ele>1833.0154629176</ele>
        <time>2015-10-10T12:19:08.920Z</time>
      </trkpt>
      <trkpt lat="45.80719" lon="6.98133">
        <ele>1827.16</ele>
        <time>2015-10-10T12:19:25.910Z</time>
      </trkpt>
      <trkpt lat="45.80719" lon="6.98148">
        <ele>1823.52</ele>
        <time>2015-10-10T12:19:37.910Z</time>
      </trkpt>
      <trkpt lat="45.80717" lon="6.98163">
        <ele>1821.52</ele>
        <time>2015-10-10T12:19:42.910Z</time>
      </trkpt>
      <trkpt lat="45.80715" lon="6.98179">
        <ele>1819.15800064</ele>
        <time>2015-10-10T12:19:50.920Z</time>
      </trkpt>
      <trkpt lat="45.8072" lon="6.98191">
        <ele>1817.4059402176</ele>
        <time>2015-10-10T12:19:57.910Z</time>
      </trkpt>
      <trkpt lat="45.8071" lon="6.98188">
        <ele>1813.4455416685</ele>
        <time>2015-10-10T12:20:05.910Z</time>
      </trkpt>
      <trkpt lat="45.80712" lon="6.982">
        <ele>1812.2818183229</ele>
        <time>2015-10-10T12:20:13.920Z</time>
      </trkpt>
      <trkpt lat="45.80714" lon="6.98213">
        <ele>1808.8950016</ele>
        <time>2015-10-10T12:20:22.920Z</time>
      </trkpt>
      <trkpt lat="45.80708" lon="6.98227">
        <ele>1802.9425287356</ele>
        <time>2015-10-10T12:20:36.910Z</time>
      </trkpt>
      <trkpt lat="45.80713" lon="6.98239">
        <ele>1800.3534491954</ele>
        <time>2015-10-10T12:20:45.920Z</time>
      </trkpt>
      <trkpt lat="45.80704" lon="6.98239">
        <ele>1797.8786610879</ele>
        <time>2015-10-10T12:20:53.910Z</time>
      </trkpt>
      <trkpt lat="45.80694" lon="6.98237">
        <ele>1794.9690509673</ele>
        <time>2015-10-10T12:21:00.910Z</time>
      </trkpt>
      <trkpt lat="45.80685" lon="6.98227">
        <ele>1791.8215378637</ele>
        <time>2015-10-10T12:21:07.920Z</time>
      </trkpt>
      <trkpt lat="45.80677" lon="6.98219">
        <ele>1790.1825633862</ele>
        <time>2015-10-10T12:21:15.910Z</time>
      </trkpt>
      <trkpt lat="45.80671" lon="6.9823">
        <ele>1782.4371363634</ele>
        <time>2015-10-10T12:21:35.920Z</time>
      </trkpt>
      <trkpt lat="45.80662" lon="6.9822">
        <ele>1779.1552800628</ele>
        <time>2015-10-10T12:21:43.920Z</time>
      </trkpt>
      <trkpt lat="45.80653" lon="6.98214">
        <ele>1776.75800064</ele>
        <time>2015-10-10T12:21:52.920Z</time>
      </trkpt>
      <trkpt lat="45.80649" lon="6.982">
        <ele>1773.83700096</ele>
        <time>2015-10-10T12:22:03.920Z</time>
      </trkpt>
      <trkpt lat="45.80644" lon="6.98189">
        <ele>1772.58</ele>
        <time>2015-10-10T12:22:10.910Z</time>
      </trkpt>
      <trkpt lat="45.80644" lon="6.98203">
        <ele>1769.12</ele>
        <time>2015-10-10T12:22:23.910Z</time>
      </trkpt>
      <trkpt lat="45.80639" lon="6.98215">
        <ele>1764.71600128</ele>
        <time>2015-10-10T12:22:34.920Z</time>
      </trkpt>
      <trkpt lat="45.80635" lon="6.98228">
        <ele>1761.8900032</ele>
        <time>2015-10-10T12:22:40.930Z</time>
      </trkpt>
      <trkpt lat="45.80637" lon="6.98242">
        <ele>1758.03400192</ele>
        <time>2015-10-10T12:22:49.930Z</time>
      </trkpt>
      <trkpt lat="45.80641" lon="6.98261">
        <ele>1755.35800064</ele>
        <time>2015-10-10T12:22:59.920Z</time>
      </trkpt>
      <trkpt lat="45.80646" lon="6.98273">
        <ele>1753.75800064</ele>
        <time>2015-10-10T12:23:07.920Z</time>
      </trkpt>
      <trkpt lat="45.80652" lon="6.98284">
        <ele>1751.95800064</ele>
        <time>2015-10-10T12:23:16.920Z</time>
      </trkpt>
      <trkpt lat="45.80658" lon="6.98297">
        <ele>1750.55800064</ele>
        <time>2015-10-10T12:23:23.920Z</time>
      </trkpt>
      <trkpt lat="45.80668" lon="6.983">
        <ele>1749.35800064</ele>
        <time>2015-10-10T12:23:29.920Z</time>
      </trkpt>
      <trkpt lat="45.80675" lon="6.98309">
        <ele>1747.97900032</ele>
        <time>2015-10-10T12:23:36.920Z</time>
      </trkpt>
      <trkpt lat="45.80683" lon="6.98324">
        <ele>1747.17900032</ele>
        <time>2015-10-10T12:23:44.920Z</time>
      </trkpt>
      <trkpt lat="45.80687" lon="6.98337">
        <ele>1745.32</ele>
        <time>2015-10-10T12:23:50.910Z</time>
      </trkpt>
      <trkpt lat="45.80686" lon="6.9835">
        <ele>1742.87900032</ele>
        <time>2015-10-10T12:23:57.920Z</time>
      </trkpt>
      <trkpt lat="45.80685" lon="6.98364">
        <ele>1742.37900032</ele>
        <time>2015-10-10T12:24:02.920Z</time>
      </trkpt>
      <trkpt lat="45.80675" lon="6.98362">
        <ele>1741.2951470572</ele>
        <time>2015-10-10T12:24:07.920Z</time>
      </trkpt>
      <trkpt lat="45.80668" lon="6.98354">
        <ele>1737.7999992544</ele>
        <time>2015-10-10T12:24:13.920Z</time>
      </trkpt>
      <trkpt lat="45.80661" lon="6.98338">
        <ele>1733.8628870183</ele>
        <time>2015-10-10T12:24:23.920Z</time>
      </trkpt>
      <trkpt lat="45.80662" lon="6.98352">
        <ele>1730.0554998004</ele>
        <time>2015-10-10T12:24:39.920Z</time>
      </trkpt>
      <trkpt lat="45.80664" lon="6.98366">
        <ele>1727.7822663938</ele>
        <time>2015-10-10T12:24:48.920Z</time>
      </trkpt>
      <trkpt lat="45.80654" lon="6.98368">
        <ele>1725.7602842962</ele>
        <time>2015-10-10T12:24:58.920Z</time>
      </trkpt>
      <trkpt lat="45.80646" lon="6.98361">
        <ele>1721.5476450303</ele>
        <time>2015-10-10T12:25:05.920Z</time>
      </trkpt>
      <trkpt lat="45.80646" lon="6.98375">
        <ele>1719</ele>
        <time>2015-10-10T12:25:16.920Z</time>
      </trkpt>
      <trkpt lat="45.80649" lon="6.9839">
        <ele>1719</ele>
        <time>2015-10-10T12:25:24.920Z</time>
      </trkpt>
      <trkpt lat="45.8065" lon="6.98403">
        <ele>1717.08</ele>
        <time>2015-10-10T12:25:29.910Z</time>
      </trkpt>
      <trkpt lat="45.80646" lon="6.98415">
        <ele>1711.55800064</ele>
        <time>2015-10-10T12:25:43.920Z</time>
      </trkpt>
      <trkpt lat="45.80637" lon="6.98411">
        <ele>1710.47900032</ele>
        <time>2015-10-10T12:25:51.920Z</time>
      </trkpt>
      <trkpt lat="45.80627" lon="6.98406">
        <ele>1707.47400192</ele>
        <time>2015-10-10T12:26:00.920Z</time>
      </trkpt>
      <trkpt lat="45.80619" lon="6.98399">
        <ele>1703.95800064</ele>
        <time>2015-10-10T12:26:06.920Z</time>
      </trkpt>
      <trkpt lat="45.80612" lon="6.98385">
        <ele>1699.7038848645</ele>
        <time>2015-10-10T12:26:27.320Z</time>
      </trkpt>
      <trkpt lat="45.80607" lon="6.98397">
        <ele>1691.4381450305</ele>
        <time>2015-10-10T12:26:43.920Z</time>
      </trkpt>
      <trkpt lat="45.80601" lon="6.98407">
        <ele>1689.03700096</ele>
        <time>2015-10-10T12:26:49.920Z</time>
      </trkpt>
      <trkpt lat="45.80599" lon="6.98421">
        <ele>1686.91600128</ele>
        <time>2015-10-10T12:26:56.920Z</time>
      </trkpt>
      <trkpt lat="45.80593" lon="6.98433">
        <ele>1684.11600128</ele>
        <time>2015-10-10T12:27:03.920Z</time>
      </trkpt>
      <trkpt lat="45.80591" lon="6.98453">
        <ele>1680.53700096</ele>
        <time>2015-10-10T12:27:14.920Z</time>
      </trkpt>
      <trkpt lat="45.80588" lon="6.98468">
        <ele>1678.1912619441</ele>
        <time>2015-10-10T12:27:22.920Z</time>
      </trkpt>
      <trkpt lat="45.80585" lon="6.98482">
        <ele>1675.9876288741</ele>
        <time>2015-10-10T12:27:31.920Z</time>
      </trkpt>
      <trkpt lat="45.80577" lon="6.98472">
        <ele>1670.98</ele>
        <time>2015-10-10T12:27:46.910Z</time>
      </trkpt>
      <trkpt lat="45.80571" lon="6.9846">
        <ele>1669.93700096</ele>
        <time>2015-10-10T12:27:56.920Z</time>
      </trkpt>
      <trkpt lat="45.80566" lon="6.98472">
        <ele>1664.8950016</ele>
        <time>2015-10-10T12:28:10.920Z</time>
      </trkpt>
      <trkpt lat="45.80558" lon="6.98461">
        <ele>1661.15800064</ele>
        <time>2015-10-10T12:28:20.920Z</time>
      </trkpt>
      <trkpt lat="45.80551" lon="6.98452">
        <ele>1654.5556686327</ele>
        <time>2015-10-10T12:28:35.920Z</time>
      </trkpt>
      <trkpt lat="45.80545" lon="6.98434">
        <ele>1651.0604884481</ele>
        <time>2015-10-10T12:28:49.920Z</time>
      </trkpt>
      <trkpt lat="45.80539" lon="6.98424">
        <ele>1649.3043903389</ele>
        <time>2015-10-10T12:28:55.920Z</time>
      </trkpt>
      <trkpt lat="45.80534" lon="6.98411">
        <ele>1646.8584622413</ele>
        <time>2015-10-10T12:29:03.920Z</time>
      </trkpt>
      <trkpt lat="45.80529" lon="6.984">
        <ele>1645.27900032</ele>
        <time>2015-10-10T12:29:13.920Z</time>
      </trkpt>
      <trkpt lat="45.80522" lon="6.98385">
        <ele>1642.8950016</ele>
        <time>2015-10-10T12:29:20.920Z</time>
      </trkpt>
      <trkpt lat="45.80517" lon="6.98375">
        <ele>1640</ele>
        <time>2015-10-10T12:29:27.910Z</time>
      </trkpt>
      <trkpt lat="45.80514" lon="6.98389">
        <ele>1632.03700096</ele>
        <time>2015-10-10T12:29:49.920Z</time>
      </trkpt>
      <trkpt lat="45.80512" lon="6.98404">
        <ele>1629.35800064</ele>
        <time>2015-10-10T12:29:59.920Z</time>
      </trkpt>
      <trkpt lat="45.80504" lon="6.98414">
        <ele>1627.37900032</ele>
        <time>2015-10-10T12:30:12.920Z</time>
      </trkpt>
      <trkpt lat="45.80498" lon="6.98425">
        <ele>1626.57900032</ele>
        <time>2015-10-10T12:30:20.920Z</time>
      </trkpt>
      <trkpt lat="45.80496" lon="6.98438">
        <ele>1624.441748158</ele>
        <time>2015-10-10T12:30:29.920Z</time>
      </trkpt>
      <trkpt lat="45.80491" lon="6.9845">
        <ele>1619.8041218612</ele>
        <time>2015-10-10T12:30:39.910Z</time>
      </trkpt>
      <trkpt lat="45.80486" lon="6.98463">
        <ele>1616.6465439344</ele>
        <time>2015-10-10T12:30:47.920Z</time>
      </trkpt>
      <trkpt lat="45.80489" lon="6.98477">
        <ele>1614.3096381473</ele>
        <time>2015-10-10T12:30:55.920Z</time>
      </trkpt>
      <trkpt lat="45.80489" lon="6.9849">
        <ele>1611.5549840362</ele>
        <time>2015-10-10T12:31:04.910Z</time>
      </trkpt>
      <trkpt lat="45.80482" lon="6.98499">
        <ele>1610.3812371297</ele>
        <time>2015-10-10T12:31:12.910Z</time>
      </trkpt>
      <trkpt lat="45.80473" lon="6.98508">
        <ele>1606.2785575769</ele>
        <time>2015-10-10T12:31:22.920Z</time>
      </trkpt>
      <trkpt lat="45.80476" lon="6.98521">
        <ele>1603.35800064</ele>
        <time>2015-10-10T12:31:29.920Z</time>
      </trkpt>
      <trkpt lat="45.80479" lon="6.98535">
        <ele>1601.91600128</ele>
        <time>2015-10-10T12:31:36.920Z</time>
      </trkpt>
      <trkpt lat="45.80478" lon="6.98551">
        <ele>1597.17900032</ele>
        <time>2015-10-10T12:31:54.920Z</time>
      </trkpt>
      <trkpt lat="45.80479" lon="6.98564">
        <ele>1595.31600128</ele>
        <time>2015-10-10T12:32:00.920Z</time>
      </trkpt>
      <trkpt lat="45.80482" lon="6.98577">
        <ele>1593.72</ele>
        <time>2015-10-10T12:32:04.910Z</time>
      </trkpt>
      <trkpt lat="45.80486" lon="6.98591">
        <ele>1589.77900032</ele>
        <time>2015-10-10T12:32:18.920Z</time>
      </trkpt>
      <trkpt lat="45.80488" lon="6.98604">
        <ele>1588.165510776</ele>
        <time>2015-10-10T12:32:30.920Z</time>
      </trkpt>
      <trkpt lat="45.80487" lon="6.98618">
        <ele>1587.1744301842</ele>
        <time>2015-10-10T12:32:35.920Z</time>
      </trkpt>
      <trkpt lat="45.80485" lon="6.98631">
        <ele>1584.9793488234</ele>
        <time>2015-10-10T12:32:40.910Z</time>
      </trkpt>
      <trkpt lat="45.8049" lon="6.98643">
        <ele>1582.516222778</ele>
        <time>2015-10-10T12:32:45.920Z</time>
      </trkpt>
      <trkpt lat="45.80498" lon="6.98648">
        <ele>1581.04199936</ele>
        <time>2015-10-10T12:32:56.920Z</time>
      </trkpt>
      <trkpt lat="45.80504" lon="6.98664">
        <ele>1582.64199936</ele>
        <time>2015-10-10T12:33:04.920Z</time>
      </trkpt>
      <trkpt lat="45.80506" lon="6.98678">
        <ele>1582.6828542106</ele>
        <time>2015-10-10T12:33:09.910Z</time>
      </trkpt>
      <trkpt lat="45.8051" lon="6.98691">
        <ele>1582.0872150921</ele>
        <time>2015-10-10T12:33:15.920Z</time>
      </trkpt>
      <trkpt lat="45.80513" lon="6.98704">
        <ele>1581.3824421772</ele>
        <time>2015-10-10T12:33:22.920Z</time>
      </trkpt>
      <trkpt lat="45.80518" lon="6.9872">
        <ele>1580.1195026353</ele>
        <time>2015-10-10T12:33:35.920Z</time>
      </trkpt>
      <trkpt lat="45.80522" lon="6.98733">
        <ele>1580</ele>
        <time>2015-10-10T12:33:40.920Z</time>
      </trkpt>
      <trkpt lat="45.80526" lon="6.98745">
        <ele>1580</ele>
        <time>2015-10-10T12:33:44.910Z</time>
      </trkpt>
      <trkpt lat="45.80529" lon="6.98759">
        <ele>1580</ele>
        <time>2015-10-10T12:33:54.910Z</time>
      </trkpt>
      <trkpt lat="45.80533" lon="6.98771">
        <ele>1579.37900032</ele>
        <time>2015-10-10T12:34:02.920Z</time>
      </trkpt>
      <trkpt lat="45.8053" lon="6.98785">
        <ele>1579</ele>
        <time>2015-10-10T12:34:06.910Z</time>
      </trkpt>
      <trkpt lat="45.80531" lon="6.98799">
        <ele>1579</ele>
        <time>2015-10-10T12:34:15.920Z</time>
      </trkpt>
      <trkpt lat="45.80531" lon="6.98813">
        <ele>1579.3061632166</ele>
        <time>2015-10-10T12:34:19.910Z</time>
      </trkpt>
      <trkpt lat="45.80537" lon="6.98824">
        <ele>1579.9025850672</ele>
        <time>2015-10-10T12:34:25.910Z</time>
      </trkpt>
      <trkpt lat="45.80542" lon="6.98835">
        <ele>1580</ele>
        <time>2015-10-10T12:34:33.910Z</time>
      </trkpt>
      <trkpt lat="45.80543" lon="6.98848">
        <ele>1579.38</ele>
        <time>2015-10-10T12:34:42.910Z</time>
      </trkpt>
      <trkpt lat="45.80546" lon="6.98862">
        <ele>1576.52</ele>
        <time>2015-10-10T12:34:52.910Z</time>
      </trkpt>
      <trkpt lat="45.8055" lon="6.98875">
        <ele>1575</ele>
        <time>2015-10-10T12:34:59.910Z</time>
      </trkpt>
      <trkpt lat="45.80556" lon="6.98886">
        <ele>1575</ele>
        <time>2015-10-10T12:35:03.910Z</time>
      </trkpt>
      <trkpt lat="45.80562" lon="6.98896">
        <ele>1574.3619136465</ele>
        <time>2015-10-10T12:35:09.910Z</time>
      </trkpt>
      <trkpt lat="45.80563" lon="6.98912">
        <ele>1572.7823462878</ele>
        <time>2015-10-10T12:35:18.910Z</time>
      </trkpt>
      <trkpt lat="45.80564" lon="6.98925">
        <ele>1572.2688061604</ele>
        <time>2015-10-10T12:35:24.030Z</time>
      </trkpt>
      <trkpt lat="45.80566" lon="6.98939">
        <ele>1571.78</ele>
        <time>2015-10-10T12:35:28.910Z</time>
      </trkpt>
      <trkpt lat="45.80565" lon="6.98953">
        <ele>1571.37900032</ele>
        <time>2015-10-10T12:35:32.920Z</time>
      </trkpt>
      <trkpt lat="45.80566" lon="6.98967">
        <ele>1570.92</ele>
        <time>2015-10-10T12:35:36.910Z</time>
      </trkpt>
      <trkpt lat="45.80572" lon="6.98978">
        <ele>1567</ele>
        <time>2015-10-10T12:35:50.910Z</time>
      </trkpt>
      <trkpt lat="45.80575" lon="6.98991">
        <ele>1567</ele>
        <time>2015-10-10T12:35:59.920Z</time>
      </trkpt>
      <trkpt lat="45.80576" lon="6.99011">
        <ele>1566.97900032</ele>
        <time>2015-10-10T12:36:06.920Z</time>
      </trkpt>
      <trkpt lat="45.80571" lon="6.99022">
        <ele>1566.18</ele>
        <time>2015-10-10T12:36:14.910Z</time>
      </trkpt>
      <trkpt lat="45.80569" lon="6.99035">
        <ele>1565.57800064</ele>
        <time>2015-10-10T12:36:20.930Z</time>
      </trkpt>
      <trkpt lat="45.80572" lon="6.99048">
        <ele>1565.07800064</ele>
        <time>2015-10-10T12:36:25.930Z</time>
      </trkpt>
      <trkpt lat="45.80578" lon="6.99058">
        <ele>1565</ele>
        <time>2015-10-10T12:36:30.930Z</time>
      </trkpt>
      <trkpt lat="45.80584" lon="6.99069">
        <ele>1565</ele>
        <time>2015-10-10T12:36:35.920Z</time>
      </trkpt>
      <trkpt lat="45.80591" lon="6.99077">
        <ele>1562.8514757757</ele>
        <time>2015-10-10T12:36:43.920Z</time>
      </trkpt>
      <trkpt lat="45.80593" lon="6.9909">
        <ele>1560.4042761218</ele>
        <time>2015-10-10T12:36:54.920Z</time>
      </trkpt>
      <trkpt lat="45.80597" lon="6.99103">
        <ele>1557.5612778377</ele>
        <time>2015-10-10T12:37:02.920Z</time>
      </trkpt>
      <trkpt lat="45.80601" lon="6.99116">
        <ele>1555.77900032</ele>
        <time>2015-10-10T12:37:08.920Z</time>
      </trkpt>
      <trkpt lat="45.80604" lon="6.99129">
        <ele>1554.75800064</ele>
        <time>2015-10-10T12:37:17.920Z</time>
      </trkpt>
      <trkpt lat="45.80595" lon="6.99135">
        <ele>1553.35800064</ele>
        <time>2015-10-10T12:37:24.920Z</time>
      </trkpt>
      <trkpt lat="45.80585" lon="6.99136">
        <ele>1548.68</ele>
        <time>2015-10-10T12:37:33.910Z</time>
      </trkpt>
      <trkpt lat="45.80573" lon="6.99141">
        <ele>1542.36</ele>
        <time>2015-10-10T12:37:49.910Z</time>
      </trkpt>
      <trkpt lat="45.80564" lon="6.99135">
        <ele>1541.56</ele>
        <time>2015-10-10T12:37:53.910Z</time>
      </trkpt>
      <trkpt lat="45.80556" lon="6.99124">
        <ele>1540.56</ele>
        <time>2015-10-10T12:37:58.910Z</time>
      </trkpt>
      <trkpt lat="45.80542" lon="6.99127">
        <ele>1538.5641029201</ele>
        <time>2015-10-10T12:38:08.920Z</time>
      </trkpt>
      <trkpt lat="45.80533" lon="6.9913">
        <ele>1537.1854031939</ele>
        <time>2015-10-10T12:38:15.910Z</time>
      </trkpt>
      <trkpt lat="45.80524" lon="6.99119">
        <ele>1536.4858012263</ele>
        <time>2015-10-10T12:38:21.920Z</time>
      </trkpt>
      <trkpt lat="45.80518" lon="6.99109">
        <ele>1535.18</ele>
        <time>2015-10-10T12:38:34.910Z</time>
      </trkpt>
      <trkpt lat="45.80513" lon="6.99098">
        <ele>1533</ele>
        <time>2015-10-10T12:39:51.910Z</time>
      </trkpt>
      <trkpt lat="45.80504" lon="6.99099">
        <ele>1533</ele>
        <time>2015-10-10T12:40:35.920Z</time>
      </trkpt>
      <trkpt lat="45.80497" lon="6.99087">
        <ele>1533</ele>
        <time>2015-10-10T12:40:43.910Z</time>
      </trkpt>
      <trkpt lat="45.80493" lon="6.99073">
        <ele>1532.781562625</ele>
        <time>2015-10-10T12:40:48.910Z</time>
      </trkpt>
      <trkpt lat="45.80486" lon="6.99063">
        <ele>1532.1793589231</ele>
        <time>2015-10-10T12:40:54.920Z</time>
      </trkpt>
      <trkpt lat="45.80479" lon="6.99053">
        <ele>1531.38</ele>
        <time>2015-10-10T12:41:02.910Z</time>
      </trkpt>
      <trkpt lat="45.80471" lon="6.99044">
        <ele>1531</ele>
        <time>2015-10-10T12:41:14.910Z</time>
      </trkpt>
      <trkpt lat="45.80463" lon="6.99035">
        <ele>1530.48</ele>
        <time>2015-10-10T12:41:21.910Z</time>
      </trkpt>
      <trkpt lat="45.80455" lon="6.99024">
        <ele>1530</ele>
        <time>2015-10-10T12:41:28.920Z</time>
      </trkpt>
      <trkpt lat="45.8045" lon="6.99013">
        <ele>1530</ele>
        <time>2015-10-10T12:41:31.920Z</time>
      </trkpt>
      <trkpt lat="45.80446" lon="6.98999">
        <ele>1530</ele>
        <time>2015-10-10T12:41:36.920Z</time>
      </trkpt>
      <trkpt lat="45.80442" lon="6.98987">
        <ele>1529.6037540425</ele>
        <time>2015-10-10T12:41:40.920Z</time>
      </trkpt>
      <trkpt lat="45.80436" lon="6.98976">
        <ele>1529.2909282867</ele>
        <time>2015-10-10T12:41:43.920Z</time>
      </trkpt>
      <trkpt lat="45.80429" lon="6.98967">
        <ele>1528.47900032</ele>
        <time>2015-10-10T12:41:51.920Z</time>
      </trkpt>
      <trkpt lat="45.80423" lon="6.98955">
        <ele>1526.1871926897</ele>
        <time>2015-10-10T12:42:05.910Z</time>
      </trkpt>
      <trkpt lat="45.80421" lon="6.9894">
        <ele>1526</ele>
        <time>2015-10-10T12:42:10.920Z</time>
      </trkpt>
      <trkpt lat="45.80418" lon="6.98925">
        <ele>1526</ele>
        <time>2015-10-10T12:42:15.910Z</time>
      </trkpt>
      <trkpt lat="45.80412" lon="6.98915">
        <ele>1525.57900032</ele>
        <time>2015-10-10T12:42:20.920Z</time>
      </trkpt>
      <trkpt lat="45.80405" lon="6.98907">
        <ele>1525.17900032</ele>
        <time>2015-10-10T12:42:24.920Z</time>
      </trkpt>
      <trkpt lat="45.80396" lon="6.98901">
        <ele>1524.55600128</ele>
        <time>2015-10-10T12:42:28.930Z</time>
      </trkpt>
      <trkpt lat="45.80392" lon="6.9889">
        <ele>1523.36</ele>
        <time>2015-10-10T12:42:34.910Z</time>
      </trkpt>
      <trkpt lat="45.80385" lon="6.98878">
        <ele>1518.77900032</ele>
        <time>2015-10-10T12:42:48.920Z</time>
      </trkpt>
      <trkpt lat="45.8038" lon="6.98865">
        <ele>1518.38</ele>
        <time>2015-10-10T12:42:52.910Z</time>
      </trkpt>
      <trkpt lat="45.80377" lon="6.98852">
        <ele>1517.92</ele>
        <time>2015-10-10T12:42:56.910Z</time>
      </trkpt>
      <trkpt lat="45.80371" lon="6.98841">
        <ele>1513.8834950732</ele>
        <time>2015-10-10T12:43:07.910Z</time>
      </trkpt>
      <trkpt lat="45.80366" lon="6.98828">
        <ele>1513.3864073857</ele>
        <time>2015-10-10T12:43:13.030Z</time>
      </trkpt>
      <trkpt lat="45.80358" lon="6.98814">
        <ele>1512.606185167</ele>
        <time>2015-10-10T12:43:18.920Z</time>
      </trkpt>
      <trkpt lat="45.80354" lon="6.98802">
        <ele>1510.9037536389</ele>
        <time>2015-10-10T12:43:26.910Z</time>
      </trkpt>
      <trkpt lat="45.80347" lon="6.9879">
        <ele>1506.5726673886</ele>
        <time>2015-10-10T12:43:35.910Z</time>
      </trkpt>
      <trkpt lat="45.8034" lon="6.9878">
        <ele>1504.1831439528</ele>
        <time>2015-10-10T12:43:42.920Z</time>
      </trkpt>
      <trkpt lat="45.80336" lon="6.98769">
        <ele>1503</ele>
        <time>2015-10-10T12:43:50.910Z</time>
      </trkpt>
      <trkpt lat="45.8033" lon="6.98758">
        <ele>1502.9429420003</ele>
        <time>2015-10-10T12:43:56.910Z</time>
      </trkpt>
      <trkpt lat="45.80324" lon="6.98747">
        <ele>1501.1381387345</ele>
        <time>2015-10-10T12:44:02.920Z</time>
      </trkpt>
      <trkpt lat="45.80319" lon="6.98736">
        <ele>1500.32199936</ele>
        <time>2015-10-10T12:44:09.930Z</time>
      </trkpt>
      <trkpt lat="45.80316" lon="6.98722">
        <ele>1500.88</ele>
        <time>2015-10-10T12:44:17.910Z</time>
      </trkpt>
      <trkpt lat="45.80309" lon="6.9871">
        <ele>1500.17900032</ele>
        <time>2015-10-10T12:44:24.920Z</time>
      </trkpt>
      <trkpt lat="45.80306" lon="6.98695">
        <ele>1499.586207027</ele>
        <time>2015-10-10T12:44:30.910Z</time>
      </trkpt>
      <trkpt lat="45.80303" lon="6.98682">
        <ele>1499.0935963449</ele>
        <time>2015-10-10T12:44:35.910Z</time>
      </trkpt>
      <trkpt lat="45.80303" lon="6.98667">
        <ele>1498.3786813007</ele>
        <time>2015-10-10T12:44:39.920Z</time>
      </trkpt>
      <trkpt lat="45.80303" lon="6.98653">
        <ele>1497.5685281035</ele>
        <time>2015-10-10T12:44:43.910Z</time>
      </trkpt>
      <trkpt lat="45.80298" lon="6.98642">
        <ele>1496.358641793</ele>
        <time>2015-10-10T12:44:49.920Z</time>
      </trkpt>
      <trkpt lat="45.80295" lon="6.98629">
        <ele>1492.4374382583</ele>
        <time>2015-10-10T12:44:59.920Z</time>
      </trkpt>
      <trkpt lat="45.80297" lon="6.98616">
        <ele>1489.242241524</ele>
        <time>2015-10-10T12:45:03.910Z</time>
      </trkpt>
      <trkpt lat="45.80296" lon="6.986">
        <ele>1487</ele>
        <time>2015-10-10T12:45:13.920Z</time>
      </trkpt>
      <trkpt lat="45.80296" lon="6.98585">
        <ele>1485.96</ele>
        <time>2015-10-10T12:45:21.910Z</time>
      </trkpt>
      <trkpt lat="45.80288" lon="6.98578">
        <ele>1482.4</ele>
        <time>2015-10-10T12:45:31.910Z</time>
      </trkpt>
      <trkpt lat="45.80283" lon="6.98567">
        <ele>1480</ele>
        <time>2015-10-10T12:45:37.920Z</time>
      </trkpt>
      <trkpt lat="45.80275" lon="6.98574">
        <ele>1479.0980392157</ele>
        <time>2015-10-10T12:45:55.910Z</time>
      </trkpt>
      <trkpt lat="45.80271" lon="6.98587">
        <ele>1477.1602050612</ele>
        <time>2015-10-10T12:46:02.920Z</time>
      </trkpt>
      <trkpt lat="45.80266" lon="6.98605">
        <ele>1474.9074960366</ele>
        <time>2015-10-10T12:46:16.920Z</time>
      </trkpt>
      <trkpt lat="45.80256" lon="6.98603">
        <ele>1471.0126579123</ele>
        <time>2015-10-10T12:46:24.920Z</time>
      </trkpt>
      <trkpt lat="45.80253" lon="6.9859">
        <ele>1468.1765901776</ele>
        <time>2015-10-10T12:46:32.920Z</time>
      </trkpt>
      <trkpt lat="45.80246" lon="6.98578">
        <ele>1466.37289642</ele>
        <time>2015-10-10T12:46:39.910Z</time>
      </trkpt>
      <trkpt lat="45.8024" lon="6.98567">
        <ele>1464.6886408512</ele>
        <time>2015-10-10T12:46:49.920Z</time>
      </trkpt>
      <trkpt lat="45.80239" lon="6.98554">
        <ele>1463.94</ele>
        <time>2015-10-10T12:46:56.910Z</time>
      </trkpt>
      <trkpt lat="45.80236" lon="6.98537">
        <ele>1460.87900032</ele>
        <time>2015-10-10T12:47:07.920Z</time>
      </trkpt>
      <trkpt lat="45.80228" lon="6.98531">
        <ele>1460.17900032</ele>
        <time>2015-10-10T12:47:14.920Z</time>
      </trkpt>
      <trkpt lat="45.80223" lon="6.98519">
        <ele>1458.3950016</ele>
        <time>2015-10-10T12:47:19.920Z</time>
      </trkpt>
      <trkpt lat="45.80218" lon="6.98508">
        <ele>1454.63700096</ele>
        <time>2015-10-10T12:47:27.920Z</time>
      </trkpt>
      <trkpt lat="45.80212" lon="6.98497">
        <ele>1451.93700096</ele>
        <time>2015-10-10T12:47:36.920Z</time>
      </trkpt>
      <trkpt lat="45.80208" lon="6.9848">
        <ele>1449</ele>
        <time>2015-10-10T12:47:51.920Z</time>
      </trkpt>
      <trkpt lat="45.80204" lon="6.98467">
        <ele>1447.43700096</ele>
        <time>2015-10-10T12:48:01.920Z</time>
      </trkpt>
      <trkpt lat="45.802" lon="6.98455">
        <ele>1445.68</ele>
        <time>2015-10-10T12:48:09.910Z</time>
      </trkpt>
      <trkpt lat="45.80197" lon="6.98436">
        <ele>1443.4</ele>
        <time>2015-10-10T12:48:19.910Z</time>
      </trkpt>
      <trkpt lat="45.80188" lon="6.98433">
        <ele>1438.74</ele>
        <time>2015-10-10T12:48:30.910Z</time>
      </trkpt>
      <trkpt lat="45.80182" lon="6.98423">
        <ele>1436.56</ele>
        <time>2015-10-10T12:48:38.910Z</time>
      </trkpt>
      <trkpt lat="45.8018" lon="6.98409">
        <ele>1434.07900032</ele>
        <time>2015-10-10T12:48:55.920Z</time>
      </trkpt>
      <trkpt lat="45.8017" lon="6.98415">
        <ele>1432.598639642</ele>
        <time>2015-10-10T12:49:03.920Z</time>
      </trkpt>
      <trkpt lat="45.80162" lon="6.9842">
        <ele>1431.700308729</ele>
        <time>2015-10-10T12:49:09.910Z</time>
      </trkpt>
      <trkpt lat="45.80155" lon="6.98429">
        <ele>1429.3632724077</ele>
        <time>2015-10-10T12:49:24.910Z</time>
      </trkpt>
      <trkpt lat="45.80152" lon="6.98442">
        <ele>1427.7964937732</ele>
        <time>2015-10-10T12:49:32.910Z</time>
      </trkpt>
      <trkpt lat="45.80149" lon="6.98456">
        <ele>1426.8125637693</ele>
        <time>2015-10-10T12:49:37.910Z</time>
      </trkpt>
      <trkpt lat="45.80143" lon="6.98469">
        <ele>1425.7806389188</ele>
        <time>2015-10-10T12:49:42.920Z</time>
      </trkpt>
      <trkpt lat="45.80136" lon="6.98478">
        <ele>1424.98</ele>
        <time>2015-10-10T12:49:46.910Z</time>
      </trkpt>
      <trkpt lat="45.80123" lon="6.98475">
        <ele>1422.44</ele>
        <time>2015-10-10T12:50:01.910Z</time>
      </trkpt>
      <trkpt lat="45.80114" lon="6.98467">
        <ele>1420.3812371297</ele>
        <time>2015-10-10T12:50:12.910Z</time>
      </trkpt>
      <trkpt lat="45.80108" lon="6.98457">
        <ele>1419.1867691829</ele>
        <time>2015-10-10T12:50:20.910Z</time>
      </trkpt>
      <trkpt lat="45.80103" lon="6.98445">
        <ele>1418.214006537</ele>
        <time>2015-10-10T12:50:25.910Z</time>
      </trkpt>
      <trkpt lat="45.80099" lon="6.98434">
        <ele>1416.3917509993</ele>
        <time>2015-10-10T12:50:30.910Z</time>
      </trkpt>
      <trkpt lat="45.80097" lon="6.98421">
        <ele>1415.1505160244</ele>
        <time>2015-10-10T12:50:33.920Z</time>
      </trkpt>
      <trkpt lat="45.80096" lon="6.98404">
        <ele>1414.3257743005</ele>
        <time>2015-10-10T12:50:35.920Z</time>
      </trkpt>
      <trkpt lat="45.80088" lon="6.98397">
        <ele>1411</ele>
        <time>2015-10-10T12:51:13.910Z</time>
      </trkpt>
      <trkpt lat="45.80082" lon="6.98383">
        <ele>1408.83700096</ele>
        <time>2015-10-10T12:51:23.920Z</time>
      </trkpt>
      <trkpt lat="45.80083" lon="6.98369">
        <ele>1407.77900032</ele>
        <time>2015-10-10T12:51:28.920Z</time>
      </trkpt>
      <trkpt lat="45.80079" lon="6.98354">
        <ele>1407.17900032</ele>
        <time>2015-10-10T12:51:34.920Z</time>
      </trkpt>
      <trkpt lat="45.80077" lon="6.9834">
        <ele>1405.74</ele>
        <time>2015-10-10T12:51:40.910Z</time>
      </trkpt>
      <trkpt lat="45.80077" lon="6.98325">
        <ele>1404</ele>
        <time>2015-10-10T12:51:47.910Z</time>
      </trkpt>
      <trkpt lat="45.80076" lon="6.9831">
        <ele>1404</ele>
        <time>2015-10-10T12:51:55.920Z</time>
      </trkpt>
      <trkpt lat="45.80075" lon="6.98297">
        <ele>1401.83700096</ele>
        <time>2015-10-10T12:52:03.920Z</time>
      </trkpt>
      <trkpt lat="45.80078" lon="6.98283">
        <ele>1400.97900032</ele>
        <time>2015-10-10T12:52:06.920Z</time>
      </trkpt>
      <trkpt lat="45.80086" lon="6.98271">
        <ele>1400.58</ele>
        <time>2015-10-10T12:52:10.910Z</time>
      </trkpt>
      <trkpt lat="45.80091" lon="6.98259">
        <ele>1400.18</ele>
        <time>2015-10-10T12:52:14.910Z</time>
      </trkpt>
      <trkpt lat="45.80096" lon="6.98246">
        <ele>1399.78</ele>
        <time>2015-10-10T12:52:18.910Z</time>
      </trkpt>
      <trkpt lat="45.80101" lon="6.98235">
        <ele>1399.48</ele>
        <time>2015-10-10T12:52:21.910Z</time>
      </trkpt>
      <trkpt lat="45.80107" lon="6.98222">
        <ele>1398.87900032</ele>
        <time>2015-10-10T12:52:27.920Z</time>
      </trkpt>
      <trkpt lat="45.80112" lon="6.98207">
        <ele>1398.17900032</ele>
        <time>2015-10-10T12:52:34.920Z</time>
      </trkpt>
      <trkpt lat="45.80113" lon="6.98194">
        <ele>1397.2029124368</ele>
        <time>2015-10-10T12:52:44.920Z</time>
      </trkpt>
      <trkpt lat="45.80112" lon="6.98179">
        <ele>1395.21999872</ele>
        <time>2015-10-10T12:52:55.910Z</time>
      </trkpt>
      <trkpt lat="45.80104" lon="6.98172">
        <ele>1392.5670092754</ele>
        <time>2015-10-10T12:53:02.910Z</time>
      </trkpt>
      <trkpt lat="45.80098" lon="6.98161">
        <ele>1390.28</ele>
        <time>2015-10-10T12:53:13.910Z</time>
      </trkpt>
      <trkpt lat="45.80095" lon="6.98143">
        <ele>1388.9668597478</ele>
        <time>2015-10-10T12:53:26.910Z</time>
      </trkpt>
      <trkpt lat="45.80097" lon="6.98126">
        <ele>1387.2124748772</ele>
        <time>2015-10-10T12:53:35.910Z</time>
      </trkpt>
      <trkpt lat="45.80095" lon="6.98113">
        <ele>1386.4943355734</ele>
        <time>2015-10-10T12:53:41.910Z</time>
      </trkpt>
      <trkpt lat="45.80089" lon="6.98102">
        <ele>1384.9</ele>
        <time>2015-10-10T12:53:48.910Z</time>
      </trkpt>
      <trkpt lat="45.80087" lon="6.98089">
        <ele>1381.4</ele>
        <time>2015-10-10T12:53:55.910Z</time>
      </trkpt>
      <trkpt lat="45.80082" lon="6.98078">
        <ele>1379.96</ele>
        <time>2015-10-10T12:54:01.910Z</time>
      </trkpt>
      <trkpt lat="45.80075" lon="6.98069">
        <ele>1378.88</ele>
        <time>2015-10-10T12:54:07.910Z</time>
      </trkpt>
      <trkpt lat="45.80067" lon="6.98059">
        <ele>1378.37900032</ele>
        <time>2015-10-10T12:54:12.920Z</time>
      </trkpt>
      <trkpt lat="45.8006" lon="6.98048">
        <ele>1377.976</ele>
        <time>2015-10-10T12:54:16.950Z</time>
      </trkpt>
      <trkpt lat="45.80053" lon="6.98038">
        <ele>1377.47900032</ele>
        <time>2015-10-10T12:54:21.920Z</time>
      </trkpt>
      <trkpt lat="45.80047" lon="6.98028">
        <ele>1376.88</ele>
        <time>2015-10-10T12:54:27.910Z</time>
      </trkpt>
      <trkpt lat="45.80039" lon="6.98017">
        <ele>1374.75800064</ele>
        <time>2015-10-10T12:54:42.920Z</time>
      </trkpt>
      <trkpt lat="45.80027" lon="6.98006">
        <ele>1373.77900032</ele>
        <time>2015-10-10T12:54:48.920Z</time>
      </trkpt>
      <trkpt lat="45.8002" lon="6.97994">
        <ele>1373.28</ele>
        <time>2015-10-10T12:54:53.910Z</time>
      </trkpt>
      <trkpt lat="45.8001" lon="6.97983">
        <ele>1370.91600128</ele>
        <time>2015-10-10T12:55:01.920Z</time>
      </trkpt>
      <trkpt lat="45.80002" lon="6.97978">
        <ele>1369</ele>
        <time>2015-10-10T12:55:06.910Z</time>
      </trkpt>
      <trkpt lat="45.79997" lon="6.97965">
        <ele>1369</ele>
        <time>2015-10-10T12:55:11.920Z</time>
      </trkpt>
      <trkpt lat="45.79991" lon="6.97948">
        <ele>1368.91600128</ele>
        <time>2015-10-10T12:55:16.920Z</time>
      </trkpt>
      <trkpt lat="45.79985" lon="6.97935">
        <ele>1366.11600128</ele>
        <time>2015-10-10T12:55:23.920Z</time>
      </trkpt>
      <trkpt lat="45.79979" lon="6.97922">
        <ele>1364.48</ele>
        <time>2015-10-10T12:55:31.910Z</time>
      </trkpt>
      <trkpt lat="45.79976" lon="6.97909">
        <ele>1363.53799936</ele>
        <time>2015-10-10T12:55:39.020Z</time>
      </trkpt>
      <trkpt lat="45.7997" lon="6.97897">
        <ele>1361.5262157833</ele>
        <time>2015-10-10T12:55:47.930Z</time>
      </trkpt>
      <trkpt lat="45.79963" lon="6.97887">
        <ele>1358.811649747</ele>
        <time>2015-10-10T12:55:54.920Z</time>
      </trkpt>
      <trkpt lat="45.79954" lon="6.9788">
        <ele>1357.5983516875</ele>
        <time>2015-10-10T12:56:00.910Z</time>
      </trkpt>
      <trkpt lat="45.79947" lon="6.97871">
        <ele>1356.9809806667</ele>
        <time>2015-10-10T12:56:06.910Z</time>
      </trkpt>
      <trkpt lat="45.79942" lon="6.97856">
        <ele>1356.4804803266</ele>
        <time>2015-10-10T12:56:11.910Z</time>
      </trkpt>
      <trkpt lat="45.79938" lon="6.97844">
        <ele>1355.95800064</ele>
        <time>2015-10-10T12:56:16.920Z</time>
      </trkpt>
      <trkpt lat="45.79929" lon="6.9784">
        <ele>1354.35800064</ele>
        <time>2015-10-10T12:56:24.920Z</time>
      </trkpt>
      <trkpt lat="45.79922" lon="6.97831">
        <ele>1352.598639642</ele>
        <time>2015-10-10T12:56:33.920Z</time>
      </trkpt>
      <trkpt lat="45.79922" lon="6.97817">
        <ele>1351.1946443025</ele>
        <time>2015-10-10T12:56:40.910Z</time>
      </trkpt>
      <trkpt lat="45.79926" lon="6.97802">
        <ele>1349.75800064</ele>
        <time>2015-10-10T12:56:47.920Z</time>
      </trkpt>
      <trkpt lat="45.79931" lon="6.9779">
        <ele>1348.75800064</ele>
        <time>2015-10-10T12:56:52.920Z</time>
      </trkpt>
      <trkpt lat="45.79935" lon="6.97778">
        <ele>1347.36</ele>
        <time>2015-10-10T12:56:59.910Z</time>
      </trkpt>
      <trkpt lat="45.79938" lon="6.97764">
        <ele>1346.55800064</ele>
        <time>2015-10-10T12:57:03.920Z</time>
      </trkpt>
      <trkpt lat="45.7994" lon="6.97751">
        <ele>1345</ele>
        <time>2015-10-10T12:57:16.910Z</time>
      </trkpt>
      <trkpt lat="45.79945" lon="6.97738">
        <ele>1345</ele>
        <time>2015-10-10T12:57:23.920Z</time>
      </trkpt>
      <trkpt lat="45.79952" lon="6.97728">
        <ele>1345</ele>
        <time>2015-10-10T12:57:29.910Z</time>
      </trkpt>
      <trkpt lat="45.79958" lon="6.97716">
        <ele>1345</ele>
        <time>2015-10-10T12:57:34.910Z</time>
      </trkpt>
      <trkpt lat="45.79959" lon="6.977">
        <ele>1344.7805609423</ele>
        <time>2015-10-10T12:57:38.920Z</time>
      </trkpt>
      <trkpt lat="45.79959" lon="6.97685">
        <ele>1344.4809616154</ele>
        <time>2015-10-10T12:57:41.910Z</time>
      </trkpt>
      <trkpt lat="45.79957" lon="6.97671">
        <ele>1343.92</ele>
        <time>2015-10-10T12:57:46.910Z</time>
      </trkpt>
      <trkpt lat="45.79954" lon="6.97657">
        <ele>1341.92</ele>
        <time>2015-10-10T12:57:51.910Z</time>
      </trkpt>
      <trkpt lat="45.79953" lon="6.97641">
        <ele>1339.96</ele>
        <time>2015-10-10T12:57:56.910Z</time>
      </trkpt>
      <trkpt lat="45.79952" lon="6.97626">
        <ele>1338.96</ele>
        <time>2015-10-10T12:58:01.910Z</time>
      </trkpt>
      <trkpt lat="45.79948" lon="6.97638">
        <ele>1337.3760937224</ele>
        <time>2015-10-10T12:58:09.920Z</time>
      </trkpt>
      <trkpt lat="45.7994" lon="6.97634">
        <ele>1336.2099126017</ele>
        <time>2015-10-10T12:58:15.920Z</time>
      </trkpt>
      <trkpt lat="45.79934" lon="6.97623">
        <ele>1335.4933060372</ele>
        <time>2015-10-10T12:58:21.920Z</time>
      </trkpt>
      <trkpt lat="45.79928" lon="6.97612">
        <ele>1334.55800064</ele>
        <time>2015-10-10T12:58:28.920Z</time>
      </trkpt>
      <trkpt lat="45.79921" lon="6.97603">
        <ele>1333.15800064</ele>
        <time>2015-10-10T12:58:35.920Z</time>
      </trkpt>
      <trkpt lat="45.79915" lon="6.97592">
        <ele>1332.37900032</ele>
        <time>2015-10-10T12:58:42.920Z</time>
      </trkpt>
      <trkpt lat="45.79908" lon="6.97582">
        <ele>1331.67900032</ele>
        <time>2015-10-10T12:58:49.920Z</time>
      </trkpt>
      <trkpt lat="45.79901" lon="6.9757">
        <ele>1330.9387764241</ele>
        <time>2015-10-10T12:58:56.920Z</time>
      </trkpt>
      <trkpt lat="45.79897" lon="6.97558">
        <ele>1328.6064141828</ele>
        <time>2015-10-10T12:59:04.920Z</time>
      </trkpt>
      <trkpt lat="45.79891" lon="6.97545">
        <ele>1327.0823892622</ele>
        <time>2015-10-10T12:59:15.910Z</time>
      </trkpt>
      <trkpt lat="45.79885" lon="6.97535">
        <ele>1325.55800064</ele>
        <time>2015-10-10T12:59:23.920Z</time>
      </trkpt>
      <trkpt lat="45.7988" lon="6.97522">
        <ele>1324.33700096</ele>
        <time>2015-10-10T12:59:28.920Z</time>
      </trkpt>
      <trkpt lat="45.79877" lon="6.97508">
        <ele>1323.14</ele>
        <time>2015-10-10T12:59:32.910Z</time>
      </trkpt>
      <trkpt lat="45.79873" lon="6.97494">
        <ele>1321.7602396836</ele>
        <time>2015-10-10T12:59:37.910Z</time>
      </trkpt>
      <trkpt lat="45.79868" lon="6.97483">
        <ele>1320.7612383652</ele>
        <time>2015-10-10T12:59:42.910Z</time>
      </trkpt>
      <trkpt lat="45.79865" lon="6.97471">
        <ele>1319.78</ele>
        <time>2015-10-10T12:59:48.920Z</time>
      </trkpt>
      <trkpt lat="45.79863" lon="6.97456">
        <ele>1319.28</ele>
        <time>2015-10-10T12:59:53.920Z</time>
      </trkpt>
      <trkpt lat="45.79861" lon="6.97441">
        <ele>1317.7417411838</ele>
        <time>2015-10-10T13:00:00.910Z</time>
      </trkpt>
      <trkpt lat="45.79858" lon="6.97428">
        <ele>1315.77900032</ele>
        <time>2015-10-10T13:00:08.920Z</time>
      </trkpt>
      <trkpt lat="45.79855" lon="6.97415">
        <ele>1314.92</ele>
        <time>2015-10-10T13:00:16.910Z</time>
      </trkpt>
      <trkpt lat="45.79854" lon="6.97401">
        <ele>1313.32</ele>
        <time>2015-10-10T13:00:20.910Z</time>
      </trkpt>
      <trkpt lat="45.79853" lon="6.97385">
        <ele>1311.72</ele>
        <time>2015-10-10T13:00:24.910Z</time>
      </trkpt>
      <trkpt lat="45.79848" lon="6.9737">
        <ele>1310.77900032</ele>
        <time>2015-10-10T13:00:28.920Z</time>
      </trkpt>
      <trkpt lat="45.79846" lon="6.97356">
        <ele>1310.18</ele>
        <time>2015-10-10T13:00:34.910Z</time>
      </trkpt>
      <trkpt lat="45.7984" lon="6.97346">
        <ele>1309.5804194463</ele>
        <time>2015-10-10T13:00:40.910Z</time>
      </trkpt>
      <trkpt lat="45.79831" lon="6.97343">
        <ele>1307.3603602449</ele>
        <time>2015-10-10T13:00:54.910Z</time>
      </trkpt>
      <trkpt lat="45.79824" lon="6.97332">
        <ele>1305</ele>
        <time>2015-10-10T13:01:11.910Z</time>
      </trkpt>
      <trkpt lat="45.79822" lon="6.97315">
        <ele>1305</ele>
        <time>2015-10-10T13:01:15.910Z</time>
      </trkpt>
      <trkpt lat="45.79821" lon="6.97302">
        <ele>1304.5817270519</ele>
        <time>2015-10-10T13:01:18.920Z</time>
      </trkpt>
      <trkpt lat="45.7982" lon="6.97289">
        <ele>1303.974619606</ele>
        <time>2015-10-10T13:01:21.910Z</time>
      </trkpt>
      <trkpt lat="45.79821" lon="6.97275">
        <ele>1303.162436601</ele>
        <time>2015-10-10T13:01:25.910Z</time>
      </trkpt>
      <trkpt lat="45.79819" lon="6.97261">
        <ele>1301.32</ele>
        <time>2015-10-10T13:01:30.910Z</time>
      </trkpt>
      <trkpt lat="45.7981" lon="6.97259">
        <ele>1296</ele>
        <time>2015-10-10T13:01:46.910Z</time>
      </trkpt>
      <trkpt lat="45.79803" lon="6.97249">
        <ele>1295.55800064</ele>
        <time>2015-10-10T13:01:58.920Z</time>
      </trkpt>
      <trkpt lat="45.79799" lon="6.97234">
        <ele>1294.36</ele>
        <time>2015-10-10T13:02:04.910Z</time>
      </trkpt>
      <trkpt lat="45.79795" lon="6.97222">
        <ele>1293.7854370706</ele>
        <time>2015-10-10T13:02:08.920Z</time>
      </trkpt>
      <trkpt lat="45.79793" lon="6.97209">
        <ele>1293.4951453174</ele>
        <time>2015-10-10T13:02:11.910Z</time>
      </trkpt>
      <trkpt lat="45.79792" lon="6.97196">
        <ele>1293.2038830005</ele>
        <time>2015-10-10T13:02:14.910Z</time>
      </trkpt>
      <trkpt lat="45.79789" lon="6.97183">
        <ele>1292.606185167</ele>
        <time>2015-10-10T13:02:18.920Z</time>
      </trkpt>
      <trkpt lat="45.79785" lon="6.9717">
        <ele>1290.96</ele>
        <time>2015-10-10T13:02:26.910Z</time>
      </trkpt>
      <trkpt lat="45.79782" lon="6.97157">
        <ele>1289.55800064</ele>
        <time>2015-10-10T13:02:33.920Z</time>
      </trkpt>
      <trkpt lat="45.79782" lon="6.97143">
        <ele>1288.77900032</ele>
        <time>2015-10-10T13:02:38.920Z</time>
      </trkpt>
      <trkpt lat="45.79782" lon="6.97128">
        <ele>1288.27900032</ele>
        <time>2015-10-10T13:02:43.920Z</time>
      </trkpt>
      <trkpt lat="45.79778" lon="6.97117">
        <ele>1287.5169670368</ele>
        <time>2015-10-10T13:02:47.920Z</time>
      </trkpt>
      <trkpt lat="45.79769" lon="6.97126">
        <ele>1285.5249485189</ele>
        <time>2015-10-10T13:02:52.910Z</time>
      </trkpt>
      <trkpt lat="45.79765" lon="6.97138">
        <ele>1283.9809616154</ele>
        <time>2015-10-10T13:02:56.920Z</time>
      </trkpt>
      <trkpt lat="45.7976" lon="6.97149">
        <ele>1283.3807612789</ele>
        <time>2015-10-10T13:03:02.910Z</time>
      </trkpt>
      <trkpt lat="45.79752" lon="6.97156">
        <ele>1283.8191810811</ele>
        <time>2015-10-10T13:03:14.910Z</time>
      </trkpt>
      <trkpt lat="45.79743" lon="6.97162">
        <ele>1284</ele>
        <time>2015-10-10T13:03:20.920Z</time>
      </trkpt>
      <trkpt lat="45.79734" lon="6.97168">
        <ele>1284</ele>
        <time>2015-10-10T13:03:25.920Z</time>
      </trkpt>
      <trkpt lat="45.79724" lon="6.97177">
        <ele>1284</ele>
        <time>2015-10-10T13:03:30.910Z</time>
      </trkpt>
      <trkpt lat="45.79713" lon="6.97176">
        <ele>1284</ele>
        <time>2015-10-10T13:03:42.910Z</time>
      </trkpt>
      <trkpt lat="45.79703" lon="6.9718">
        <ele>1284</ele>
        <time>2015-10-10T13:03:48.910Z</time>
      </trkpt>
      <trkpt lat="45.79694" lon="6.97181">
        <ele>1284</ele>
        <time>2015-10-10T13:03:51.920Z</time>
      </trkpt>
      <trkpt lat="45.79684" lon="6.97184">
        <ele>1284</ele>
        <time>2015-10-10T13:03:55.920Z</time>
      </trkpt>
      <trkpt lat="45.79673" lon="6.97189">
        <ele>1283</ele>
        <time>2015-10-10T13:04:08.910Z</time>
      </trkpt>
      <trkpt lat="45.79663" lon="6.97192">
        <ele>1283</ele>
        <time>2015-10-10T13:04:15.920Z</time>
      </trkpt>
      <trkpt lat="45.79654" lon="6.9719">
        <ele>1283</ele>
        <time>2015-10-10T13:04:19.910Z</time>
      </trkpt>
      <trkpt lat="45.79643" lon="6.97193">
        <ele>1283</ele>
        <time>2015-10-10T13:04:23.920Z</time>
      </trkpt>
      <trkpt lat="45.79634" lon="6.97193">
        <ele>1282.96</ele>
        <time>2015-10-10T13:04:26.910Z</time>
      </trkpt>
      <trkpt lat="45.79624" lon="6.97193">
        <ele>1281.96</ele>
        <time>2015-10-10T13:04:31.910Z</time>
      </trkpt>
      <trkpt lat="45.79615" lon="6.97194">
        <ele>1280.67900032</ele>
        <time>2015-10-10T13:04:39.920Z</time>
      </trkpt>
      <trkpt lat="45.79607" lon="6.97201">
        <ele>1279.48</ele>
        <time>2015-10-10T13:04:51.910Z</time>
      </trkpt>
      <trkpt lat="45.79597" lon="6.97203">
        <ele>1279</ele>
        <time>2015-10-10T13:04:56.910Z</time>
      </trkpt>
      <trkpt lat="45.79588" lon="6.97212">
        <ele>1279</ele>
        <time>2015-10-10T13:05:01.910Z</time>
      </trkpt>
      <trkpt lat="45.79581" lon="6.97222">
        <ele>1279</ele>
        <time>2015-10-10T13:05:05.910Z</time>
      </trkpt>
      <trkpt lat="45.79578" lon="6.97235">
        <ele>1279</ele>
        <time>2015-10-10T13:05:11.920Z</time>
      </trkpt>
      <trkpt lat="45.79571" lon="6.97246">
        <ele>1279</ele>
        <time>2015-10-10T13:05:22.910Z</time>
      </trkpt>
      <trkpt lat="45.79562" lon="6.97252">
        <ele>1279</ele>
        <time>2015-10-10T13:05:26.920Z</time>
      </trkpt>
      <trkpt lat="45.79557" lon="6.97263">
        <ele>1281</ele>
        <time>2015-10-10T13:05:38.910Z</time>
      </trkpt>
      <trkpt lat="45.79549" lon="6.97271">
        <ele>1281</ele>
        <time>2015-10-10T13:05:42.920Z</time>
      </trkpt>
      <trkpt lat="45.79543" lon="6.97281">
        <ele>1281</ele>
        <time>2015-10-10T13:05:52.910Z</time>
      </trkpt>
      <trkpt lat="45.79535" lon="6.97274">
        <ele>1280.52</ele>
        <time>2015-10-10T13:05:57.910Z</time>
      </trkpt>
      <trkpt lat="45.79526" lon="6.97267">
        <ele>1278.52</ele>
        <time>2015-10-10T13:06:02.910Z</time>
      </trkpt>
      <trkpt lat="45.79518" lon="6.97255">
        <ele>1276.9796119485</ele>
        <time>2015-10-10T13:06:06.920Z</time>
      </trkpt>
      <trkpt lat="45.79513" lon="6.97242">
        <ele>1276.5922327563</ele>
        <time>2015-10-10T13:06:10.910Z</time>
      </trkpt>
      <trkpt lat="45.79504" lon="6.97229">
        <ele>1276.1067955615</ele>
        <time>2015-10-10T13:06:15.910Z</time>
      </trkpt>
      <trkpt lat="45.79497" lon="6.97218">
        <ele>1273.9917584373</ele>
        <time>2015-10-10T13:06:20.910Z</time>
      </trkpt>
      <trkpt lat="45.7949" lon="6.97209">
        <ele>1271.9320268813</ele>
        <time>2015-10-10T13:06:24.910Z</time>
      </trkpt>
      <trkpt lat="45.79478" lon="6.9721">
        <ele>1270.1231221227</ele>
        <time>2015-10-10T13:06:28.910Z</time>
      </trkpt>
      <trkpt lat="45.79466" lon="6.97211">
        <ele>1268.9179185848</ele>
        <time>2015-10-10T13:06:31.920Z</time>
      </trkpt>
      <trkpt lat="45.79457" lon="6.9721">
        <ele>1267.7207204899</ele>
        <time>2015-10-10T13:06:34.910Z</time>
      </trkpt>
      <trkpt lat="45.79447" lon="6.97213">
        <ele>1266.78</ele>
        <time>2015-10-10T13:06:38.910Z</time>
      </trkpt>
      <trkpt lat="45.79438" lon="6.97215">
        <ele>1266.38</ele>
        <time>2015-10-10T13:06:42.910Z</time>
      </trkpt>
      <trkpt lat="45.79428" lon="6.9721">
        <ele>1265.88</ele>
        <time>2015-10-10T13:06:47.910Z</time>
      </trkpt>
      <trkpt lat="45.79423" lon="6.972">
        <ele>1265.38</ele>
        <time>2015-10-10T13:06:52.910Z</time>
      </trkpt>
      <trkpt lat="45.79417" lon="6.97189">
        <ele>1264.93700096</ele>
        <time>2015-10-10T13:06:56.920Z</time>
      </trkpt>
      <trkpt lat="45.79409" lon="6.97179">
        <ele>1264.04</ele>
        <time>2015-10-10T13:06:59.910Z</time>
      </trkpt>
      <trkpt lat="45.794" lon="6.97171">
        <ele>1263.14</ele>
        <time>2015-10-10T13:07:02.910Z</time>
      </trkpt>
      <trkpt lat="45.7939" lon="6.97165">
        <ele>1261.9795921414</ele>
        <time>2015-10-10T13:07:06.920Z</time>
      </trkpt>
      <trkpt lat="45.79382" lon="6.97159">
        <ele>1261.5918366078</ele>
        <time>2015-10-10T13:07:10.910Z</time>
      </trkpt>
      <trkpt lat="45.79376" lon="6.97147">
        <ele>1261.1059278075</ele>
        <time>2015-10-10T13:07:15.910Z</time>
      </trkpt>
      <trkpt lat="45.79372" lon="6.97128">
        <ele>1254</ele>
        <time>2015-10-10T13:08:00.910Z</time>
      </trkpt>
      <trkpt lat="45.79372" lon="6.97115">
        <ele>1254</ele>
        <time>2015-10-10T13:08:50.920Z</time>
      </trkpt>
      <trkpt lat="45.79375" lon="6.97108">
        <ele>1252</ele>
        <time>2015-10-10T13:10:18.920Z</time>
      </trkpt>
    </trkseg>
  </trk>
</gpx>